     2              OBSERVATION DATA    GPS                 RINEX VERSION / TYPE
teqc 1999Jul19 19991123 03:00:02UTC                         PGM / RUN BY / DATE
                                                            COMMENT
Original Marker Name: 0404                                  COMMENT
Campaign Name: HPGN 1991                                    COMMENT
4-Character Station Name: 0404                              COMMENT
6-Character Antenna Code: TRMSST                            COMMENT
Vertical Measurement Point: BPA                             COMMENT
Vertical Offset to Rinex Ref. Point: 0.0000                 COMMENT
Radial Measurement Point: RRP                               COMMENT
Radial Offset to Rinex Ref. Point: 0.0000                   COMMENT
Antenna Height from Field Measurement: 2.2200 m             COMMENT
                                                            COMMENT
Original XYZ: -2720277.2825 -4279315.0483 3856318.7275      COMMENT
New XYZ position is based on association with SCEC monument COMMENT
E1F6S9O8+0011. Position of that monument is believed to be  COMMENT
valid to within 1 m horizontally; vertical accuracy         COMMENT
should be no worse than 3-times this value.                 COMMENT
                                                            COMMENT
Revised Rinex header created by UCSD GPS archive for        COMMENT
GSAC on 10-Mar-2000 (2000:070) 05:02:57 GMT                 COMMENT
For assistance contact dagnew@ucsd.edu or hjohnson@ucsd.edu COMMENT
                                                            COMMENT
MOON 2                                                      MARKER NAME
0404                                                        MARKER NUMBER
-Unknown- CALIF DEPT TRANSPORTATION                         OBSERVER / AGENCY
622 TRIMBLE 4000 SST NP 4.30 / SP 4.20                      REC # / TYPE / VERS
123 TR 4000SST L1/L2 GEO                                    ANT # / TYPE
 -2720128.0876 -4279139.4152  3856181.8346                  APPROX POSITION XYZ
        2.2200        0.0000        0.0000                  ANTENNA: DELTA H/E/N
     1     1     0                                          WAVELENGTH FACT L1/2
     5    C1    L1    L2    S1    S2                        # / TYPES OF OBSERV
     0                                                      INTERVAL
  1991     5    20    17    53   45.000000                  TIME OF FIRST OBS
  1991     5    20    23    57    0.000000                  TIME OF LAST OBS
                                                            END OF HEADER
 91  5 20 17 53 45.0000000  0  4G18G 2G11G19
  20709125.828          -0.87218                        29.500
  24229633.453          -0.59415                         9.250
  24500268.406          -0.93216                        12.000
  20765113.617          -0.68217                        24.000
 91  5 20 17 54  0.0000000  0  4G18G 2G11G19
  20713418.398       22555.063 8        -0.16432        29.250           2.469
  24220913.406      -45830.363 5                         9.250
  24493926.367      -33322.356 5                        11.500
  20765656.266        2857.186 7        -0.34232        24.500           1.938
 91  5 20 17 54 15.0000000  0  4G18G 2G11G19
  20717728.641       45206.246 8     17650.09923        29.500           2.500
  24212197.750      -91636.872 5        -0.50031         9.500           0.406
  24487598.320      -66587.368 5        -0.01631        11.750           0.469
  20766208.633        5759.640 7      2261.31722        23.750           1.844
 91  5 20 17 54 30.0000000  0  4G18G 2G11G19
  20722057.914       67959.773 8     35380.10122        29.250           2.438
  24203487.367     -137412.823 5    -35669.94221        10.000           0.438
  24481278.711      -99788.493 5    -25870.94121        11.750           0.375
  20766771.625        8713.496 7      4563.03422        23.750           1.813
 91  5 20 17 54 45.0000000  0  3G18G11G19
  20726407.320       90814.634 8     53189.07223        29.000           2.531
  24474974.070     -132926.189 6    -51692.44621        13.000           0.313
  20767343.703       11717.932 7      6904.16022        23.500           1.875
 91  5 20 17 55  0.0000000  0  3G18G11G19
  20730775.383      113770.089 8     71076.42023        29.250           2.563
  24468679.586     -166001.047 6    -77464.97121        13.000           0.313
  20767924.227       14771.913 7      9283.89222        23.500           1.844
 91  5 20 17 55 15.0000000  0  3G18G11G19
  20735163.383      136828.625 8     89044.10323        29.000           2.563
  24462397.469     -199009.870 6   -103186.06021        13.250           0.344
  20768516.734       17878.168 7     11704.36122        23.250           1.875
 91  5 20 17 55 30.0000000  0  3G18G11G19
  20739569.305      159985.119 8    107088.10123        29.250           2.688
  24456128.914     -231957.245 6   -128859.24621        13.500           0.281
  20769117.156       21031.573 7     14161.56722        23.000           1.875
 91  5 20 17 55 45.0000000  0  3G18G11G19
  20743996.313      183247.756 8    125214.81423        29.000           2.625
  24449871.406     -264834.906 6   -154478.13221        13.500           0.375
  20769726.969       24239.877 7     16661.55222        23.000           1.844
 91  5 20 17 56  0.0000000  0  3G18G11G19
  20748443.289      206617.284 8    143424.82022        29.000           2.375
  24443629.453     -297641.563 6   -180041.67321        13.250           0.344
  20770347.609       27503.942 7     19204.98522        23.250           1.781
 91  5 20 17 56 15.0000000  0  3G18G11G19
  20752911.391      230091.292 8    161716.24123        29.250           2.563
  24437398.773     -330379.379 6   -205551.56121        12.750           0.219
  20770978.461       30821.169 7     21789.84722        22.750           1.813
 91  5 20 17 56 30.0000000  0  3G18G11G19
  20757397.430      253670.778 8    180089.85023        29.000           2.500
  24431182.250     -363046.839 6   -231006.64621        12.250           0.313
  20771619.023       34192.652 7     24416.98622        23.250           1.813
 91  5 20 17 56 45.0000000  0  3G18G11G19
  20761905.094      277353.411 8    198543.82823        29.250           2.625
  24424977.648     -395645.656 6   -256408.22121        12.250           0.250
  20772271.539       37616.228 7     27084.71022        23.000           1.750
 91  5 20 17 57  0.0000000  0  3G18G11G19
  20766431.625      301138.942 8    217077.99623        29.500           2.719
  24418787.602     -428175.832 5   -281756.32721        11.750           0.219
  20772932.234       41091.437 7     29792.67222        23.000           1.813
 91  5 20 17 57 15.0000000  0  3G18G11G19
  20770977.234      325031.278 8    235695.38723        28.750           2.594
  24412613.555     -460633.132 6   -307047.63321        12.500           0.219
  20773604.969       44622.069 7     32543.82122        23.250           1.750
 91  5 20 17 57 30.0000000  0  3G18G11G19
  20775542.773      349027.079 8    254393.40223        28.750           2.688
  24406450.313     -493020.258 6   -332284.26021        12.500           0.250
  20774286.094       48204.991 7     35335.72222        23.500           1.781
 91  5 20 17 57 45.0000000  0  3G18G11G19
  20780129.859      373125.029 8    273171.01723        28.750           2.656
  24400298.680     -525338.350 6   -357467.07621        12.250           0.344
  20774978.930       51838.665 7     38167.17222        23.750           1.750
 91  5 20 17 58  0.0000000  0  3G18G11G19
  20784734.406      397325.648 8    292028.62923        29.000           2.656
  24394160.813     -557586.360 6   -382595.32221        12.000           0.313
  20775680.648       55523.657 7     41038.60022        23.250           1.781
 91  5 20 17 58 15.0000000  0  4G18G16G11G19
  20789358.680      421628.976 8    310966.27623        29.000           2.688
  24372243.703      -31038.079 5                         9.000
  24388039.508     -589763.873 6   -407668.61121        12.000           0.313
  20776392.430       59259.879 7     43949.95022        23.000           1.875
 91  5 20 17 58 30.0000000  0  4G18G16G11G19
  20794005.063      446038.180 8    329986.42323        28.750           2.688
  24366356.945      -61972.960 5                        10.000
  24381930.813     -621867.029 6   -432683.95721        12.000           0.344
  20777109.781       63050.705 7     46903.85022        24.000           1.875
 91  5 20 17 58 45.0000000  0  4G18G16G11G19
  20798669.320      470553.318 8    349089.11423        28.750           2.688
  24360489.211      -92804.903 5                        10.250
  24375833.422     -653895.475 5   -457641.09221        11.750           0.406
  20777843.555       66896.133 7     49900.29622        23.500           1.875
 91  5 20 17 59  0.0000000  0  4G18G16G11G19
  20803354.117      495170.973 8    368271.68823        29.000           2.625
  24354640.930     -123537.280 5                        10.000
  24369753.281     -685852.238 5   -482542.36621        11.750           0.438
  20778586.047       70792.494 7     52936.42722        23.250           1.875
 91  5 20 17 59 15.0000000  0  4G18G16G11G19
  20808057.977      519889.908 8    387533.18423        29.000           2.625
  24348813.219     -154170.559 5        -0.46631        10.250           0.219
  24363686.602     -717738.036 5   -507388.34621        11.750           0.438
  20779336.906       74738.842 7     56011.51422        23.750           1.906
 91  5 20 17 59 30.0000000  0  4G18G16G11G19
  20812781.133      544711.143 8    406874.39523        29.000           2.719
  24343001.398     -184703.869 5    -23792.68121         9.500           0.188
  24357633.586     -749551.451 6   -532177.92721        12.000           0.500
  20780098.484       78735.947 7     59126.15422        23.500           1.875
 91  5 20 17 59 45.0000000  0  4G18G16G11G19
  20817524.898      569639.819 8    426299.31923        29.250           2.688
  24337208.695     -215131.758 5    -47502.72821         9.000           0.250
  24351593.453     -781286.930 6   -556906.78321        12.000           0.531
  20780868.891       82789.165 7     62284.51422        23.750           1.813
 91  5 20 18  0  0.0000000  0  4G18G16G11G19
  20822288.688      594670.629 8    445803.83623        29.000           2.719
  24331438.148     -245459.168 5    -71134.45821         9.000           0.219
  24345568.102     -812949.531 5   -581578.83921        11.750           0.469
  20781647.523       86893.012 7     65482.32522        24.750           1.844
 91  5 20 18  0 15.0000000  0  4G18G16G11G19
  20827071.031      619804.392 8    465388.57423        29.000           2.719
  24325687.688     -275684.955 5    -94687.00121         9.750           0.313
  24339556.281     -844537.857 5   -606193.01721        11.500           0.531
  20782440.984       91048.321 7     68720.23422        23.750           1.844
 91  5 20 18  0 30.0000000  0  4G18G16G11G19
  20831874.352      645042.871 8    485054.90823        28.750           2.688
  24319956.172     -305806.951 5   -118158.68721        10.000           0.406
  24333558.188     -876049.625 5   -630747.55221        11.250           0.375
  20783241.961       95256.888 7     71999.64822        23.500           1.938
 91  5 20 18  0 45.0000000  0  4G18G16G11G19
  20836696.445      670384.050 8    504801.26923        29.250           2.750
  24314242.922     -335827.093 5   -141551.00621        10.000           0.406
  24327576.523     -907486.619 5   -655243.82021        11.500           0.531
  20784050.938       99516.582 7     75318.89522        23.500           2.063
 91  5 20 18  1  0.0000000  0  4G18G16G11G19
  20841537.398      695826.404 8    524626.46723        29.000           2.719
  24308551.688     -365746.401 5   -164864.71721        10.000           0.313
  24321608.852     -938849.836 5   -679682.61021        11.750           0.625
  20784873.805      103825.804 7     78676.74322        23.000           1.875
 91  5 20 18  1 15.0000000  0  4G18G16G11G19
  20846398.609      721370.846 8    544531.21523        28.750           2.688
  24302877.656     -395563.698 5   -188098.95021         9.750           0.313
  24315655.367     -970137.881 6   -704062.81021        12.250           0.563
  20785701.648      108185.627 7     82074.01522        23.500           2.031
 91  5 20 18  1 30.0000000  0  4G18G16G11G19
  20851280.898      747021.645 8    564518.83723        29.000           2.688
  24297221.266     -425274.671 5   -211250.33821         9.000           0.344
  24309717.617    -1001346.237 6   -728380.91721        12.250           0.594
  20786542.023      112600.022 7     85513.81122        22.750           2.000
 91  5 20 18  1 45.0000000  0  4G18G16G11G19
  20856181.031      772776.147 8    584587.26523        28.750           2.656
  24291588.063     -454881.146 5   -234320.31021         8.250           0.281
  24303790.594    -1032476.808 6   -752638.42121        12.500           0.688
  20787389.992      117066.620 7     88994.28022        23.250           1.969
 91  5 20 18  2  0.0000000  0  4G18G16G11G19
  20861101.758      798633.945 8    604736.18823        28.750           2.781
  24285973.367     -484383.745 5   -257309.31021         7.500           0.250
  24297882.938    -1063529.684 6   -776835.38321        12.750           0.531
  20788248.758      121585.007 7     92515.11222        24.000           2.094
 91  5 20 18  2 15.0000000  0  4G18G16G11G19
  20866042.844      824596.067 8    624966.39823        29.000           2.750
  24280380.383     -513780.815 4   -280216.09221         7.250           0.281
  24291990.117    -1094503.426 6   -800970.67321        13.000           0.625
  20789121.359      126156.073 7     96076.98822        23.250           2.031
 91  5 20 18  2 30.0000000  0  4G18G16G11G19
  20871002.250      850662.658 8    645278.01123        28.750           2.750
  24274806.727     -543072.060 4   -303040.41421         7.250           0.281
  24286109.617    -1125397.682 6   -825044.01521        13.000           0.688
  20789998.789      130779.815 7     99679.90922        23.750           2.063
 91  5 20 18  2 45.0000000  0  4G18G16G11G19
  20875980.961      876830.085 8    665668.20223        28.500           2.688
  24269251.406     -572260.900 4   -325784.90821         7.250           0.344
  24280245.508    -1156215.524 6   -849057.82521        13.750           0.625
  20790890.906      135452.724 7    103321.14522        23.250           2.031
 91  5 20 18  3  0.0000000  0  4G18G16G11G19
  20880980.938      903101.733 8    686139.59523        28.500           2.719
  24263716.508     -601343.410 5   -348446.56221         7.750           0.313
  24274396.109    -1186953.222 6   -873009.18321        13.500           0.563
  20791788.070      140178.222 7    107003.35422        23.250           2.094
 91  5 20 18  3 15.0000000  0  4G18G16G11G19
  20886000.773      929480.303 8    706694.30823        28.500           2.813
  24258202.789     -630316.846 5   -371023.21721         8.500           0.344
  24268562.766    -1217607.311 6   -896895.39221        13.750           0.625
  20792700.164      144959.128 7    110728.74222        22.750           1.906
 91  5 20 18  3 30.0000000  0  4G18G16G11G19
  20891039.938      955961.752 8    727329.18723        28.500           2.719
  24252709.594     -659184.753 5   -393517.65721         8.750           0.313
  24262745.672    -1248181.430 6   -920719.30021        13.750           0.500
  20793618.188      149791.266 7    114494.04422        22.750           1.844
 91  5 20 18  3 45.0000000  0  4G18G16G11G19
  20896099.102      982546.040 8    748044.20423        28.750           2.719
  24247234.625     -687946.801 5   -415929.63221         8.500           0.344
  24256941.023    -1278675.254 6   -944480.61121        13.750           0.500
  20794549.141      154674.689 7    118299.31322        22.500           1.969
 91  5 20 18  4  0.0000000  0  4G18G16G11G19
  20901177.414     1009231.986 8    768838.42923        28.750           2.750
  24241782.188     -716604.480 5   -438260.25721         8.750           0.250
  24251153.898    -1309089.800 6   -968180.15721        14.000           0.469
  20795487.914      159607.898 7    122143.37522        22.250           1.969
 91  5 20 18  4 15.0000000  0  4G18G16G11G19
  20906274.336     1036021.102 8    789713.04623        28.500           2.719
  24236349.930     -745155.586 5   -460507.85121         9.500           0.406
  24245382.227    -1339423.105 6   -991816.40321        14.000           0.531
  20796434.961      164592.495 7    126027.47922        22.500           2.000
 91  5 20 18  4 30.0000000  0  4G18G16G11G19
  20911393.273     1062915.806 8    810669.93823        28.750           2.719
  24230938.625     -773597.160 5   -482670.08421         9.500           0.313
  24239626.586    -1369671.908 6  -1015386.81121        13.750           0.500
  20797392.195      169631.293 7    129953.82422        22.500           1.938
 91  5 20 18  4 45.0000000  0  4G18G16G11G19
  20916530.508     1089914.213 8    831707.63623        28.500           2.750
  24225546.555     -801930.796 5   -504748.21521         9.750           0.313
  24233888.047    -1399837.658 6  -1038892.48721        14.250           0.438
  20798363.242      174722.354 7    133920.88922        22.250           1.906
 91  5 20 18  5  0.0000000  0  4G18G16G11G19
  20921686.641     1117013.441 8    852823.89323        28.500           2.688
  24220175.469     -830159.413 5   -526744.50721        10.000           0.313
  24228159.680    -1429923.179 6  -1062335.65821        13.750           0.438
  20799339.930      179862.304 7    137926.04822        22.500           2.063
 91  5 20 18  5 15.0000000  0  4G18G16G11G19
  20926863.781     1144212.825 8    874018.19823        28.750           2.719
  24214822.719     -858283.257 5   -548659.14221         9.750           0.188
  24222452.430    -1459928.653 6  -1085716.46021        13.750           0.406
  20800326.633      185050.699 7    141968.95522        22.250           1.906
 91  5 20 18  5 30.0000000  0  4G18G16G11G19
  20932058.344     1171512.244 8    895290.45023        29.000           2.656
  24209490.266     -886302.063 5   -570491.95921        10.000           0.313
  24216751.500    -1489853.744 6  -1109034.63221        12.250           0.406
  20801324.805      190287.467 7    146049.55722        22.500           1.875
 91  5 20 18  5 45.0000000  0  4G18G16G11G19
  20937271.375     1198912.285 8    916641.10823        28.750           2.688
  24204177.859     -914214.858 5   -592242.16521        10.000           0.156
  24211078.781    -1519697.337 6  -1132289.29421        13.000           0.438
  20802330.977      195573.153 7    150168.27822        22.000           1.844
 91  5 20 18  6  0.0000000  0  4G18G16G11G19
  20942506.789     1226416.307 8    938072.79023        29.000           2.656
  24198886.734     -942017.991 5   -613906.91121        10.250           0.250
  24205414.766    -1549455.519 6  -1155477.38521        12.750           0.344
  20803345.992      200911.321 7    154327.88922        22.000           1.969
 91  5 20 18  6 15.0000000  0  4G18G16G11G19
  20947759.781     1254023.597 8    959584.94523        29.250           2.656
  24193619.055     -969711.961 5   -635486.61221        10.750           0.375
  24199769.602    -1579128.719 6  -1178599.27021        12.500           0.438
  20804371.898      206301.163 7    158527.77322        21.750           1.906
 91  5 20 18  6 30.0000000  0  4G18G16G11G19
  20953033.008     1281735.007 8    981178.23123        29.000           2.688
  24188370.141     -997295.950 5   -656980.61221        10.750           0.156
  24194134.984    -1608715.556 6  -1201653.84821        12.000           0.313
  20805406.727      211743.771 7    162768.76922        22.750           1.813
 91  5 20 18  6 45.0000000  0  4G18G16G11G19
  20958326.102     1309549.142 8   1002851.56223        29.500           2.625
  24183142.648    -1024771.051 5   -678389.74521        10.500           0.250
  24188522.961    -1638217.109 6  -1224641.98721        12.000           0.438
  20806453.602      217237.353 7    167049.48122        22.250           1.781
 91  5 20 18  7  0.0000000  0  4G18G16G11G19
  20963639.625     1337469.220 8   1024607.44023        29.250           2.531
  24177935.984    -1052133.290 5   -699710.95021        10.500           0.281
  24182924.156    -1667629.633 6  -1247560.73021        12.000           0.438
  20807506.984      222785.304 7    171372.55322        22.000           1.875
 91  5 20 18  7 15.0000000  0  4G18G16G11G19
  20968970.672     1365491.177 8   1046442.70723        28.750           2.594
  24172749.336    -1079386.474 5   -720947.17421        10.500           0.188
  24177345.109    -1696956.896 6  -1270413.06021        12.500           0.375
  20808573.227      228383.536 7    175734.82022        22.000           1.906
 91  5 20 18  7 30.0000000  0  4G18G16G11G19
  20974323.141     1393616.646 8   1068358.62723        28.750           2.500
  24167584.000    -1106528.826 5   -742097.04621        10.500           0.156
  24171781.086    -1726196.500 6  -1293197.08721        12.500           0.313
  20809647.328      234034.008 7    180137.78322        22.500           1.906
 91  5 20 18  7 45.0000000  0  4G18G16G11G19
  20979694.984     1421843.361 8   1090353.44323        28.750           2.500
  24162437.195    -1133562.340 5   -763162.10821        10.250           0.156
  24166232.273    -1755350.446 6  -1315914.35121        12.500           0.344
  20810733.500      239734.279 7    184579.55322        22.000           1.750
 91  5 20 18  8  0.0000000  0  4G18G16G11G19
  20985085.219     1450172.761 8   1112428.27623        28.250           2.563
  24157315.531    -1160485.440 5   -784141.14821        10.500           0.250
  24160703.836    -1784417.047 6  -1338563.56721        13.000           0.344
  20811830.383      245485.649 7    189061.14422        22.250           1.844
 91  5 20 18  8 15.0000000  0  4G18G16G11G19
  20990496.602     1478607.287 8   1134585.01823        28.000           2.563
  24152213.469    -1187295.231 5   -805031.87921        11.000           0.219
  24155187.734    -1813393.417 6  -1361142.48121        13.500           0.375
  20812933.820      251290.550 7    193584.44522        22.250           1.938
 91  5 20 18  8 30.0000000  0  4G18G16G11G19
  20995927.164     1507145.441 7   1156822.51222        27.750           2.469
  24147134.688    -1213992.858 5   -825835.20921        11.000           0.188
  24149691.375    -1842280.411 6  -1383651.76621        14.000           0.406
  20814046.313      257147.529 7    198148.32322        22.500           1.813
 91  5 20 18  8 45.0000000  0  4G18G16G11G19
  21001378.000     1535788.094 8   1179141.43922        28.000           2.438
  24142074.984    -1240577.012 5   -846550.10921        10.500           0.281
  24144210.359    -1871076.638 6  -1406090.28521        14.250           0.406
  20815172.727      263057.602 7    202753.57622        22.250           1.906
 91  5 20 18  9  0.0000000  0  4G18G16G11G19
  21006847.055     1564530.571 7   1201538.14823        27.500           2.625
  24137035.906    -1267052.184 5   -867180.10221        10.000           0.313
  24138748.336    -1899786.412 6  -1428461.44821        14.750           0.563
  20816306.234      269016.210 7    207396.65222        22.750           1.813
 91  5 20 18  9 15.0000000  0  4G18G16G11G19
  21012336.313     1593374.473 7   1224013.88723        27.500           2.563
  24132018.773    -1293416.668 5   -887723.83421        10.000           0.250
  24133300.406    -1928407.965 6  -1450763.88821        15.000           0.469
  20817449.789      275024.683 7    212078.57522        22.500           1.938
 91  5 20 18  9 30.0000000  0  4G18G16G11G19
  21017844.234     1622319.032 7   1246568.06223        27.750           2.531
  24127021.516    -1319671.010 5   -908181.76021         9.750           0.469
  24127871.922    -1956941.526 6  -1472997.74521        15.000           0.469
  20818600.781      281082.299 7    216798.79922        22.750           1.906
 91  5 20 18  9 45.0000000  0  4G18G16G11G19
  21023371.992     1651364.996 7   1269201.25023        27.500           2.563
  24122048.703    -1345813.742 5   -928552.70621         9.500           0.406
  24122461.172    -1985385.759 6  -1495162.00421        15.250           0.563
  20819764.648      287190.066 7    221558.10122        22.750           1.844
 91  5 20 18 10  0.0000000  0  4G18G16G11G19
  21028918.102     1680508.245 7   1291910.25223        27.500           2.563
  24117094.180    -1371848.931 5   -948839.85121         9.250           0.406
  24117061.680    -2013744.376 6  -1517259.54321        15.000           0.594
  20820934.680      293343.868 7    226353.27322        23.250           1.875
 91  5 20 18 10 15.0000000  0  4G18G16G11G19
  21034482.445     1709752.905 7   1314698.27123        27.000           2.500
  24112161.164    -1397772.093 5   -969039.69121         9.250           0.406
  24111683.914    -2042012.738 6  -1539286.75821        15.500           0.656
  20822117.141      299547.785 7    231187.49722        23.000           1.938
 91  5 20 18 10 30.0000000  0  4G18G16G11G19
  21040066.805     1739099.608 7   1337565.79823        27.000           2.563
  24107250.492    -1423582.378 5   -989151.58121         8.750           0.406
  24106320.805    -2070189.916 6  -1561242.92421        15.500           0.719
  20823307.008      305802.403 7    236061.22722        23.000           2.000
 91  5 20 18 10 45.0000000  0  4G18G16G11G19
  21045671.375     1768548.197 7   1360512.72722        27.250           2.469
  24102360.516    -1449279.204 5  -1009175.06021         8.250           0.375
  24100976.617    -2098275.258 6  -1583127.51821        15.250           0.656
  20824506.305      312108.009 7    240974.69022        23.250           1.875
 91  5 20 18 11  0.0000000  0  4G18G16G11G19
  21051294.547     1798097.690 7   1383538.28123        27.250           2.531
  24097490.094    -1474863.891 5  -1029111.17421         7.750           0.344
  24095648.422    -2126269.589 6  -1604941.19021        14.750           0.750
  20825714.164      318463.378 7    245926.92822        24.250           1.969
 91  5 20 18 11 15.0000000  0  4G18G16G11G19
  21056936.531     1827747.495 7   1406642.00023        27.000           2.531
  24092641.945    -1500336.741 4  -1048960.11621         7.250           0.375
  24090339.781    -2154173.376 6  -1626684.31321        15.250           0.781
  20826935.391      324867.570 7    250917.20522        23.500           2.031
 91  5 20 18 11 30.0000000  0  4G18G16G11G19
  21062596.094     1857494.707 7   1429821.61823        27.000           2.563
  24087817.328    -1525700.055 4  -1068723.71921         7.250           0.438
  24085045.898    -2181988.543 6  -1648358.39321        15.000           0.813
  20828163.438      331318.342 7    255943.78122        23.500           2.000
 91  5 20 18 11 45.0000000  0  4G18G16G11G19
  21068277.461     1887344.954 7   1453081.52922        27.250           2.469
  24083010.617    -1550948.042 5  -1088397.45121         7.750           0.375
  24079769.930    -2209709.251 6  -1669958.86621        14.500           0.781
  20829400.367      337820.956 7    261010.75222        23.750           2.031
 91  5 20 18 12  0.0000000  0  4G18G16G11G19
  21073975.531     1917292.306 7   1476417.10123        27.000           2.688
  24078228.570    -1576085.995 5  -1107985.44521         8.750           0.250
  24074509.984    -2237340.791 6  -1691489.84321        14.000           0.781
  20830646.359      344369.619 7    266113.61122        23.750           2.000
 91  5 20 18 12 15.0000000  0  4G18G16G11G19
  21079692.773     1947340.549 7   1499831.29523        27.000           2.594
  24073468.805    -1601110.074 5  -1127484.71021         9.000           0.313
  24069271.570    -2264879.085 6  -1712948.15621        14.500           0.844
  20831901.734      350968.163 7    271255.33122        24.000           2.094
 91  5 20 18 12 30.0000000  0  4G18G16G11G19
  21085431.016     1977489.861 7   1523324.24723        26.750           2.656
  24068726.258    -1626019.763 5  -1146894.85121         9.250           0.313
  24064049.930    -2292323.570 6  -1734333.38121        14.500           0.844
  20833164.547      357616.734 7    276436.03522        24.750           2.031
 91  5 20 18 12 45.0000000  0  4G18G16G11G19
  21091186.820     2007740.291 7   1546895.98123        26.750           2.688
  24064008.805    -1650814.613 5  -1166215.49721        10.000           0.469
  24058845.531    -2319673.997 6  -1755645.31421        14.500           0.781
  20834441.438      364315.194 7    281655.61622        24.000           2.000
 91  5 20 18 13  0.0000000  0  4G18G16G11G19
  21096963.258     2038091.625 7   1570546.33623        27.000           2.688
  24059311.453    -1675494.772 5  -1185446.78821        10.500           0.344
  24053656.664    -2346929.800 6  -1776883.52621        14.000           0.750
  20835726.422      371063.738 7    286914.22022        23.500           2.156
 91  5 20 18 13 15.0000000  0  4G18G16G11G19
  21102757.469     2068543.971 7   1594275.41223        27.000           2.625
  24054637.875    -1700059.890 5  -1204588.41021        11.250           0.281
  24048488.820    -2374090.477 6  -1798047.60221        13.750           0.688
  20837020.250      377862.343 7    292211.83622        23.750           2.000
 91  5 20 18 13 30.0000000  0  4G18G16G11G19
  21108570.992     2099093.268 7   1618080.03323        27.500           2.688
  24049984.008    -1724513.979 5  -1223643.55921        11.500           0.250
  24043338.977    -2401159.883 6  -1819140.56721        14.000           0.688
  20838323.648      384706.900 7    297545.25722        23.000           2.031
 91  5 20 18 13 45.0000000  0  4G18G16G11G19
  21114403.781     2129743.500 7   1641963.30223        27.250           2.656
  24045353.086    -1748852.211 5  -1242608.37821        11.750           0.375
  24038205.094    -2428133.439 6  -1840158.84421        14.000           0.531
  20839633.641      391601.755 7    302917.87222        23.250           2.063
 91  5 20 18 14  0.0000000  0  4G18G16G11G19
  21120255.672     2160495.965 7   1665926.23923        27.750           2.688
  24040743.750    -1773073.065 6  -1261481.75421        12.250           0.281
  24033089.148    -2455009.427 6  -1861101.08921        13.750           0.656
  20840957.453      398548.210 7    308330.69722        22.500           2.094
 91  5 20 18 14 15.0000000  0  4G18G16G11G19
  21126126.711     2191349.208 7   1689967.70323        27.750           2.500
  24036155.516    -1797177.594 6  -1280264.48921        12.250           0.344
  24027994.328    -2481788.481 6  -1881967.80621        14.000           0.625
  20842287.141      405544.912 7    313782.67122        23.000           2.063
 91  5 20 18 14 30.0000000  0  4G18G16G11G19
  21132016.758     2222301.609 8   1714086.42023        28.000           2.656
  24031590.641    -1821167.693 6  -1298958.06621        12.250           0.469
  24022915.906    -2508472.246 6  -1902760.26421        13.500           0.625
  20843625.117      412589.990 7    319272.34022        23.500           1.969
 91  5 20 18 14 45.0000000  0  4G18G16G11G19
  21137925.906     2253354.787 8   1738283.68323        28.000           2.594
  24027049.797    -1845041.063 6  -1317560.68521        12.750           0.406
  24017859.758    -2535058.429 6  -1923476.69421        13.750           0.594
  20844976.945      419685.325 7    324801.17622        22.500           2.031
 91  5 20 18 15  0.0000000  0  4G18G16G11G19
  21143855.172     2284510.438 8   1762560.78523        28.250           2.594
  24022528.383    -1868795.615 6  -1336070.70321        12.750           0.500
  24012816.883    -2561544.801 6  -1944115.34821        13.500           0.500
  20846336.227      426832.750 7    330370.59522        23.000           2.031
 91  5 20 18 15 15.0000000  0  4G18G16G11G19
  21149803.031     2315765.528 8   1786915.37523        28.250           2.500
  24018030.406    -1892434.066 6  -1354490.26321        12.750           0.563
  24007798.406    -2587934.084 6  -1964678.34121        14.750           0.500
  20847706.586      434029.024 7    335978.08322        22.000           1.969
 91  5 20 18 15 30.0000000  0  4G18G16G11G19
  21155769.281     2347120.992 7   1811348.17323        27.750           2.688
  24013555.039    -1915955.411 6  -1372818.57121        12.750           0.531
  24002792.172    -2614224.989 6  -1985164.68421        14.250           0.500
  20849085.164      441275.152 7    341624.41522        22.250           1.969
 91  5 20 18 15 45.0000000  0  4G18G16G11G19
  21161755.602     2378577.547 7   1835859.74323        27.750           2.656
  24009101.984    -1939358.422 6  -1391054.66121        12.750           0.531
  23997807.750    -2640416.271 6  -2005573.39121        14.500           0.531
  20850474.531      448571.994 7    347310.26422        22.000           1.969
 91  5 20 18 16  0.0000000  0  5G18G16G 6G11G19
  21167760.297     2410132.077 8   1860447.65723        28.250           2.594
  24004668.711    -1962646.082 6  -1409200.87021        12.500           0.438
  24624805.383          -0.96313                         6.000
  23992842.641    -2666510.711 6  -2025906.64021        14.250           0.438
  20851870.891      455916.330 7    353033.11922        22.000           1.938
 91  5 20 18 16 15.0000000  0  5G18G16G 6G11G19
  21173783.570     2441786.439 8   1885113.36423        28.000           2.688
  24000260.992    -1985816.255 6  -1427255.54721        12.500           0.500
  24618656.539      -32317.074 4                         6.250
  23987896.656    -2692505.982 6  -2046162.60821        14.750           0.563
  20853279.414      463310.243 7    358794.61022        21.750           2.000
 91  5 20 18 16 30.0000000  0  5G18G16G 6G11G19
  21179827.766     2473543.392 8   1909859.01323        28.000           2.563
  23995874.016    -2008865.691 6  -1445216.14121        12.250           0.438
  24612513.320      -64607.668 4                         6.250
  23982969.148    -2718398.587 6  -2066338.60321        15.000           0.406
  20854697.352      470756.632 7    364596.99222        21.250           1.969
 91  5 20 18 16 45.0000000  0  5G18G16G 6G11G19
  21185888.922     2505400.182 7   1934682.45223        27.500           2.750
  23991509.164    -2031796.979 6  -1463084.65921        12.250           0.531
  24606372.219      -96875.677 4                         6.500
  23978061.000    -2744191.079 6  -2086436.56821        15.000           0.375
  20856122.570      478252.602 7    370438.00322        21.750           2.031
 91  5 20 18 17  0.0000000  0  5G18G16G 6G11G19
  21191970.578     2537359.282 7   1959585.61623        27.750           2.688
  23987169.695    -2054607.657 5  -1480859.19721        11.750           0.438
  24600238.461     -129118.853 4        -0.07931         6.750           0.406
  23973170.781    -2769880.700 6  -2106454.39021        15.000           0.563
  20857558.672      485800.599 7    376319.56122        21.750           2.031
 91  5 20 18 17 15.0000000  0  5G18G16G 6G11G19
  21198072.820     2569418.868 8   1984567.08123        28.000           2.688
  23982850.891    -2077299.127 5  -1498540.85221        11.750           0.375
  24594107.289     -161338.512 4    -25106.19321         6.750           0.313
  23968304.758    -2795468.391 6  -2126392.77821        15.500           0.438
  20859005.031      493399.349 7    382240.66122        21.250           1.906
 91  5 20 18 17 30.0000000  0  5G18G16G 6G11G19
  21204191.133     2601576.912 7   2009625.26523        27.500           2.688
  23978555.602    -2099873.165 5  -1516130.99021        11.250           0.375
  24587977.938     -193536.787 4    -50195.65221         7.250           0.469
  23963450.383    -2820956.112 6  -2146253.26421        15.250           0.469
  20860459.711      501046.599 7    388199.55522        21.750           1.906
 91  5 20 18 17 45.0000000  0  5G18G16G 6G11G19
  21210329.906     2633833.325 7   2034760.09923        27.500           2.688
  23974282.906    -2122328.896 5  -1533628.95421        10.750           0.344
  24581854.594     -225713.498 5    -75268.30021         7.500           0.406
  23958621.867    -2846343.250 6  -2166035.37721        15.750           0.406
  20861924.281      508742.407 7    394196.29022        21.500           1.844
 91  5 20 18 18  0.0000000  0  5G18G16G 6G11G19
  21216486.344     2666189.042 7   2059972.31823        27.500           2.594
  23970031.977    -2144665.402 5  -1551034.01121        10.250           0.313
  24575737.023     -257867.899 5   -100323.56321         7.750           0.406
  23953809.695    -2871628.660 6  -2185738.21721        15.500           0.500
  20863397.156      516487.397 7    400231.34322        21.750           2.000
 91  5 20 18 18 15.0000000  0  5G18G16G 6G11G19
  21222662.828     2698646.782 7   2085264.03423        27.250           2.656
  23965805.188    -2166880.062 5  -1568344.13421        10.000           0.344
  24569624.234     -289997.186 5   -125359.28921         8.000           0.344
  23949017.008    -2896809.326 6  -2205359.44621        15.500           0.563
  20864881.664      524284.405 7    406306.93222        21.750           1.969
 91  5 20 18 18 30.0000000  0  5G18G16G 6G11G19
  21228859.039     2731203.999 7   2110633.26023        27.000           2.594
  23961602.016    -2188974.894 5  -1585560.86721         9.500           0.313
  24563513.000     -322103.603 5   -150377.16721         8.500           0.344
  23944244.969    -2921886.955 6  -2224900.37721        15.750           0.594
  20866376.398      532131.280 7    412421.37822        22.000           2.000
 91  5 20 18 18 45.0000000  0  5G18G16G 6G11G19
  21235074.531     2763868.782 7   2136086.30523        27.000           2.656
  23957420.211    -2210941.639 5  -1602677.79521         8.750           0.156
  24557409.531     -354179.336 5   -175371.16221         8.500           0.281
  23939497.711    -2946853.290 6  -2244354.58721        15.750           0.563
  20867879.188      540035.944 7    418580.85422        21.750           2.000
 91  5 20 18 19  0.0000000  0  5G18G16G 6G11G19
  21241310.156     2796634.773 7   2161618.21323        27.250           2.594
  23953262.047    -2232786.393 5  -1619699.64521         8.250           0.219
  24551310.328     -386230.650 5   -200346.11421         8.750           0.313
  23934763.305    -2971714.180 6  -2263726.63721        15.500           0.469
  20869392.461      547992.210 7    424780.53922        22.500           1.969
 91  5 20 18 19 15.0000000  0  5G18G16G 6G11G19
  21247564.055     2829501.742 7   2187228.80823        27.250           2.594
  23949127.977    -2254508.745 5  -1636626.16621         8.000           0.156
  24545217.852     -418257.457 5   -225301.98621         9.000           0.219
  23930051.328    -2996469.332 6  -2283016.29021        15.750           0.531
  20870916.523      555999.949 7    431020.33522        22.000           2.000
 91  5 20 18 19 30.0000000  0  5G18G16G 6G11G19
  21253837.500     2862467.800 7   2212916.61223        27.000           2.625
  23945016.656    -2276110.613 5  -1653458.79721         7.750           0.281
  24539127.758     -450261.671 5   -250240.25321         9.000           0.219
  23925362.242    -3021120.104 6  -2302224.61821        15.750           0.656
  20872450.266      564057.166 7    437298.68222        22.000           2.031
 91  5 20 18 19 45.0000000  0  5G18G16G 6G11G19
  21260130.508     2895536.187 7   2238684.15123        27.250           2.656
  23940931.250    -2297588.208 5  -1670194.60121         7.750           0.188
  24533039.547     -482240.045 5   -275158.35721         8.750           0.219
  23920693.984    -3045662.975 6  -2321348.85521        16.000           0.594
  20873994.023      572167.299 7    443618.26122        22.000           2.000
 91  5 20 18 20  0.0000000  0  5G18G16G 6G11G19
  21266442.422     2928706.377 7   2264531.02023        27.500           2.688
  23936869.469    -2318942.124 5  -1686833.99121         8.250           0.094
  24526960.789     -514193.012 5   -300056.69621         8.500           0.219
  23916043.883    -3070098.011 6  -2340389.06521        16.000           0.656
  20875545.891      580329.990 7    449978.79822        22.500           2.000
 91  5 20 18 20 15.0000000  0  5G18G16G 6G11G19
  21272772.914     2961973.954 7   2290453.77423        27.500           2.625
  23932826.219    -2340176.389 5  -1703380.17421         8.000           0.094
  24520884.344     -546125.098 5   -324938.73621         8.500           0.156
  23911411.992    -3094429.263 6  -2359348.40921        16.000           0.719
  20877109.734      588540.787 7    456376.82122        22.250           1.938
 91  5 20 18 20 30.0000000  0  5G18G16G 6G11G19
  21279123.305     2995342.607 7   2316455.28923        27.250           2.625
  23928809.906    -2361286.906 5  -1719829.92121         8.250           0.125
  24514811.961     -578032.334 5   -349801.43621         8.500           0.250
  23906798.313    -3118652.413 6  -2378223.51721        15.500           0.719
  20878682.734      596803.390 7    462815.21022        22.500           2.031
 91  5 20 18 20 45.0000000  0  5G18G16G 6G11G19
  21285492.320     3028810.094 7   2342533.81323        27.250           2.594
  23924815.875    -2382275.634 5  -1736184.79221         9.000           0.188
  24508744.992     -609916.937 5   -374646.49821         8.750           0.250
  23902213.570    -3142769.397 6  -2397015.89621        15.750           0.656
  20880264.250      605115.638 7    469292.28522        22.500           1.969
 91  5 20 18 21  0.0000000  0  5G18G16G 6G11G19
  21291879.773     3062378.955 7   2368691.33323        27.250           2.688
  23920845.203    -2403139.636 5  -1752442.44021         9.000           0.250
  24502678.906     -641776.236 5   -399471.84721         8.000           0.188
  23897643.734    -3166777.145 6  -2415723.15421        15.250           0.688
  20881855.289      613480.292 7    475810.19022        23.000           2.000
 91  5 20 18 21 15.0000000  0  5G18G16G 6G11G19
  21298287.203     3096049.674 7   2394928.22323        27.250           2.563
  23916899.563    -2423878.408 5  -1768602.52221         9.750           0.219
  24496623.961     -673609.702 5   -424277.05621         7.750           0.313
  23893096.539    -3190674.711 6  -2434344.55321        15.500           0.656
  20883458.570      621897.890 7    482369.35622        22.750           2.000
 91  5 20 18 21 30.0000000  0  5G18G16G 6G11G19
  21304713.688     3129821.846 7   2421244.16623        27.250           2.531
  23912978.328    -2444491.885 5  -1784664.96321        10.250           0.219
  24490568.922     -705417.663 5   -449062.38921         7.500           0.281
  23888568.914    -3214462.112 6  -2452880.11121        15.250           0.750
  20885068.438      630367.862 7    488969.32922        23.000           2.063
 91  5 20 18 21 45.0000000  0  5G18G16G 6G11G19
  21311159.211     3163691.557 7   2447636.11223        27.250           2.500
  23909077.539    -2464983.577 5  -1800632.51421        10.750           0.281
  24484520.977     -737203.961 4   -473830.84621         7.250           0.281
  23884063.164    -3238142.710 6  -2471332.45021        15.000           0.656
  20886690.992      638886.621 7    495607.32222        22.750           1.875
 91  5 20 18 22  0.0000000  0  5G18G16G 6G11G19
  21317623.711     3197662.579 7   2474107.00223        27.250           2.625
  23905201.516    -2485349.648 5  -1816502.16821        11.500           0.188
  24478476.219     -768964.931 4   -498579.55521         7.000           0.281
  23879577.219    -3261712.627 6  -2489698.54321        14.750           0.719
  20888320.992      647457.580 7    502285.99222        23.000           2.063
 91  5 20 18 22 15.0000000  0  5G18G16G 6G11G19
  21324106.297     3231731.386 7   2500654.09023        27.250           2.563
  23901350.281    -2505593.132 6  -1832276.31121        12.000           0.281
  24472434.469     -800703.595 4   -523310.89021         6.500           0.250
  23875113.938    -3285174.541 6  -2507980.49021        15.000           0.719
  20889962.289      656077.738 7    509002.99622        22.750           1.938
 91  5 20 18 22 30.0000000  0  5G18G16G 6G11G19
  21330608.320     3265899.168 7   2527278.29623        27.500           2.563
  23897520.352    -2525712.539 6  -1847953.75421        12.250           0.438
  24466402.836     -832418.973 4   -548024.10021         6.500           0.281
  23870666.914    -3308526.955 6  -2526177.10221        14.500           0.781
  20891611.063      664748.310 7    515759.28722        23.000           2.031
 91  5 20 18 22 45.0000000  0  5G18G16G 6G11G19
  21337129.859     3300167.616 7   2553980.94323        27.750           2.594
  23893715.109    -2545706.086 6  -1863533.13521        12.000           0.438
  24460371.727     -864109.118 4   -572717.62621         6.500           0.188
  23866246.617    -3331767.647 6  -2544286.65421        14.500           0.625
  20893272.266      673471.379 7    522556.48022        23.000           2.031
 91  5 20 18 23  0.0000000  0  5G18G16G 6G11G19
  21343670.156     3334535.468 7   2580761.05223        27.750           2.531
  23889935.594    -2565574.931 6  -1879015.35121        12.750           0.469
  24454346.531     -895775.554 3   -597392.68721         6.000           0.281
  23861845.117    -3354897.693 6  -2562309.99621        14.250           0.656
  20894942.000      682245.476 7    529393.43522        22.750           1.969
 91  5 20 18 23 15.0000000  0  5G18G16G 6G11G19
  21350228.469     3369005.001 7   2607620.39023        27.250           2.500
  23886179.734    -2585316.429 6  -1894398.33421        13.000           0.469
  24448325.953     -927415.806 3   -622047.32821         6.000           0.250
  23857465.852    -3377914.346 6  -2580244.98221        14.500           0.594
  20896622.211      691072.824 7    536271.88722        23.000           2.031
 91  5 20 18 23 30.0000000  0  5G18G16G 6G11G19
  21356807.250     3403574.970 7   2634557.99423        27.000           2.594
  23882447.891    -2604931.229 6  -1909682.58821        13.000           0.625
  24442307.281     -959031.097 3   -646682.52321         5.750           0.406
  23853108.008    -3400818.433 6  -2598092.24421        15.000           0.656
  20898308.953      699952.281 7    543190.94222        23.750           1.938
 91  5 20 18 23 45.0000000  0  5G18G16G 6G11G19
  21363404.852     3438241.257 7   2661570.64523        27.250           2.656
  23878737.461    -2624423.116 6  -1924871.06821        13.000           0.656
  24436297.688     -990625.119 3   -671301.16321         6.000           0.250
  23848769.695    -3423613.301 6  -2615854.39921        14.750           0.625
  20900011.125      708880.087 7    550147.67422        22.750           1.969
 91  5 20 18 24  0.0000000  0  5G18G16G 6G11G19
  21370020.141     3473007.433 7   2688661.13523        27.000           2.625
  23875052.242    -2643788.486 6  -1939960.96621        12.750           0.625
  24430286.891    -1022194.508 3   -695900.58721         6.000           0.406
  23844452.836    -3446295.122 6  -2633528.47721        15.000           0.688
  20901718.586      717859.826 7    557144.87122        22.500           2.000
 91  5 20 18 24 15.0000000  0  5G18G16G 6G11G19
  21376654.719     3507873.237 7   2715829.25223        26.750           2.625
  23871391.258    -2663027.784 6  -1954952.62021        12.500           0.688
  24424285.547    -1053739.599 4   -720481.07121         6.250           0.344
  23840159.438    -3468863.895 6  -2651114.45721        15.500           0.656
  20903437.656      726891.161 7    564182.27422        22.500           1.969
 91  5 20 18 24 30.0000000  0  5G18G16G 6G11G19
  21383309.219     3542840.652 7   2743076.55223        27.500           2.500
  23867753.914    -2682138.162 6  -1969843.81921        12.250           0.594
  24418287.539    -1085258.116 4   -745040.86721         6.500           0.406
  23835884.563    -3491317.068 6  -2668610.36521        15.000           0.625
  20905167.031      735976.165 7    571261.49622        22.500           1.969
 91  5 20 18 24 45.0000000  0  5G18G16G 6G11G19
  21389982.102     3577909.393 7   2770402.80623        27.500           2.625
  23864143.984    -2701119.353 6  -1984634.35821        12.250           0.688
  24412296.000    -1116750.237 4   -769580.09021         6.250           0.438
  23831635.250    -3513654.417 6  -2686016.02121        15.250           0.719
  20906904.984      745114.636 7    578382.37922        22.750           1.906
 91  5 20 18 25  0.0000000  0  5G18G16G 6G11G19
  21396675.508     3613080.294 7   2797808.66723        27.500           2.594
  23860556.508    -2719970.486 5  -1999323.54221        11.750           0.656
  24406307.414    -1148215.050 4   -794098.03021         6.500           0.344
  23827403.875    -3535874.585 6  -2703330.36221        15.250           0.594
  20908653.047      754307.569 7    585545.70422        23.250           1.938
 91  5 20 18 25 15.0000000  0  5G18G16G 6G11G19
  21403387.383     3648351.217 7   2825292.45823        27.250           2.500
  23856992.313    -2738693.604 5  -2013912.97521        11.250           0.688
  24400323.727    -1179654.665 4   -818596.33721         6.250           0.438
  23823200.563    -3557979.417 6  -2720554.85021        16.000           0.656
  20910415.203      763552.902 7    592749.85622        22.500           2.000
 91  5 20 18 25 30.0000000  0  5G18G16G 6G11G19
  21410118.531     3683720.813 7   2852853.13923        27.500           2.688
  23853454.320    -2757289.934 5  -2028403.60521        11.000           0.688
  24394345.719    -1211070.288 4   -843075.93421         6.750           0.469
  23819017.219    -3579969.793 6  -2737690.14421        16.500           0.594
  20912183.422      772849.394 7    599993.88222        21.750           1.938
 91  5 20 18 25 45.0000000  0  5G18G16G 6G11G19
  21416867.258     3719189.704 7   2880491.20223        27.000           2.594
  23849937.781    -2775758.344 5  -2042794.56421        10.750           0.813
  24388372.430    -1242461.390 4   -867536.44221         6.750           0.531
  23814852.055    -3601844.800 6  -2754735.53721        16.500           0.594
  20913962.406      782197.583 7    607278.18322        22.250           2.000
 91  5 20 18 26  0.0000000  0  5G18G16G 6G11G19
  21423635.844     3754756.142 7   2908205.26523        27.250           2.531
  23846447.570    -2794100.098 5  -2057086.83221        10.750           0.688
  24382402.523    -1273829.359 4   -891978.92921         6.750           0.563
  23810711.828    -3623605.495 6  -2771691.85221        17.000           0.563
  20915752.375      791596.239 7    614601.80922        21.750           1.938
 91  5 20 18 26 15.0000000  0  5G18G16G 6G11G19
  21430422.539     3790421.692 7   2935996.56123        27.000           2.688
  23842985.969    -2812313.572 5  -2071279.14521        11.000           0.594
  24376438.766    -1305172.770 4   -916402.27121         7.000           0.531
  23806593.313    -3645250.049 6  -2788557.67621        16.750           0.656
  20917549.586      801046.755 7    621965.84522        22.000           1.938
 91  5 20 18 26 30.0000000  0  5G18G16G 6G11G19
  21437228.086     3826187.648 7   2963866.10123        26.750           2.656
  23839543.523    -2830397.180 5  -2085370.27021        10.750           0.563
  24370476.930    -1336490.246 4   -940805.39221         6.750           0.594
  23802496.953    -3666776.710 6  -2805331.62021        17.000           0.594
  20919359.414      810550.482 7    629371.34222        21.250           2.000
 91  5 20 18 26 45.0000000  0  5G18G16G 6G11G19
  21444054.063     3862053.807 7   2991813.71223        26.750           2.594
  23836124.953    -2848350.560 5  -2099359.90921        10.500           0.594
  24364525.266    -1367781.629 4   -965188.20721         7.000           0.438
  23798422.398    -3688185.008 6  -2822013.35421        17.000           0.688
  20921175.734      820107.557 7    636818.41222        21.750           2.031
 91  5 20 18 27  0.0010000  0  5G18G16G 6G11G19
  21450898.255     3898023.578 7   3019842.06023        26.250           2.625
  23832731.591    -2866173.792 5  -2113248.14521        10.000           0.688
  24358572.169    -1399048.089 4   -989551.58421         7.250           0.500
  23794371.567    -3709475.108 6  -2838602.98421        17.000           0.594
  20923002.349      829719.630 7    644308.33022        22.500           1.844
 91  5 20 18 27 15.0010000  0  5G18G16G 6G11G19
  21457761.630     3934088.982 7   3047944.92723        26.500           2.625
  23829366.536    -2883867.655 5  -2127035.56021         9.500           0.625
  24352631.427    -1430288.447 5  -1013894.63621         7.500           0.406
  23790340.935    -3730646.962 6  -2855100.47321        17.000           0.719
  20924843.239      839382.340 7    651837.71522        21.500           1.906
 91  5 20 18 27 30.0010000  0  5G18G16G 6G11G19
  21464642.388     3970250.251 7   3076122.49723        26.500           2.656
  23826024.075    -2901435.063 5  -2140724.42921         9.500           0.594
  24346690.216    -1461507.097 4  -1038220.77221         7.250           0.469
  23786336.646    -3751703.715 6  -2871508.26721        17.000           0.688
  20926690.075      849094.153 7    659405.35522        22.000           1.906
 91  5 20 18 27 45.0010000  0  5G18G16G 6G11G19
  21471542.708     4006511.428 7   3104377.91223        26.500           2.625
  23822704.700    -2918871.831 5  -2154311.51321         9.500           0.469
  24340753.005    -1492699.912 5  -1062526.76621         7.500           0.469
  23782351.896    -3772640.935 6  -2887822.91621        16.500           0.656
  20928550.247      858859.050 7    667014.36222        21.500           1.813
 91  5 20 18 28  0.0010000  0  5G18G16G 6G11G19
  21478463.060     4042874.586 7   3132712.79223        26.500           2.625
  23819410.403    -2936175.196 5  -2167794.63721         9.250           0.406
  24334821.802    -1523864.471 5  -1086810.75121         7.500           0.469
  23778392.849    -3793456.008 6  -2904042.39121        16.250           0.719
  20930416.849      868679.559 7    674666.70722        21.750           1.969
 91  5 20 18 28 15.0010000  0  5G18G16G 6G11G19
  21485400.677     4079338.797 7   3161126.42223        26.250           2.500
  23816144.669    -2953346.139 5  -2181174.58221         9.500           0.438
  24328896.310    -1555001.731 4  -1111073.46721         7.250           0.406
  23774453.138    -3814149.462 6  -2920167.10321        16.500           0.594
  20932297.286      878554.856 7    682361.73422        21.250           1.938
 91  5 20 18 28 30.0010000  0  5G18G16G 6G11G19
  21492358.763     4115903.105 7   3189618.04322        26.000           2.375
  23812901.185    -2970385.375 5  -2194451.90321         9.750           0.438
  24322977.466    -1586112.395 5  -1135315.44921         8.250           0.281
  23770537.786    -3834721.708 6  -2936197.36721        16.500           0.750
  20934186.161      888484.045 7    690098.75922        21.500           2.000
 91  5 20 18 28 45.0010000  0  5G18G16G 6G11G19
  21499334.833     4152562.644 7   3218183.87523        26.250           2.531
  23809684.224    -2987297.164 5  -2207629.92421        10.250           0.438
  24317063.122    -1617201.331 5  -1159540.50721         8.250           0.438
  23766645.286    -3855177.190 6  -2952136.64321        16.500           0.625
  20936085.966      898462.235 7    697873.97022        21.000           1.969
 91  5 20 18 29  0.0010000  0  5G18G16G 6G11G19
  21506330.341     4189321.365 7   3246826.99522        26.500           2.438
  23806490.731    -3004077.406 5  -2220705.42721        10.750           0.469
  24311150.638    -1648264.351 5  -1183745.37521         8.250           0.406
  23762773.028    -3875511.407 6  -2967981.43421        15.750           0.656
  20937996.435      908493.615 7    705690.62522        21.000           1.969
 91  5 20 18 29 15.0010000  0  5G18G16G 6G11G19
  21513343.716     4226178.819 7   3275547.04823        26.250           2.500
  23803324.685    -3020726.685 5  -2233678.90021        10.750           0.438
  24305244.708    -1679302.298 5  -1207930.69721         8.250           0.344
  23758929.653    -3895724.824 6  -2983732.08621        16.000           0.625
  20939914.153      918577.687 7    713548.33522        21.250           1.938
 91  5 20 18 29 30.0010000  0  5G18G16G 6G11G19
  21520375.989     4263131.712 7   3304341.46722        26.500           2.406
  23800178.825    -3037247.547 5  -2246552.29021        11.250           0.438
  24299341.677    -1710318.225 5  -1232098.87121         8.250           0.344
  23755104.989    -3915820.178 6  -2999390.73921        15.750           0.594
  20941840.935      928711.190 7    721444.56722        21.250           1.875
 91  5 20 18 29 45.0010000  0  5G18G16G 6G11G19
  21527427.169     4300184.479 7   3333213.70723        26.500           2.500
  23797061.396    -3053635.496 5  -2259322.12921        11.250           0.375
  24293444.591    -1741307.413 5  -1256246.21321         8.250           0.313
  23751304.169    -3935792.573 6  -3014953.58921        15.750           0.594
  20943781.083      938898.863 7    729383.00922        20.750           1.875
 91  5 20 18 30  0.0010000  0  5G18G16G 6G11G19
  21534496.341     4337332.636 7   3362160.28022        26.500           2.438
  23793967.896    -3069894.799 5  -2271991.72621        11.250           0.406
  24287553.747    -1772274.193 5  -1280376.09521         8.000           0.219
  23747525.880    -3955645.835 6  -3030423.60221        16.500           0.656
  20945727.771      949136.599 7    737360.46122        21.000           2.063
 91  5 20 18 30 15.0010000  0  5G18G16G 6G11G19
  21541583.716     4374578.289 7   3391182.82222        26.750           2.438
  23790896.700    -3086022.774 5  -2284558.97121        11.500           0.406
  24281661.724    -1803216.563 5  -1304486.94021         7.750           0.375
  23743771.669    -3975377.544 6  -3045798.90021        16.000           0.625
  20947687.911      959426.145 7    745378.27922        21.000           2.094
 91  5 20 18 30 30.0010000  0  5G18G16G 6G11G19
  21548690.653     4411921.814 7   3420281.62822        27.000           2.469
  23787853.763    -3102019.158 5  -2297023.69921        11.500           0.375
  24275781.380    -1834133.953 5  -1328578.33621         8.000           0.219
  23740039.185    -3994986.888 6  -3061078.85721        15.750           0.625
  20949654.349      969767.954 7    753436.82522        21.000           2.000
 91  5 20 18 30 45.0010000  0  5G18G16G 6G11G19
  21555814.997     4449361.696 7   3449455.51522        27.000           2.375
  23784834.802    -3117885.306 5  -2309386.93321        11.750           0.375
  24269901.208    -1865027.937 5  -1352651.49621         7.750           0.219
  23736331.708    -4014475.039 6  -3076264.36921        16.250           0.594
  20951634.013      980160.713 7    761535.07122        20.750           1.938
 91  5 20 18 31  0.0010000  0  5G18G16G 6G11G19
  21562959.216     4486900.527 7   3478706.50822        27.250           2.375
  23781839.989    -3133617.888 5  -2321646.08021        11.750           0.469
  24264028.661    -1895895.474 5  -1376704.03321         8.000           0.281
  23732646.677    -4033838.656 6  -3091352.85021        16.250           0.625
  20953620.372      990607.440 7    769675.37222        20.500           2.063
 91  5 20 18 31 15.0010000  0  5G18G16G 6G11G19
  21570120.200     4524537.273 7   3508033.79523        26.750           2.500
  23778873.435    -3149217.743 6  -2333801.81521        12.000           0.375
  24258157.661    -1926737.625 5  -1400736.80121         8.250           0.313
  23728982.341    -4053078.480 6  -3106344.87521        16.500           0.594
  20955621.021     1001107.306 7    777857.07622        20.750           1.969
 91  5 20 18 31 30.0010000  0  5G18G16G 6G11G19
  21577301.528     4562271.389 7   3537436.95222        26.750           2.375
  23775928.888    -3164685.029 6  -2345854.25321        12.250           0.375
  24252293.591    -1957554.719 5  -1424750.05721         8.000           0.156
  23725348.763    -4072194.630 6  -3121240.51921        16.750           0.531
  20957624.888     1011659.769 7    786079.76922        21.500           1.906
 91  5 20 18 31 45.0010000  0  5G18G16G 6G11G19
  21584500.700     4600103.211 7   3566916.25622        26.750           2.281
  23773009.692    -3180019.272 6  -2357803.01521        12.250           0.344
  24246434.310    -1988346.677 5  -1448743.68721         7.500           0.219
  23721733.700    -4091186.683 6  -3136039.47821        16.750           0.875
  20959645.677     1022264.882 7    794343.48622        20.750           2.094
 91  5 20 18 32  0.0010000  0  5G18G16G 6G11G19
  21591718.231     4638033.188 7   3596472.03422        27.000           2.344
  23770119.294    -3195219.891 6  -2369647.64921        12.500           0.344
  24240580.466    -2019112.840 5  -1472717.26021         7.500           0.250
  23718143.099    -4110053.556 6  -3150740.88721        16.500           0.719
  20961671.474     1032923.367 7    802648.79622        21.250           2.000
 91  5 20 18 32 15.0010000  0  5G18G16G 6G11G19
  21598954.810     4676062.175 7   3626104.97022        26.750           2.281
  23767252.466    -3210285.877 6  -2381387.39721        13.500           0.250
  24234731.513    -2049852.202 5  -1496669.90421         7.500           0.156
  23714574.458    -4128793.985 6  -3165343.77021        16.250           0.719
  20963713.669     1043636.253 7    810996.49322        21.000           2.063
 91  5 20 18 32 30.0010000  0  5G18G16G 6G11G19
  21606211.599     4714190.591 7   3655815.37322        27.000           2.344
  23764410.544    -3225216.250 6  -2393021.45621        13.250           0.313
  24228885.997    -2080564.094 5  -1520601.16721         7.500           0.250
  23711035.239    -4147406.876 6  -3179847.27521        16.750           0.781
  20965759.622     1054404.303 7    819387.17622        21.000           2.156
 91  5 20 18 32 45.0010000  0  5G18G16G 6G11G19
  21613484.161     4752414.620 7   3685600.28222        27.000           2.313
  23761595.481    -3240014.714 6  -2404552.73021        13.000           0.313
  24223045.294    -2111252.191 5  -1544513.87121         7.500           0.188
  23707517.396    -4165895.727 6  -3194254.12121        17.250           0.688
  20967821.005     1065223.859 7    827817.99622        21.000           2.094
 91  5 20 18 33  0.0010000  0  5G18G16G 6G11G19
  21620776.692     4790734.010 7   3715459.50322        27.250           2.281
  23758803.271    -3254681.315 6  -2415981.24421        12.500           0.344
  24217210.935    -2141916.975 5  -1568408.38521         8.000           0.219
  23704021.349    -4184260.557 6  -3208564.33021        16.750           0.813
  20969888.646     1076094.475 7    836288.60222        21.000           2.063
 91  5 20 18 33 15.0010000  0  5G18G16G 6G11G19
  21628087.239     4829149.785 7   3745393.82122        27.250           2.313
  23756038.630    -3269214.523 6  -2427305.84621        12.500           0.344
  24211381.036    -2172556.991 5  -1592283.63921         8.500           0.313
  23700551.052    -4202499.765 6  -3222776.65121        17.000           0.813
  20971967.255     1087017.557 7    844800.09322        21.000           2.031
 91  5 20 18 33 30.0010000  0  5G18G16G 6G11G19
  21635415.247     4867662.980 7   3775404.05822        26.750           2.250
  23753299.044    -3283613.072 6  -2438525.48221        12.750           0.344
  24205553.106    -2203171.367 5  -1616138.89621         8.500           0.188
  23697106.419    -4220611.923 6  -3236889.98421        17.250           0.906
  20974054.989     1097993.950 7    853353.12122        21.500           2.063
 91  5 20 18 33 45.0010000  0  5G18G16G 6G11G19
  21642762.474     4906271.307 7   3805488.42322        26.750           2.438
  23750584.521    -3297879.312 6  -2449642.03821        12.750           0.406
  24199733.661    -2233762.113 5  -1639975.74921         9.000           0.188
  23693681.388    -4238598.904 6  -3250905.76721        17.000           0.875
  20976154.731     1109021.675 7    861946.14822        21.000           2.125
 91  5 20 18 34  0.0010000  0  5G18G16G 6G11G19
  21650127.185     4944975.206 7   3835647.25722        26.500           2.375
  23747893.974    -3312012.253 6  -2460654.73021        12.750           0.406
  24193916.442    -2264328.638 5  -1663793.74521         9.250           0.219
  23690281.888    -4256459.696 6  -3264823.22221        17.000           0.875
  20978261.192     1120101.503 7    870579.77422        21.750           2.094
 91  5 20 18 34 15.0010000  0  5G18G16G 6G11G19
  21657510.692     4983777.475 7   3865882.73922        26.000           2.344
  23745230.935    -3326008.843 6  -2471561.15321        12.500           0.344
  24188105.021    -2294868.119 5  -1687590.64121         9.250           0.188
  23686909.161    -4274191.133 6  -3278639.87921        17.250           0.844
  20980383.208     1131236.277 7    879256.21922        21.250           2.094
 91  5 20 18 34 30.0010000  0  5G18G16G 6G11G19
  21664913.341     5022675.479 7   3896192.82822        26.000           2.313
  23742592.028    -3339871.560 6  -2482363.27921        12.500           0.438
  24182297.856    -2325382.995 5  -1711368.36621         9.750           0.281
  23683556.114    -4291795.477 6  -3292357.50421        17.000           0.719
  20982510.083     1142423.481 7    887973.51922        21.750           2.156
 91  5 20 18 34 45.0010000  0  5G18G16G 6G11G19
  21672334.591     5061670.660 7   3926578.63122        25.750           2.344
  23739979.638    -3353598.516 6  -2493059.60321        12.250           0.344
  24176497.560    -2355871.829 5  -1735125.82521        10.000           0.250
  23680233.911    -4309270.773 6  -3305974.58121        17.500           0.781
  20984650.177     1153664.604 7    896732.83222        21.250           2.156
 91  5 20 18 35  0.0010000  0  5G18G16G 6G11G19
  21679772.864     5100763.032 7   3957040.17122        25.250           2.281
  23737395.552    -3367189.725 6  -2503650.16621        12.500           0.375
  24170698.880    -2386334.526 5  -1758862.89921        10.250           0.250
  23676930.950    -4326616.827 6  -3319490.93821        17.250           0.781
  20986798.411     1164959.695 7    905534.19722        21.750           2.156
 91  5 20 18 35 15.0010000  0  5G18G16G 6G11G19
  21687229.247     5139949.518 7   3987575.04522        25.250           2.188
  23734831.653    -3380647.615 6  -2514136.82921        12.000           0.438
  24164907.536    -2416773.915 5  -1782581.81121        10.500           0.313
  23673656.278    -4343836.077 6  -3332908.49921        17.750           0.750
  20988958.677     1176306.076 7    914375.53222        21.500           2.094
 91  5 20 18 35 30.0010000  0  5G18G16G 6G11G19
  21694705.544     5179233.462 7   4018185.86322        25.250           2.313
  23732298.224    -3393968.811 5  -2524516.98521        11.750           0.281
  24159119.278    -2447186.556 5  -1806279.85521        10.250           0.344
  23670404.528    -4360924.761 6  -3346224.30821        18.000           0.750
  20991128.942     1187707.094 7    923259.44222        21.500           2.031
 91  5 20 18 35 45.0010000  0  5G18G16G 6G11G19
  21702199.388     5218616.120 7   4048873.59822        24.750           2.188
  23729786.497    -3407151.894 6  -2534789.51321        12.000           0.438
  24153336.981    -2477571.017 5  -1829955.98121        10.500           0.344
  23667173.833    -4377881.256 6  -3359437.12921        17.500           0.719
  20993308.099     1199164.084 7    932186.96722        21.750           2.094
 91  5 20 18 36  0.0010000  0  5G18G16G 6G11G19
  21709712.528     5258094.813 7   4079636.16422        24.750           2.281
  23727307.271    -3420199.347 6  -2544956.37821        12.000           0.438
  24147560.638    -2507930.135 5  -1853612.34621        10.500           0.344
  23663974.708    -4394707.994 6  -3372548.84021        17.500           0.719
  20995496.575     1210674.311 7    941155.97722        22.250           2.063
 91  5 20 18 36 15.0010000  0  5G18G16G 6G11G19
  21717242.825     5297666.637 7   4110471.29822        24.500           2.188
  23724849.216    -3433113.609 5  -2555019.43221        11.750           0.438
  24141787.661    -2538266.626 5  -1877251.05521        10.250           0.281
  23660798.825    -4411407.308 6  -3385561.25121        18.250           0.875
  20997698.747     1222235.286 7    950164.52522        21.250           2.031
 91  5 20 18 36 30.0010000  0  5G18G16G 6G11G19
  21724790.646     5337333.756 7   4141380.68022        24.750           2.250
  23722417.052    -3445892.117 5  -2564976.71321        11.500           0.594
  24136018.208    -2568577.765 5  -1900870.03321        10.250           0.313
  23657643.208    -4427976.195 6  -3398472.03421        17.750           0.813
  20999909.435     1233849.529 7    959214.58522        21.500           2.125
 91  5 20 18 36 45.0010000  0  5G18G16G 6G11G19
  21732356.950     5377092.323 7   4172361.32322        24.500           2.250
  23720011.356    -3458538.401 5  -2574830.96521        10.750           0.406
  24130255.161    -2598867.603 5  -1924472.40821        10.250           0.219
  23654515.099    -4444418.418 6  -3411284.12821        18.000           0.781
  21002128.942     1245513.026 7    968303.01922        21.750           2.125
 91  5 20 18 37  0.0010000  0  5G18G16G 6G11G19
  21739942.356     5416949.176 7   4203418.55622        24.750           2.469
  23717629.817    -3471046.092 5  -2584577.20321        10.500           0.375
  24124494.802    -2629129.460 5  -1948052.98021        10.000           0.344
  23651410.083    -4460727.033 6  -3423992.10721        17.750           0.781
  21004359.614     1257232.729 7    977435.25222        21.750           2.125
 91  5 20 18 37 15.0010000  0  5G18G16G 6G11G19
  21747543.622     5456898.120 7   4234547.55122        24.750           2.313
  23715276.411    -3483420.778 5  -2594219.80621        11.000           0.406
  24118743.575    -2659369.216 5  -1971616.35321        10.000           0.375
  23648332.552    -4476907.630 6  -3436600.32821        17.500           0.688
  21006597.849     1269002.592 7    986606.57322        22.000           2.000
 91  5 20 18 37 30.0010000  0  5G18G16G 6G11G19
  21755165.200     5496942.753 7   4265751.10822        24.750           2.281
  23712946.146    -3495658.390 5  -2603755.60821        11.000           0.469
  24112991.060    -2689583.103 5  -1995159.54121         9.750           0.406
  23645278.919    -4492956.150 6  -3449105.62921        17.500           0.781
  21008845.239     1280826.370 7    995819.90722        22.500           2.063
 91  5 20 18 37 45.0010000  0  5G18G16G 6G11G19
  21762802.091     5537081.932 7   4297028.32822        24.500           2.344
  23710644.591    -3507759.693 5  -2613185.19021        11.250           0.438
  24107249.231    -2719771.756 5  -2018683.08621         9.750           0.344
  23642248.638    -4508872.966 6  -3461508.30921        17.500           0.719
  21011108.161     1292703.484 7   1005074.79822        21.500           2.188
 91  5 20 18 38  0.0010000  0  5G18G16G 6G11G19
  21770457.810     5577316.103 7   4328379.57622        24.500           2.344
  23708368.028    -3519724.433 5  -2622508.35521        11.000           0.500
  24101505.169    -2749935.201 5  -2042186.97721         9.750           0.406
  23639245.966    -4524657.802 6  -3473808.15021        17.750           0.719
  21013379.364     1304634.061 7   1014371.35222        21.500           2.094
 91  5 20 18 38 15.0010000  0  5G18G16G 6G11G19
  21778132.778     5617643.258 7   4359803.27922        25.000           2.344
  23706117.060    -3531554.126 5  -2631726.29621        11.250           0.438
  24095771.567    -2780075.144 5  -2065672.57021         9.500           0.406
  23636266.224    -4540311.937 6  -3486006.14721        17.750           0.719
  21015659.286     1316616.352 7   1023708.20422        21.250           2.125
 91  5 20 18 38 30.0010000  0  5G18G16G 6G11G19
  21785825.708     5658066.211 7   4391301.63122        25.250           2.219
  23703889.278    -3543245.390 5  -2640836.38121        10.750           0.531
  24090042.263    -2810188.523 5  -2089137.44221         9.750           0.375
  23633311.224    -4555832.147 6  -3498099.78821        17.500           0.656
  21017951.278     1328653.416 7   1033087.73422        21.000           2.094
 91  5 20 18 38 45.0010000  0  5G18G16G 6G11G19
  21793535.263     5698583.090 7   4422873.16722        25.250           2.250
  23701693.802    -3554800.225 5  -2649840.15321        11.000           0.469
  24084315.505    -2840277.114 5  -2112583.01521         9.500           0.375
  23630386.396    -4571219.817 6  -3510090.14921        18.500           0.719
  21020251.544     1340743.670 7   1042508.71422        21.250           2.125
 91  5 20 18 39  0.0010000  0  5G18G16G 6G11G19
  21801263.177     5739196.360 7   4454519.81522        25.250           2.313
  23699518.731    -3566216.039 5  -2658735.58221        11.250           0.469
  24078594.333    -2870338.476 5  -2136007.36421         9.000           0.344
  23627482.114    -4586472.288 6  -3521975.15821        18.000           0.719
  21022562.755     1352889.328 7   1051972.86222        20.750           2.125
 91  5 20 18 39 15.0010000  0  5G18G16G 6G11G19
  21809010.114     5779902.250 7   4486238.63422        25.750           2.375
  23697374.950    -3577496.011 5  -2667525.17621        11.250           0.594
  24072881.325    -2900376.234 5  -2159413.32521         8.750           0.344
  23624605.825    -4601592.865 6  -3533757.39621        18.250           0.563
  21024882.310     1365086.820 7   1061477.39922        20.750           2.063
 91  5 20 18 39 30.0010000  0  5G18G16G 6G11G19
  21816774.286     5820703.752 7   4518031.95622        25.000           2.313
  23695253.146    -3588636.908 5  -2676206.38821        11.750           0.656
  24067167.294    -2930387.009 5  -2182798.25721         8.750           0.406
  23621756.083    -4616577.894 6  -3545434.01521        18.250           0.656
  21027211.685     1377339.518 7   1071024.96022        21.750           2.063
 91  5 20 18 39 45.0010000  0  5G18G16G 6G11G19
  21824555.356     5861598.416 7   4549897.87322        25.250           2.344
  23693160.989    -3599640.997 5  -2684780.99821        11.750           0.594
  24061462.622    -2960373.407 5  -2206164.19521         8.250           0.375
  23618928.138    -4631429.680 6  -3557006.79921        18.250           0.625
  21029555.106     1389645.046 7   1080613.68022        21.000           2.125
 91  5 20 18 40  0.0010000  0  5G18G16G 6G11G19
  21832357.302     5902588.610 7   4581838.22822        25.750           2.281
  23691091.052    -3610505.738 5  -2693247.02921        11.750           0.531
  24055759.638    -2990332.756 5  -2229509.04621         8.500           0.469
  23616125.606    -4646145.224 6  -3568473.42421        17.750           0.594
  21031906.606     1402006.051 7   1090245.63122        21.000           2.063
 91  5 20 18 40 15.0010000  0  5G18G16G 6G11G19
  21840175.646     5943673.827 7   4613852.62922        25.500           2.344
  23689052.083    -3621231.436 6  -2701604.71121        12.000           0.594
  24050065.114    -3020265.673 5  -2252833.29821         8.500           0.438
  23613354.216    -4660724.807 6  -3579834.10721        18.000           0.625
  21034270.622     1414421.976 7   1099920.37522        20.250           2.156
 91  5 20 18 40 30.0010000  0  5G18G16G 6G11G19
  21848009.974     5984847.457 7   4645935.92122        25.500           2.313
  23687034.442    -3631824.400 6  -2709858.97021        12.500           0.563
  24044371.950    -3050178.441 5  -2276141.87921         8.250           0.438
  23610600.974    -4675174.473 6  -3591093.55521        17.500           0.844
  21036641.856     1426886.442 7   1109632.94322        20.750           2.125
 91  5 20 18 40 45.0010000  0  5G18G16G 6G11G19
  21855861.364     6026111.536 7   4678089.69422        25.250           2.344
  23685045.606    -3642282.230 6  -2718007.93621        12.500           0.563
  24038683.692    -3080068.803 5  -2299432.98221         8.250           0.438
  23607877.638    -4689491.791 6  -3602249.87421        17.750           0.781
  21039024.489     1439401.700 7   1119385.09022        20.000           2.156
 91  5 20 18 41  0.0010000  0  5G18G16G 6G11G19
  21863731.380     6067468.767 7   4710316.05322        25.250           2.188
  23683081.435    -3652602.012 6  -2726049.31021        12.750           0.531
  24033001.106    -3109933.951 5  -2322704.43221         8.000           0.406
  23605181.310    -4703673.642 6  -3613300.62921        17.750           0.844
  21041414.700     1451970.710 7   1129179.12022        20.500           2.063
 91  5 20 18 41 15.0010000  0  5G18G16G 6G11G19
  21871620.403     6108919.705 7   4742615.43122        25.250           2.250
  23681145.185    -3662782.856 6  -2733982.43521        13.000           0.625
  24027322.216    -3139773.216 5  -2345955.75121         8.250           0.313
  23602506.161    -4717718.972 6  -3624245.00621        17.500           0.844
  21043818.411     1464594.065 7   1139015.49822        20.500           2.063
 91  5 20 18 41 30.0010000  0  5G18G16G 6G11G19
  21879526.685     6150464.316 7   4774987.79722        25.500           2.313
  23679232.169    -3672824.817 6  -2741807.33621        13.000           0.531
  24021648.856    -3169586.615 5  -2369186.87421         8.250           0.469
  23599858.560    -4731627.496 6  -3635082.78321        17.250           0.938
  21046232.052     1477271.933 7   1148894.35422        20.000           2.156
 91  5 20 18 41 45.0010000  0  5G18G16G 6G11G19
  21887450.356     6192102.382 7   4807432.99122        25.500           2.344
  23677348.356    -3682727.857 6  -2749523.99221        13.250           0.594
  24015979.200    -3199374.322 5  -2392397.99121         8.500           0.531
  23597238.958    -4745399.190 6  -3645813.92321        17.500           0.813
  21048653.161     1490003.942 7   1158815.39922        20.000           2.125
 91  5 20 18 42  0.0010000  0  5G18G16G 6G11G19
  21895390.583     6233834.960 7   4839951.82622        25.000           2.250
  23675491.856    -3692490.750 6  -2757131.45421        13.750           0.531
  24010318.153    -3229135.073 5  -2415588.10521         8.500           0.375
  23594647.185    -4759032.523 6  -3656437.26521        17.750           0.750
  21051085.872     1502791.571 7   1168779.77922        20.250           2.125
 91  5 20 18 42 15.0010000  0  5G18G16G 6G11G19
  21903348.364     6275657.179 7   4872540.51422        24.500           2.156
  23673660.028    -3702118.073 6  -2764633.25521        13.750           0.563
  24004658.575    -3258873.749 5  -2438761.00321         8.500           0.469
  23592075.622    -4772532.140 6  -3666956.41221        17.750           0.844
  21053529.716     1515629.857 7   1178783.64122        20.250           2.125
 91  5 20 18 42 30.0010000  0  5G18G16G 6G11G19
  21911324.567     6317567.966 7   4905198.22222        24.500           2.406
  23671853.286    -3711610.434 6  -2772029.91321        13.750           0.531
  23999003.044    -3288591.085 5  -2461917.28821         8.500           0.438
  23589532.997    -4785898.457 6  -3677371.68421        18.000           0.844
  21055982.739     1528518.245 7   1188826.53722        20.250           2.125
 91  5 20 18 42 45.0010000  0  5G18G16G 6G11G19
  21919317.630     6359568.819 7   4937926.11022        24.750           2.188
  23670073.013    -3720965.917 6  -2779319.90021        13.500           0.438
  23993351.560    -3318285.249 5  -2485055.50921         8.500           0.438
  23587014.216    -4799129.352 6  -3687681.43921        18.000           0.844
  21058445.083     1541458.620 7   1198909.94622        20.000           2.094
 91  5 20 18 43  0.0010000  0  5G18G16G 6G11G19
  21927328.489     6401663.073 7   4970726.78222        24.750           2.375
  23668318.497    -3730181.077 6  -2786500.55321        13.500           0.469
  23987707.005    -3347952.938 5  -2508173.10921         8.500           0.500
  23584525.044    -4812221.261 6  -3697882.89121        18.000           0.875
  21060917.771     1554454.193 7   1209036.36122        20.500           2.125
 91  5 20 18 43 15.0010000  0  5G18G16G 6G11G19
  21935356.661     6443849.566 7   5003599.31822        24.500           2.188
  23666592.200    -3739257.194 6  -2793572.85721        13.500           0.469
  23982065.771    -3377595.088 5  -2531270.80021         8.250           0.531
  23582057.263    -4825174.954 6  -3707976.63721        17.500           0.906
  21063401.950     1567503.971 7   1219205.01722        20.750           2.125
 91  5 20 18 43 30.0010000  0  5G18G16G 6G11G19
  21943400.849     6486128.059 7   5036543.53822        24.500           2.125
  23664890.192    -3748194.622 6  -2800537.08421        13.250           0.500
  23976429.677    -3407212.085 5  -2554348.88621         8.250           0.500
  23579620.864    -4837990.489 6  -3717962.73121        17.750           0.875
  21065894.763     1580607.717 7   1229415.72722        20.250           2.125
 91  5 20 18 43 45.0010000  0  5G18G16G 6G11G19
  21951463.646     6528500.178 7   5069560.71522        24.000           2.188
  23663217.966    -3756991.052 6  -2807391.44921        13.000           0.438
  23970801.122    -3436802.357 5  -2577406.16421         8.500           0.563
  23577208.544    -4850665.945 6  -3727839.67621        18.000           0.969
  21068400.231     1593767.014 7   1239669.72122        20.500           2.031
 91  5 20 18 44  0.0010000  0  5G18G16G 6G11G19
  21959544.606     6570965.195 7   5102650.29322        23.750           2.219
  23661569.005    -3765646.918 6  -2814136.27921        13.000           0.438
  23965172.630    -3466366.291 5  -2600442.90821         8.250           0.563
  23574822.802    -4863201.590 6  -3737607.68321        18.000           0.938
  21070911.466     1606981.418 7   1249966.66022        21.000           2.125
 91  5 20 18 44 15.0010000  0  5G18G16G 6G11G19
  21967643.958     6613522.059 7   5135811.43122        23.750           2.250
  23659949.466    -3774162.962 6  -2820772.16721        12.750           0.438
  23959552.646    -3495904.556 5  -2623459.66221         8.750           0.500
  23572464.786    -4875597.760 6  -3747266.99721        17.750           1.000
  21073438.599     1620250.415 7   1260306.13722        20.500           2.094
 91  5 20 18 44 30.0010000  0  5G18G16G 6G11G19
  21975759.958     6656169.554 7   5169043.18022        23.250           2.219
  23658355.599    -3782540.333 6  -2827299.98721        12.750           0.438
  23953936.786    -3525418.245 5  -2646457.25521         8.750           0.469
  23570129.427    -4887855.390 6  -3756818.36321        17.500           0.875
  21075973.716     1633572.952 7   1270687.32922        20.750           2.063
 91  5 20 18 44 45.0010000  0  5G18G16G 6G11G19
  21983892.638     6698911.654 7   5202348.65322        23.500           2.188
  23656788.778    -3790774.246 6  -2833716.03021        12.500           0.406
  23948324.739    -3554903.246 5  -2669432.50421         9.000           0.469
  23567825.528    -4899970.030 6  -3766258.29221        17.750           0.938
  21078519.911     1646953.132 7   1281113.44222        20.500           2.063
 91  5 20 18 45  0.0010000  0  5G18G16G 6G11G19
  21992043.794     6741743.378 7   5235723.97122        22.750           2.000
  23655247.833    -3798869.824 6  -2840024.27221        12.250           0.531
  23942720.372    -3584364.550 5  -2692389.29121         9.250           0.531
  23565546.403    -4911946.342 6  -3775590.44721        17.750           0.938
  21081075.888     1660385.804 7   1291580.45722        21.000           2.188
 91  5 20 18 45 15.0010000  0  5G18G16G 6G11G19
  22000211.247     6784667.873 7   5269171.57622        22.500           2.031
  23653733.981    -3806823.855 6  -2846222.22221        12.750           0.438
  23937118.771    -3613798.843 5  -2715325.03021         9.000           0.469
  23563295.661    -4923780.861 6  -3784812.10721        18.500           1.000
  21083642.942     1673874.561 7   1302091.16922        20.750           2.125
 91  5 20 18 45 30.0010000  0  5G18G16G 6G11G19
  22008394.888     6827681.609 7   5302688.71622        22.250           2.063
  23652247.396    -3814639.729 6  -2852312.52621        12.250           0.500
  23931519.591    -3643209.653 5  -2738242.45721         9.250           0.500
  23561068.864    -4935476.887 6  -3793925.86021        18.750           1.031
  21086220.474     1687415.836 7   1312642.81022        20.500           2.031
 91  5 20 18 45 45.0010000  0  5G18G16G 6G11G19
  22016598.474     6870786.313 7   5336276.74422        22.750           2.156
  23650786.974    -3822314.846 6  -2858293.14821        12.250           0.344
  23925928.356    -3672594.574 5  -2761139.74021         9.000           0.500
  23558870.942    -4947031.627 6  -3802929.50721        18.250           0.906
  21088808.044     1701012.051 7   1323237.26122        20.750           2.094
 91  5 20 18 46  0.0010000  0  5G18G16G 6G11G19
  22024820.028     6913982.438 7   5369935.99922        23.000           2.156
  23649353.474    -3829848.858 6  -2864163.80821        12.250           0.438
  23920343.817    -3701953.175 5  -2784016.48721         9.250           0.469
  23556695.716    -4958444.526 6  -3811822.63821        18.250           0.906
  21091404.591     1714663.765 7   1333874.95822        20.750           2.094
 91  5 20 18 46 15.0010000  0  5G18G16G 6G11G19
  22033058.255     6957270.863 7   5403667.18222        23.250           2.188
  23647945.411    -3837240.615 6  -2869923.63721        12.000           0.531
  23914758.528    -3731284.631 5  -2806872.08821         9.250           0.531
  23554555.435    -4969714.502 6  -3820604.39921        18.500           0.969
  21094013.185     1728371.762 7   1344556.51222        20.750           1.969
 91  5 20 18 46 30.0010000  0  5G18G16G 6G11G19
  22041311.958     7000647.972 7   5437467.46822        22.750           2.125
  23646567.396    -3844494.115 6  -2875575.70821        12.000           0.469
  23909184.200    -3760592.662 5  -2829709.44421         9.500           0.469
  23552435.005    -4980844.876 6  -3829277.37521        18.500           1.000
  21096631.325     1742132.399 7   1355279.08322        21.000           2.000
 91  5 20 18 46 45.0010000  0  5G18G16G 6G11G19
  22049581.286     7044116.825 7   5471339.24422        22.250           2.094
  23645212.099    -3851605.378 6  -2881116.96821        12.250           0.500
  23903610.497    -3789873.623 5  -2852525.70821         9.750           0.563
  23550344.755    -4991831.899 6  -3837838.66321        18.250           0.906
  21099262.091     1755949.253 7   1366045.45822        20.750           2.125
 91  5 20 18 47  0.0010000  0  5G18G16G 6G11G19
  22057871.497     7087678.499 7   5505283.35422        22.250           2.125
  23643888.106    -3858573.201 6  -2886546.45321        12.000           0.500
  23898045.896    -3819126.400 5  -2875319.99021         9.750           0.563
  23548280.044    -5002674.212 6  -3846287.17821        18.500           1.000
  21101900.146     1769823.683 7   1376856.69722        21.000           2.063
 91  5 20 18 47 15.0010000  0  5G18G16G 6G11G19
  22066178.966     7131330.255 7   5539297.65422        22.500           2.031
  23642587.349    -3865400.455 6  -2891866.39921        12.000           0.500
  23892483.731    -3848353.712 5  -2898094.45221         9.750           0.594
  23546246.028    -5013374.247 6  -3854624.83621        18.750           0.969
  21104552.911     1783752.687 7   1387710.46022        20.750           1.906
 91  5 20 18 47 30.0010000  0  5G18G16G 6G11G19
  22074503.317     7175073.182 7   5573382.99522        22.750           2.063
  23641315.302    -3872085.625 6  -2897075.63921        12.000           0.531
  23886924.489    -3877554.298 5  -2920848.08221        10.000           0.594
  23544235.239    -5023930.481 6  -3862850.43521        18.500           0.969
  21107211.403     1797737.671 7   1398607.84422        20.750           2.125
 91  5 20 18 47 45.0010000  0  5G18G16G 6G11G19
  22082846.341     7218908.195 7   5607540.08522        23.000           2.094
  23640071.146    -3878627.580 6  -2902173.27221        12.000           0.625
  23881372.169    -3906727.102 5  -2943580.05721         9.750           0.469
  23542251.919    -5034341.687 6  -3870963.03121        18.000           0.844
  21109885.356     1811779.791 7   1409549.75022        20.500           2.031
 91  5 20 18 48  0.0010000  0  5G18G16G 6G11G19
  22091203.716     7262833.121 7   5641767.23822        22.750           1.969
  23638852.544    -3885028.428 6  -2907160.96021        12.000           0.563
  23875827.864    -3935874.196 5  -2966291.99621         9.750           0.438
  23540301.013    -5044609.798 6  -3878964.12821        18.750           0.969
  21112569.599     1825877.121 7   1420534.67822        20.500           2.063
 91  5 20 18 48 15.0010000  0  5G18G16G 6G11G19
  22099578.013     7306844.999 7   5676062.14822        23.000           1.844
  23637661.435    -3891290.569 6  -2912040.57721        12.250           0.438
  23870286.864    -3964998.068 5  -2988985.85421        10.000           0.563
  23538374.005    -5054737.043 6  -3886855.45621        18.500           1.063
  21115261.435     1840027.162 7   1431560.67922        20.500           2.063
 91  5 20 18 48 30.0010000  0  5G18G16G 6G11G19
  22107971.411     7350948.193 7   5710428.21822        23.000           1.969
  23636496.771    -3897409.491 6  -2916808.57021        12.000           0.563
  23864749.224    -3994094.335 5  -3011658.19221        10.000           0.406
  23536473.294    -5064718.637 6  -3894633.29221        18.250           0.938
  21117961.364     1854234.248 7   1442631.12322        21.250           2.031
 91  5 20 18 48 45.0010000  0  5G18G16G 6G11G19
  22116380.239     7395142.000 7   5744864.89522        22.500           2.000
  23635358.763    -3903385.699 6  -2921465.38021        12.500           0.594
  23859217.466    -4023163.611 5  -3034309.50121        10.250           0.375
  23534603.060    -5074555.059 6  -3902298.00621        18.500           1.000
  21120678.638     1868497.580 7   1453745.40122        20.500           2.063
 91  5 20 18 49  0.0010000  0  5G18G16G 6G11G19
  22124808.653     7439428.015 7   5779373.41522        22.500           1.875
  23634250.302    -3909217.450 6  -2926009.61521        12.250           0.469
  23853690.802    -4052204.301 5  -3056938.53521        10.000           0.531
  23532760.294    -5084244.390 6  -3909848.10021        18.750           1.000
  21123405.528     1882819.016 7   1464904.95522        20.250           2.094
 91  5 20 18 49 15.0010000  0  5G18G16G 6G11G19
  22133253.372     7483802.793 7   5813951.10222        23.000           1.906
  23633165.286    -3914907.733 6  -2930443.63021        12.000           0.500
  23848170.880    -4081219.425 5  -3079547.64521        10.000           0.406
  23530942.685    -5093789.553 6  -3917285.85121        18.750           0.844
  21126138.786     1897195.431 7   1476107.35022        20.500           2.094
 91  5 20 18 49 30.0010000  0  5G18G16G 6G11G19
  22141714.966     7528261.737 7   5848594.37122        23.250           1.844
  23632110.653    -3920461.179 5  -2934771.00021        11.750           0.625
  23842651.669    -4110213.496 5  -3102140.35121        10.000           0.500
  23529152.747    -5103194.729 6  -3924614.53821        18.250           0.906
  21128885.239     1911622.470 7   1487349.19422        20.000           2.000
 91  5 20 18 49 45.0010000  0  5G18G16G 6G11G19
  22150190.388     7572808.372 7   5883305.96922        23.000           1.875
  23631079.708    -3925874.236 6  -2938988.96821        12.000           0.625
  23837138.146    -4139183.022 5  -3124713.91421         9.750           0.375
  23527389.888    -5112456.298 6  -3931831.32221        18.500           0.969
  21131642.013     1926103.729 7   1498633.28122        20.500           2.094
 91  5 20 18 50  0.0010000  0  5G18G16G 6G11G19
  22158683.903     7617443.121 7   5918086.22622        22.500           1.781
  23630076.888    -3931146.165 5  -2943096.97521        11.750           0.688
  23831630.755    -4168127.277 5  -3147267.82021         9.500           0.438
  23525656.442    -5121573.190 6  -3938935.36121        19.000           1.000
  21134405.763     1940639.983 7   1509960.22622        21.250           2.125
 91  5 20 18 50 15.0010000  0  5G18G16G 6G11G19
  22167194.435     7662168.554 7   5952937.14722        22.000           1.750
  23629100.286    -3936273.979 6  -2947092.67821        12.250           0.656
  23826130.286    -4197043.337 5  -3169799.72121         9.750           0.500
  23523948.138    -5130542.430 6  -3945924.35521        18.750           1.031
  21137183.325     1955233.893 7   1521332.09422        20.500           2.125
 91  5 20 18 50 30.0010000  0  5G18G16G 6G11G19
  22175723.294     7706983.474 7   5987857.80222        22.750           1.844
  23628153.271    -3941258.340 6  -2950976.62021        12.250           0.625
  23820630.552    -4225932.209 5  -3192310.45521         9.750           0.469
  23522270.286    -5139364.717 6  -3952798.83921        18.500           0.938
  21139973.521     1969884.752 7   1532748.33822        20.250           2.094
 91  5 20 18 50 45.0010000  0  5G18G16G 6G11G19
  22184267.341     7751884.570 7   6022845.60622        22.500           1.750
  23627229.903    -3946102.826 6  -2954751.56621        12.250           0.688
  23815137.708    -4254797.500 5  -3214802.80621        10.000           0.531
  23520619.450    -5148043.398 6  -3959561.40921        18.750           0.875
  21142769.669     1984588.872 7   1544206.08922        20.500           2.094
 91  5 20 18 51  0.0010000  0  5G18G16G 6G11G19
  22192829.044     7796872.198 7   6057900.83422        23.000           1.781
  23626336.575    -3950806.783 6  -2958417.00221        12.250           0.781
  23809649.013    -4283638.423 5  -3237276.16621         9.750           0.438
  23518995.216    -5156577.471 6  -3966211.32021        19.000           0.813
  21145580.200     1999347.072 7   1555705.97922        20.000           2.219
 91  5 20 18 51 15.0010000  0  5G18G16G 6G11G19
  22201407.396     7841945.341 7   6093022.70122        22.750           1.781
  23625466.458    -3955371.353 6  -2961973.80921        12.000           0.625
  23804167.685    -4312456.235 5  -3259731.52321        10.000           0.563
  23517397.271    -5164967.968 6  -3972749.33521        18.750           0.875
  21148397.153     2014158.254 7   1567247.15322        20.500           2.156
 91  5 20 18 51 30.0010000  0  5G18G16G 6G11G19
  22209999.591     7887103.759 7   6128211.01122        22.750           1.688
  23624625.958    -3959795.992 6  -2965421.58821        12.000           0.625
  23798687.560    -4341250.486 5  -3282168.50521        10.000           0.469
  23515826.231    -5173214.399 6  -3979175.10021        18.500           0.875
  21151228.896     2029022.759 7   1578829.87122        20.000           2.094
 91  5 20 18 51 45.0010000  0  5G18G16G 6G11G19
  22218609.864     7932349.535 7   6163467.39922        22.500           1.781
  23623808.856    -3964078.264 6  -2968758.43621        12.000           0.594
  23793210.356    -4370018.931 5  -3304585.39121        10.250           0.594
  23514288.067    -5181314.116 6  -3985486.54321        19.000           0.969
  21154065.067     2043943.080 7   1590456.08822        20.250           2.219
 91  5 20 18 52  0.0010000  0  5G18G16G 6G11G19
  22227235.169     7977680.782 7   6198790.38722        22.250           1.750
  23623022.271    -3968220.420 6  -2971986.10121        12.500           0.563
  23787742.771    -4398763.519 5  -3326983.68921        10.500           0.438
  23512774.224    -5189268.888 6  -3991685.03921        18.750           0.750
  21156911.200     2058917.302 7   1602124.30822        21.000           2.250
 91  5 20 18 52 15.0010000  0  5G18G16G 6G11G19
  22235878.021     8023099.020 7   6234181.15222        22.500           1.688
  23622261.028    -3972220.794 6  -2975103.28921        12.250           0.656
  23782278.442    -4427482.662 5  -3349362.16221        10.500           0.406
  23511286.396    -5197076.954 6  -3997769.21821        18.750           0.906
  21159774.700     2073946.839 7   1613835.62222        20.250           2.188
 91  5 20 18 52 30.0010000  0  5G18G16G 6G11G19
  22244537.981     8068601.090 7   6269637.23722        22.500           1.719
  23621526.864    -3976081.926 6  -2978111.97521        12.250           0.531
  23776815.388    -4456179.106 5  -3371722.94921        10.250           0.438
  23509828.708    -5204740.700 6  -4003740.94521        18.750           0.969
  21162642.231     2089029.174 7   1625588.08422        20.750           2.188
 91  5 20 18 52 45.0010000  0  5G18G16G 6G11G19
  22253213.849     8114189.680 7   6305160.74122        22.250           1.813
  23620816.372    -3979801.316 6  -2981010.20721        12.000           0.656
  23771358.864    -4484850.089 5  -3394063.90821        10.500           0.406
  23508400.028    -5212257.336 6  -4009598.03221        19.000           0.906
  21165524.075     2104166.887 7   1637383.69522        20.250           2.031
 91  5 20 18 53  0.0010000  0  5G18G16G 6G11G19
  22261904.185     8159864.350 7   6340751.31922        22.000           1.750
  23620137.239    -3983378.731 6  -2983797.81321        12.750           0.594
  23765909.552    -4513495.921 5  -3416385.25621        10.500           0.531
  23506993.966    -5219626.924 6  -4015340.54121        18.500           0.938
  21168415.153     2119359.904 7   1649222.39722        20.750           2.281
 91  5 20 18 53 15.0010000  0  5G18G16G 6G11G19
  22270611.294     8205624.075 7   6376408.17922        21.750           1.750
  23619483.638    -3986815.118 6  -2986475.51721        13.000           0.531
  23760461.349    -4542117.448 5  -3438687.68021        10.250           0.438
  23505621.114    -5226850.238 6  -4020969.07321        18.500           0.781
  21171317.763     2134607.498 7   1661103.62522        20.250           2.219
 91  5 20 18 53 30.0010000  0  5G18G16G 6G11G19
  22279337.583     8251468.028 7   6412130.66822        22.000           1.875
  23618856.091    -3990111.013 6  -2989043.76721        13.000           0.563
  23755020.169    -4570715.155 5  -3460971.54621        10.500           0.375
  23504274.692    -5233927.385 6  -4026483.70921        18.500           0.938
  21174229.036     2149908.939 7   1673026.81722        20.750           2.125
 91  5 20 18 53 45.0010000  0  5G18G16G 6G11G19
  22288075.513     8297395.132 7   6447917.95622        21.750           1.813
  23618257.450    -3993267.708 6  -2991503.53221        13.000           0.563
  23749583.153    -4599290.195 5  -3483237.73521        11.250           0.375
  23502955.208    -5240859.436 6  -4031885.28021        18.000           0.969
  21177151.349     2165263.224 7   1684991.18022        20.250           2.281
 91  5 20 18 54  0.0010000  0  5G18G16G 6G11G19
  22296831.302     8343407.066 7   6483771.34222        21.750           1.781
  23617681.044    -3996283.008 6  -2993853.14321        12.750           0.531
  23744149.192    -4627840.559 5  -3505484.71521        11.500           0.438
  23501664.661    -5247644.202 6  -4037172.08421        18.000           0.969
  21180084.724     2180672.375 6   1696998.29822        19.750           2.188
 91  5 20 18 54 15.0010000  0  5G18G16G 6G11G19
  22305603.919     8389502.726 7   6519689.97422        22.000           1.844
  23617135.521    -3999158.009 6  -2996093.41621        12.750           0.469
  23738722.083    -4656367.297 5  -3527713.29321        11.750           0.344
  23500402.747    -5254282.459 6  -4042344.72621        18.000           0.906
  21183026.958     2196135.329 7   1709047.33922        20.000           2.250
 91  5 20 18 54 30.0010000  0  5G18G16G 6G11G19
  22314390.505     8435685.637 7   6555676.58922        21.750           1.750
  23616614.700    -4001888.839 6  -2998221.35621        12.500           0.406
  23733297.692    -4684866.627 5  -3549920.48021        11.750           0.344
  23499166.731    -5260770.224 6  -4047400.10321        18.250           0.938
  21185978.169     2211656.014 7   1721141.36822        20.250           2.250
 91  5 20 18 54 45.0010000  0  5G18G16G 6G11G19
  22323196.380     8481954.834 7   6591730.43522        21.750           1.844
  23616123.161    -4004476.157 6  -3000237.45921        12.250           0.438
  23727877.802    -4713339.328 5  -3572106.93921        11.750           0.500
  23497959.677    -5267108.137 6  -4052338.70421        18.250           0.969
  21188944.685     2227233.740 7   1733279.84322        20.250           2.250
 91  5 20 18 55  0.0010000  0  5G18G16G 6G11G19
  22332016.544     8528302.500 7   6627845.42722        21.250           1.781
  23615656.278    -4006927.981 6  -3002147.98821        12.500           0.469
  23722464.458    -4741793.174 6  -3594278.68721        12.000           0.344
  23496782.677    -5273303.755 6  -4057166.43221        18.250           1.000
  21191917.403     2242860.634 7   1745456.63022        20.250           2.281
 91  5 20 18 55 15.0010000  0  5G18G16G 6G11G19
  22340851.380     8574731.587 7   6664023.86222        21.250           1.813
  23615217.388    -4009240.727 6  -3003950.13521        12.000           0.406
  23717057.224    -4770224.927 6  -3616433.24521        12.250           0.406
  23495629.380    -5279353.720 6  -4061880.67121        18.000           0.969
  21194901.606     2258540.052 7   1757674.35322        20.250           2.406
 91  5 20 18 55 30.0010000  0  5G18G16G 6G11G19
  22349702.161     8621242.040 7   6700265.70122        20.750           1.813
  23614801.888    -4011414.226 6  -3005643.79021        12.250           0.375
  23711650.302    -4798634.356 6  -3638570.40121        12.250           0.438
  23494508.544    -5285257.540 6  -4066481.02621        18.250           0.875
  21197894.294     2274272.366 7   1769933.28722        20.500           2.313
 91  5 20 18 55 45.0010000  0  5G18G16G 6G11G19
  22358567.849     8667833.522 7   6736570.67522        21.000           1.750
  23614414.747    -4013448.891 6  -3007229.26521        12.000           0.438
  23706246.169    -4827021.780 6  -3660690.39421        12.000           0.438
  23493411.044    -5291015.388 6  -4070967.64021        18.000           0.969
  21200898.099     2290057.043 7   1782233.02122        20.500           2.281
 91  5 20 18 56  0.0010000  0  5G18G16G 6G11G19
  22367450.224     8714506.403 7   6772939.08222        20.750           1.719
  23614055.849    -4015344.266 5  -3008706.19221        11.750           0.500
  23700847.255    -4855386.675 6  -3682792.83321        12.000           0.406
  23492341.942    -5296626.576 6  -4075339.96621        18.000           0.969
  21203913.442     2305894.664 7   1794574.01222        20.250           2.281
 91  5 20 18 56 15.0010000  0  5G18G16G 6G11G19
  22376347.224     8761261.640 7   6809371.65622        20.750           1.750
  23613719.731    -4017098.995 5  -3010073.54021        11.500           0.438
  23695453.388    -4883727.767 5  -3704876.75021        11.500           0.438
  23491304.052    -5302089.544 6  -4079596.80221        18.500           0.938
  21206937.802     2321786.555 7   1806957.29322        20.500           2.250
 91  5 20 18 56 30.0010000  0  5G18G16G 6G11G19
  22385260.466     8808099.334 7   6845868.47722        20.750           1.656
  23613412.739    -4018712.813 5  -3011331.06721        11.500           0.375
  23690066.700    -4912044.880 5  -3726941.96721        11.750           0.406
  23490292.364    -5307404.026 6  -4083737.93321        18.500           1.000
  21209969.841     2337732.963 7   1819383.05422        21.250           2.281
 91  5 20 18 56 45.0010000  0  5G18G16G 6G11G19
  22394188.466     8855018.594 7   6882428.86622        20.750           1.875
  23613133.161    -4020186.201 5  -3012479.18021        11.250           0.500
  23684680.075    -4940338.760 5  -3748989.08721        11.500           0.406
  23489309.216    -5312570.567 6  -4087763.79021        18.000           0.938
  21213016.942     2353733.200 7   1831850.75422        20.750           2.469
 91  5 20 18 57  0.0010000  0  5G18G16G 6G11G19
  22403131.935     8902019.181 7   6919052.62222        20.750           1.750
  23612876.622    -4021519.506 5  -3013518.12521        11.000           0.469
  23679301.185    -4968609.589 5  -3771018.24421        11.250           0.438
  23488353.271    -5317589.172 6  -4091674.36621        18.000           0.969
  21216069.911     2369787.005 7   1844360.19922        20.750           2.344
 91  5 20 18 57 15.0010000  0  5G18G16G 6G11G19
  22412090.255     8949100.526 7   6955739.31222        20.000           1.688
  23612654.036    -4022713.080 5  -3014448.20821        11.000           0.531
  23673927.731    -4996857.618 5  -3793029.61921        11.250           0.438
  23487428.700    -5322459.924 6  -4095469.73021        18.750           1.063
  21219136.091     2385894.310 7   1856911.33222        20.500           2.438
 91  5 20 18 57 30.0010000  0  5G18G16G 6G11G19
  22421065.356     8996260.333 7   6992487.14122        20.500           1.750
  23612450.810    -4023769.078 5  -3015271.09021        10.500           0.469
  23668556.349    -5025084.944 5  -3815024.88721        11.250           0.406
  23486529.138    -5327184.809 6  -4099151.43321        18.250           0.969
  21222209.974     2402052.903 7   1869502.42822        20.750           2.375
 91  5 20 18 57 45.0010000  0  5G18G16G 6G11G19
  22430054.755     9043498.304 7   7029295.88222        20.250           1.688
  23612276.552    -4024687.192 5  -3015986.51021        10.500           0.531
  23663189.396    -5053291.642 5  -3837004.06521        11.000           0.375
  23485656.497    -5331763.535 6  -4102719.25421        18.250           0.875
  21225295.685     2418262.854 7   1882133.54522        20.250           2.438
 91  5 20 18 58  0.0010000  0  5G18G16G 6G11G19
  22439061.060     9090818.837 7   7066168.94322        20.750           1.625
  23612129.114    -4025463.132 5  -3016591.15721        10.500           0.563
  23657826.122    -5081473.130 5  -3858963.60421        11.000           0.313
  23484813.372    -5336191.577 6  -4106169.65521        18.500           0.938
  21228390.817     2434528.666 7   1894808.18823        20.250           2.500
 91  5 20 18 58 15.0010000  0  5G18G16G 6G11G19
  22448080.599     9138218.168 7   7103103.41622        20.500           1.656
  23612006.192    -4026100.405 5  -3017087.74521        11.000           0.469
  23652466.755    -5109633.044 5  -3880906.31821        10.750           0.438
  23484001.364    -5340472.292 6  -4109505.24421        18.250           0.969
  21231497.075     2450846.827 7   1907523.62122        20.250           2.438
 91  5 20 18 58 30.0010000  0  5G18G16G 6G11G19
  22457114.356     9185696.387 7   7140099.35622        20.250           1.563
  23611913.700    -4026598.897 5  -3017476.20121        11.500           0.500
  23647110.919    -5137771.128 5  -3902832.03821        11.000           0.313
  23483211.927    -5344605.241 6  -4112725.70821        18.250           0.938
  21234610.677     2467217.885 7   1920280.27922        20.500           2.344
 91  5 20 18 58 45.0010000  0  5G18G16G 6G11G19
  22466164.474     9233252.760 7   7177156.18821        20.500           1.438
  23611843.411    -4026959.252 5  -3017757.01721        11.000           0.500
  23641761.536    -5165887.990 5  -3924741.22821        11.250           0.469
  23482454.942    -5348591.037 6  -4115831.49721        18.500           0.875
  21237737.075     2483641.049 7   1933077.54122        20.250           2.375
 91  5 20 18 59  0.0010000  0  5G18G16G 6G11G19
  22475230.372     9280888.301 7   7214274.71421        20.500           1.375
  23611802.685    -4027179.954 5  -3017929.01221        11.250           0.469
  23636415.810    -5193982.234 5  -3946632.78021        10.750           0.375
  23481725.028    -5352427.950 6  -4118821.28421        18.500           0.875
  21240871.224     2500117.832 7   1945916.58422        20.500           2.438
 91  5 20 18 59 15.0010000  0  5G18G16G 6G11G19
  22484308.747     9328598.007 7   7251451.03421        20.750           1.406
  23611787.802    -4027265.955 5                        11.000
  23631072.208    -5222058.623 5  -3968510.43621        10.250           0.438
  23481021.646    -5356120.658 6  -4121698.70221        18.500           0.906
  21244016.927     2516643.397 7   1958793.63022        20.250           2.375
 91  5 20 18 59 30.0010000  0  5G18G16G 6G11G19
  22493401.583     9376385.229 7   7288687.76322        21.000           1.500
  23611796.224    -4027213.490 5                        11.750
  23625733.771    -5250113.703 5  -3990371.47021        10.000           0.469
  23480348.013    -5359665.566 6  -4124460.95221        18.250           0.906
  21247170.599     2533221.177 7   1971711.37122        20.500           2.375
 91  5 20 18 59 45.0010000  0  5G18G16G 6G11G19
  22502508.903     9424247.764 7   7325983.16722        20.500           1.563
  23611831.317    -4027025.191 6                        12.000
  23620397.974    -5278149.857 5  -4012217.78921         9.750           0.406
  23479699.794    -5363064.767 6  -4127109.66721        18.500           0.875
  21250337.239     2549849.089 7   1984668.17522        20.250           2.375
 91  5 20 19  0  0.0010000  0  5G18G16G 6G11G19
  22511633.138     9472188.738 7   7363339.69022        20.500           1.531
  23611896.005    -4026697.455 6                        12.250
  23615067.169    -5306163.344 5  -4034046.41721        10.000           0.469
  23479081.864    -5366314.589 6  -4129641.97821        18.250           0.844
  21253508.817     2566530.713 7   1997666.83023        20.500           2.500
 91  5 20 19  0 15.0010000  0  5G18G16G 6G11G19
  22520771.403     9520207.717 7   7400756.99521        20.750           1.469
  23611983.106    -4026230.241 6  -3017189.05421        12.500           0.500
  23609739.560    -5334154.445 5  -4055857.60821        10.000           0.438
  23478491.442    -5369415.075 6  -4132057.92321        18.250           0.938
  21256695.146     2583265.708 7   2010707.07822        20.250           2.406
 91  5 20 19  0 30.0010000  0  5G18G16G 6G11G19
  22529924.356     9568308.603 7   7438238.13121        20.750           1.469
  23612098.966    -4025619.620 6  -3016713.26521        12.750           0.531
  23604419.052    -5362119.183 5  -4077648.22821        10.250           0.375
  23477931.841    -5372362.083 6  -4134354.28421        18.500           0.906
  21259890.903     2600058.319 7   2023792.22222        20.500           2.375
 91  5 20 19  0 45.0010000  0  5G18G16G 6G11G19
  22539093.481     9616488.829 7   7475781.08821        20.750           1.469
  23612241.653    -4024867.986 6  -3016127.59321        12.250           0.688
  23599100.872    -5390059.935 5  -4099420.19221        10.000           0.406
  23477401.606    -5375157.731 6  -4136532.70221        18.250           0.938
  21263096.278     2616906.008 7   2036920.28222        20.500           2.406
 91  5 20 19  1  0.0010000  0  5G18G16G 6G11G19
  22548275.700     9664744.944 7   7513383.17922        21.000           1.531
  23612413.161    -4023978.865 6  -3015434.78521        12.750           0.563
  23593791.958    -5417980.138 5  -4121176.12321        10.250           0.438
  23476895.146    -5377805.353 6  -4138595.76121        18.250           0.781
  21266310.372     2633805.457 7   2050088.67023        21.250           2.500
 91  5 20 19  1 15.0010000  0  5G18G16G 6G11G19
  22557472.185     9713077.966 7   7551045.19322        20.500           1.531
  23612606.302    -4022950.854 6  -3014633.75621        12.750           0.563
  23588479.528    -5445878.373 5  -4142914.94921        10.250           0.500
  23476419.489    -5380303.550 6  -4140542.39721        18.250           0.813
  21269538.028     2650758.071 7   2063298.49322        20.250           2.438
 91  5 20 19  1 30.0010000  0  5G18G16G 6G11G19
  22566684.466     9761488.600 7   7588767.68922        20.500           1.500
  23612829.450    -4021783.237 6  -3013723.94021        13.000           0.688
  23583176.794    -5473753.733 5  -4164635.94021        10.500           0.469
  23475972.856    -5382651.213 6  -4142371.73721        18.000           0.906
  21272775.216     2667765.023 7   2076550.65122        20.250           2.375
 91  5 20 19  1 45.0010000  0  5G18G16G 6G11G19
  22575910.192     9809975.239 6   7626549.40521        19.750           1.469
  23613080.013    -4020477.418 6  -3012706.42821        13.000           0.656
  23577877.646    -5501607.658 5  -4186340.23221        10.500           0.594
  23475554.458    -5384849.610 6  -4144084.75821        18.500           0.813
  21276021.325     2684824.725 7   2089843.91923        20.750           2.500
 91  5 20 19  2  0.0010000  0  5G18G16G 6G11G19
  22585153.271     9858541.822 6   7664393.41721        19.750           1.375
  23613354.966    -4019028.908 6  -3011577.73721        13.500           0.563
  23572580.622    -5529435.984 5  -4208024.58221        10.500           0.594
  23475165.903    -5386894.495 6  -4145678.16221        19.000           0.844
  21279278.646     2701941.370 7   2103181.55522        20.000           2.406
 91  5 20 19  2 15.0010000  0  5G18G16G 6G11G19
  22594411.153     9907184.988 7   7702297.10121        20.000           1.438
  23613653.411    -4017441.403 6  -3010340.74521        13.250           0.594
  23567286.919    -5557242.206 5  -4229691.71321        10.500           0.563
  23474805.247    -5388789.007 6  -4147154.39621        19.250           0.906
  21282546.325     2719111.547 7   2116560.90622        20.250           2.438
 91  5 20 19  2 30.0010000  0  5G18G16G 6G11G19
  22603680.692     9955905.720 6   7740261.22721        19.500           1.344
  23613983.786    -4015713.631 6  -3008994.45021        13.000           0.563
  23562001.927    -5585024.889 5  -4251340.50321        10.750           0.594
  23474474.286    -5390531.831 6  -4148512.43221        19.000           0.875
  21285822.450     2736336.567 7   2129982.99922        21.000           2.375
 91  5 20 19  2 45.0010000  0  5G18G16G 6G11G19
  22612966.950    10004699.046 6   7778281.92421        19.500           1.438
  23614341.427    -4013850.012 6  -3007542.31521        13.500           0.625
  23556718.669    -5612788.597 5  -4272974.50421        10.500           0.688
  23474170.513    -5392127.351 6  -4149755.68221        19.750           0.875
  21289110.646     2753612.036 7   2143444.38922        20.000           2.344
 91  5 20 19  3  0.0010000  0  5G18G16G 6G11G19
  22622268.138    10053572.105 6   7816364.74921        19.500           1.406
  23614721.372    -4011843.281 6  -3005978.64821        13.750           0.625
  23551441.841    -5640526.070 5  -4294588.06321        10.750           0.469
  23473896.927    -5393567.974 6  -4150878.23421        19.500           0.906
  21292409.427     2770945.367 6   2156950.86922        19.500           2.406
 91  5 20 19  3 15.0010000  0  5G18G16G 6G11G19
  22631582.075    10102519.910 6   7854505.81922        19.500           1.531
  23615128.919    -4009698.576 6  -3004307.47021        13.750           0.688
  23546165.794    -5668242.179 5  -4316184.98021        11.000           0.656
  23473651.419    -5394858.657 6  -4151883.95321        19.250           0.844
  21295718.599     2788331.652 6   2170498.61622        19.750           2.375
 91  5 20 19  3 30.0010000  0  5G18G16G 6G11G19
  22640910.849    10151538.930 6   7892702.37221        19.750           1.344
  23615564.028    -4007419.327 6  -3002531.45021        13.500           0.625
  23540895.817    -5695940.347 5  -4337767.91421        11.000           0.781
  23473434.536    -5396002.653 6  -4152775.37421        19.250           0.906
  21299037.177     2805767.364 6   2184084.87622        19.500           2.344
 91  5 20 19  3 45.0010000  0  5G18G16G 6G11G19
  22650253.356    10200635.420 6   7930959.29621        19.500           1.344
  23616025.536    -4004999.180 6  -3000645.64321        13.500           0.563
  23535630.192    -5723614.147 5  -4359331.86921        11.250           0.719
  23473243.396    -5396993.516 6  -4153547.46021        18.750           0.938
  21302363.239     2823258.934 6   2197714.66222        19.750           2.375
 91  5 20 19  4  0.0010000  0  5G18G16G 6G11G19
  22659609.521    10249808.653 6   7969276.02321        19.250           1.250
  23616512.005    -4002438.711 6  -2998650.48621        13.500           0.688
  23530368.481    -5751264.234 5  -4380877.34121        11.500           0.625
  23473083.950    -5397831.559 6  -4154200.47221        19.000           0.969
  21305704.364     2840805.886 6   2211387.60122        19.250           2.375
 91  5 20 19  4 15.0010000  0  5G18G16G 6G11G19
  22668981.372    10299055.719 6   8007650.28021        18.750           1.250
  23617026.185    -3999740.004 6  -2996547.62121        13.500           0.688
  23525108.341    -5778892.837 5  -4402406.07521        11.250           0.719
  23472955.083    -5398519.103 6  -4154736.20221        19.000           0.844
  21309052.997     2858405.869 6   2225101.86822        19.750           2.438
 91  5 20 19  4 30.0010000  0  5G18G16G 6G11G19
  22678366.638    10348374.720 6   8046080.59121        18.500           1.313
  23617562.974    -3996905.192 6  -2994338.69721        13.500           0.719
  23519853.974    -5806501.945 5  -4423919.61921        11.500           0.781
  23472851.528    -5399057.966 6  -4155156.09021        18.750           0.938
  21312408.911     2876057.084 7   2238856.05022        20.500           2.281
 91  5 20 19  4 45.0010000  0  5G18G16G 6G11G19
  22687766.692    10397770.551 6   8084570.76721        18.500           1.375
  23618129.513    -3993929.231 6  -2992019.79021        13.750           0.656
  23514605.810    -5834086.365 5  -4445413.91121        11.500           0.750
  23472778.731    -5399442.795 6  -4155455.94421        19.000           0.875
  21315781.614     2893764.777 6   2252654.24022        19.750           2.375
 91  5 20 19  5  0.0010000  0  5G18G16G 6G11G19
  22697181.341    10447242.565 6   8123120.31521        18.500           1.344
  23618725.021    -3990812.834 6  -2989591.45021        13.500           0.781
  23509363.919    -5861646.674 5  -4466889.42721        11.500           0.719
  23472734.427    -5399674.012 6  -4155636.10521        19.000           0.906
  21319159.333     2911528.484 7   2266496.07822        20.000           2.313
 91  5 20 19  5 15.0010000  0  5G18G16G 6G11G19
  22706608.927    10496790.555 6   8161729.05121        18.750           1.281
  23619346.231    -3987555.732 6  -2987053.47221        13.750           0.688
  23504122.958    -5889182.814 5  -4488346.10721        11.500           0.906
  23472715.731    -5399751.460 6                        18.500
  21322552.950     2929348.222 6   2280381.57922        19.500           2.344
 91  5 20 19  5 30.0010000  0  5G18G16G 6G11G19
  22716051.911    10546411.126 6   8200394.35221        18.750           1.219
  23619989.271    -3984161.337 6  -2984408.50721        13.500           0.719
  23498885.396    -5916698.067 5  -4509786.51121        11.750           0.844
  23472733.122    -5399678.341 6                        18.250
  21325952.536     2947220.737 6   2294308.20422        19.750           2.313
 91  5 20 19  5 45.0010000  0  5G18G16G 6G11G19
  22725508.591    10596106.250 6   8239117.74021        18.500           1.281
  23620661.888    -3980627.442 6  -2981654.84321        13.500           0.625
  23493655.083    -5944190.155 5  -4531208.86021        11.750           0.875
  23472777.661    -5399452.310 6                        18.750
  21329366.083     2965148.258 6   2308277.69522        19.500           2.313
 91  5 20 19  6  0.0010000  0  5G18G16G 6G11G19
  22734979.505    10645873.681 6   8277897.47321        18.750           1.125
  23621359.544    -3976956.149 6  -2978794.11821        13.250           0.656
  23488427.661    -5971661.124 5  -4552614.75121        11.750           0.844
  23472848.239    -5399075.198 6                        18.750
  21332784.677     2983128.839 6   2322288.52222        19.750           2.344
 91  5 20 19  6 15.0010000  0  5G18G16G 6G11G19
  22744464.185    10695713.358 6   8316733.50421        18.750           1.250
  23622085.169    -3973147.374 6  -2975826.26521        13.000           0.719
  23483200.958    -5999110.569 6  -4574003.87421        12.000           0.844
  23472946.849    -5398546.572 6  -4154757.55121        18.500           0.875
  21336217.888     3001162.948 6   2336341.06322        19.500           2.375
 91  5 20 19  6 30.0010000  0  5G18G16G 6G11G19
  22753959.778    10745624.042 6   8355624.87421        18.250           1.188
  23622836.013    -3969202.254 6  -2972752.17321        13.000           0.625
  23477985.825    -6026539.906 5  -4595377.31821        11.500           0.781
  23473075.966    -5397867.658 6  -4154228.52321        18.750           0.938
  21339661.825     3019249.198 6   2350434.23122        19.500           2.438
 91  5 20 19  6 45.0010000  0  5G18G16G 6G11G19
  22763472.271    10795611.036 6   8394575.68721        18.000           1.156
  23623613.669    -3965115.348 6  -2969567.59721        12.750           0.563
  23472766.247    -6053943.333 5  -4616730.57721        11.500           0.844
  23473237.060    -5397032.753 6  -4153577.94421        19.000           0.875
  21343114.028     3037393.221 6   2364572.41822        19.750           2.406
 91  5 20 19  7  0.0010000  0  5G18G16G 6G11G19
  22772999.106    10845668.775 6   8433581.64021        18.500           1.188
  23624420.356    -3960892.103 6  -2966276.77221        13.000           0.531
  23467559.497    -6081326.572 5  -4638068.10821        11.750           0.750
  23473425.036    -5396047.309 6  -4152810.05521        18.750           1.000
  21346574.567     3055589.650 7   2378751.43822        20.000           2.375
 91  5 20 19  7 15.0010000  0  5G18G16G 6G11G19
  22782539.935    10895801.573 6   8472646.07221        18.250           1.063
  23625248.200    -3956527.884 6  -2962876.11521        12.250           0.563
  23462352.005    -6108684.814 5  -4659386.15721        11.750           0.813
  23473642.317    -5394906.467 6  -4151921.07921        19.250           0.969
  21350048.935     3073843.119 6   2392974.90822        19.750           2.469
 91  5 20 19  7 30.0010000  0  5G18G16G 6G11G19
  22792092.974    10946006.053 6   8511766.36521        18.750           1.125
  23626105.466    -3952026.150 6  -2959368.30321        12.750           0.563
  23457151.099    -6136021.382 6  -4680687.31321        12.000           0.781
  23473886.239    -5393613.364 6  -4150913.46021        19.250           0.938
  21353532.888     3092150.340 7   2407240.26122        20.500           2.344
 91  5 20 19  7 45.0010000  0  5G18G16G 6G11G19
  22801660.388    10996285.687 6   8550945.22521        18.500           1.250
  23626987.802    -3947383.003 6  -2955750.28921        12.000           0.594
  23451954.528    -6163332.436 6  -4701968.59421        12.250           0.781
  23474162.630    -5392164.241 6  -4149784.26921        19.500           1.000
  21357029.263     3110515.283 7   2421550.59122        20.500           2.344
 91  5 20 19  8  0.0010000  0  5G18G16G 6G11G19
  22811241.974    11046634.766 6   8590178.18821        19.000           1.156
  23627896.231    -3942604.215 6  -2952026.58521        12.000           0.594
  23446753.583    -6190623.584 6  -4723234.34821        12.000           0.813
  23474468.700    -5390564.630 6  -4148537.81721        19.750           1.000
  21360531.942     3128932.166 7   2435901.39223        20.750           2.500
 91  5 20 19  8 15.0010000  0  5G18G16G 6G11G19
  22820836.591    11097057.549 6   8629468.59021        18.750           1.219
  23628832.935    -3937685.232 5  -2948193.62921        11.500           0.563
  23441572.958    -6217890.246 6  -4744481.03921        12.250           0.688
  23474803.536    -5388809.791 7  -4147170.40921        20.000           1.094
  21364047.856     3147405.717 7   2450296.35022        20.250           2.281
 91  5 20 19  8 30.0010000  0  5G18G16G 6G11G19
  22830446.622    11147552.450 6   8668815.18321        19.250           1.156
  23629797.333    -3932627.686 5  -2944252.71821        11.500           0.531
  23436389.771    -6245133.891 6  -4765709.79221        12.750           0.688
  23475164.888    -5386901.101 6  -4145683.11321        19.500           1.000
  21367574.935     3165934.513 7   2464734.35422        20.500           2.313
 91  5 20 19  8 45.0010000  0  5G18G16G 6G11G19
  22840068.286    11198116.218 6   8708215.44721        18.750           1.281
  23630783.146    -3927434.285 5  -2940205.92021        11.500           0.500
  23431207.513    -6272357.536 6  -4786922.97021        13.000           0.781
  23475556.317    -5384841.398 6  -4144078.14221        19.750           1.000
  21371109.841     3184515.687 7   2479213.17322        20.250           2.344
 91  5 20 19  9  0.0010000  0  5G18G16G 6G11G19
  22849704.638    11248752.123 6   8747671.90821        19.000           1.156
  23631797.817    -3922102.036 5  -2936050.95621        11.250           0.438
  23426026.239    -6299557.736 6  -4808117.87221        12.750           0.625
  23475980.036    -5382627.191 7  -4142352.78421        20.250           0.969
  21374654.239     3203152.703 7   2493735.51022        21.250           2.406
 91  5 20 19  9 15.0010000  0  5G18G16G 6G11G19
  22859353.310    11299458.822 6   8787183.53821        18.750           1.125
  23632839.942    -3916631.986 5  -2931788.59521        11.250           0.500
  23420854.646    -6326735.650 6  -4829295.41521        13.000           0.656
  23476429.388    -5380259.768 6  -4140508.02821        19.750           1.000
  21378213.583     3221844.461 7   2508300.49822        20.750           2.250
 91  5 20 19  9 30.0010000  0  5G18G16G 6G11G19
  22869015.685    11350239.347 6   8826752.68821        18.750           1.188
  23633905.622    -3911021.147 5  -2927416.54821        11.250           0.531
  23415688.880    -6353888.282 6  -4850453.24321        12.750           0.688
  23476907.396    -5377735.804 6  -4138541.29821        19.500           0.969
  21381779.630     3240593.995 7   2522910.50722        21.000           2.250
 91  5 20 19  9 45.0010000  0  5G18G16G 6G11G19
  22878692.302    11401087.822 6   8866374.78721        18.750           1.125
  23635000.700    -3905274.973 5  -2922939.03321        11.250           0.469
  23410526.200    -6381020.811 6  -4871595.43021        12.750           0.594
  23477417.981    -5375060.534 6  -4136456.66321        19.750           0.938
  21385359.255     3259395.989 7   2537561.39522        21.000           2.313
 91  5 20 19 10  0.0010000  0  5G18G16G 6G11G19
  22888382.599    11452008.193 6   8906052.90821        18.250           1.188
  23636120.458    -3899389.390 5  -2918352.88421        11.500           0.500
  23405372.364    -6408129.149 6  -4892718.68521        13.000           0.031
  23477955.278    -5372229.777 7  -4134250.87121        20.000           0.906
  21388945.388     3278254.673 7   2552256.46022        21.500           2.219
 91  5 20 19 10 15.0010000  0  5G18G16G 6G11G19
  22898085.364    11502999.456 6   8945786.27421        18.250           1.125
  23637267.364    -3893365.419 5  -2913658.90921        11.500           0.500
  23400213.927    -6435214.083 6  -4913823.83521        13.000           0.313
  23478523.661    -5369244.287 6  -4131924.51621        19.500           1.063
  21392547.450     3297169.277 7   2566995.09322        21.500           2.344
 91  5 20 19 10 30.0010000  0  5G18G16G 6G11G19
  22907803.216    11554057.316 6   8985571.52721        18.250           1.188
  23638438.739    -3887207.100 5  -2908860.25121        11.500           0.469
  23395060.880    -6462279.774 6  -4934913.93421        13.000           0.563
  23479121.794    -5366108.080 6  -4129480.70421        19.750           0.969
  21396156.747     3316135.726 7   2581774.12422        21.250           2.281
 91  5 20 19 10 45.0010000  0  5G18G16G 6G11G19
  22917531.106    11605184.395 6   9025410.72421        18.500           1.156
  23639636.075    -3880911.845 5  -2903954.89321        11.750           0.531
  23389916.271    -6489323.436 6  -4955986.85621        13.250           0.656
  23479746.880    -5362818.358 6  -4126917.28221        19.750           1.031
  21399775.942     3335156.786 7   2596595.70922        21.250           2.281
 91  5 20 19 11  0.0010000  0  5G18G16G 6G11G19
  22927275.091    11656383.443 6   9065306.00021        18.750           1.188
  23640863.325    -3874476.811 6  -2898940.61521        12.000           0.469
  23384775.599    -6516342.098 6  -4977040.30721        13.250           0.531
  23480403.989    -5359372.190 6  -4124231.95221        19.750           1.031
  21403404.231     3354235.518 7   2611462.23822        21.500           2.313
 91  5 20 19 11 15.0010000  0  5G18G16G 6G11G19
  22937029.778    11707651.225 6   9105254.83521        18.250           1.219
  23642113.052    -3867905.003 6  -2893819.76421        12.000           0.469
  23379641.083    -6543338.778 6  -4998076.63621        13.000           0.469
  23481088.685    -5355772.384 6  -4121426.90121        19.750           1.031
  21407047.419     3373368.954 7   2626371.39122        21.250           2.281
 91  5 20 19 11 30.0010000  0  5G18G16G 6G11G19
  22946800.153    11758987.603 6   9145257.11921        18.250           1.219
  23643389.513    -3861196.113 6  -2888592.08321        12.250           0.531
  23374510.325    -6570313.386 6  -5019095.76221        13.000           0.469
  23481801.747    -5352018.819 6  -4118502.04821        19.750           1.094
  21410697.544     3392556.997 7   2641323.09122        21.500           2.250
 91  5 20 19 11 45.0010000  0  5G18G16G 6G11G19
  22956582.481    11810393.942 6   9185313.91621        18.250           1.094
  23644693.247    -3854349.238 6  -2883256.88621        12.500           0.438
  23369375.294    -6597264.364 6  -5040096.46121        13.250           0.656
  23482546.146    -5348109.982 6  -4115456.19921        19.500           0.938
  21414360.599     3411801.141 7   2656318.51022        21.250           2.375
 91  5 20 19 12  0.0010000  0  5G18G16G 6G11G19
  22966376.325    11861867.379 6   9225422.99821        17.750           1.156
  23646024.271    -3847366.881 6  -2877816.11421        12.250           0.469
  23364250.271    -6624194.510 6  -5061080.93321        13.750           0.563
  23483317.677    -5344048.430 6  -4112291.34921        19.750           0.969
  21418031.419     3431099.010 7   2671355.79222        21.500           2.250
 91  5 20 19 12 15.0010000  0  5G18G16G 6G11G19
  22976184.810    11913408.165 6   9265584.55721        17.750           1.250
  23647375.653    -3840248.353 6  -2872269.24721        12.750           0.563
  23359135.700    -6651102.919 6  -5082048.46521        13.250           0.500
  23484121.114    -5339833.233 6  -4109006.77721        19.750           1.031
  21421716.021     3450451.406 7   2686435.56222        21.250           2.375
 91  5 20 19 12 30.0010000  0  5G18G16G 6G11G19
  22986005.638    11965016.724 6   9305798.92521        17.750           1.188
  23648754.810    -3832993.618 6  -2866616.24121        12.750           0.438
  23354014.263    -6677989.093 6  -5102998.68321        13.000           0.625
  23484953.083    -5335463.857 6  -4105602.06321        19.500           1.031
  21425407.692     3469858.848 7   2701558.22522        22.000           2.313
 91  5 20 19 12 45.0010000  0  5G18G16G 6G11G19
  22995840.317    12016690.857 6   9346064.37921        18.250           1.125
  23650161.646    -3825604.527 6  -2860858.53921        12.750           0.500
  23348904.989    -6704855.053 6  -5123933.14021        13.000           0.625
  23485813.825    -5330942.354 6  -4102078.81521        19.750           0.969
  21429111.716     3489319.133 7   2716722.06522        21.000           2.188
 91  5 20 19 13  0.0010000  0  5G18G16G 6G11G19
  23005686.747    12068435.511 6   9386384.79421        18.000           1.188
  23651594.106    -3818075.967 6  -2854992.16921        13.000           0.406
  23343796.544    -6731695.701 6  -5144847.87421        13.000           0.563
  23486702.247    -5326263.524 6  -4098432.97521        19.750           1.031
  21432826.114     3508837.556 7   2731931.20922        21.000           2.344
 91  5 20 19 13 15.0010000  0  5G18G16G 6G11G19
  23015545.372    12120246.387 6   9426756.80821        18.000           1.188
  23653054.458    -3810411.938 6  -2849020.22621        13.500           0.438
  23338692.349    -6758515.020 6  -5165745.99921        13.250           0.469
  23487622.903    -5321431.303 6  -4094667.60921        19.500           0.969
  21436551.013     3528410.362 7   2747182.72722        21.000           2.281
 91  5 20 19 13 30.0010000  0  5G18G16G 6G11G19
  23025417.114    12172122.739 6   9467179.85121        18.000           1.063
  23654538.755    -3802613.253 6  -2842943.36721        13.750           0.500
  23333592.739    -6785313.541 6  -5186627.92321        13.000           0.625
  23488570.630    -5316446.209 6  -4090783.12321        19.750           0.938
  21440282.661     3548036.860 7   2762476.08422        21.750           2.313
 91  5 20 19 13 45.0010000  0  5G18G16G 6G11G19
  23035301.388    12224065.329 6   9507654.50421        17.750           1.000
  23656047.786    -3794679.274 6  -2836761.08921        13.500           0.531
  23328499.372    -6812090.453 6  -5207492.99421        13.250           0.531
  23489549.481    -5311307.299 7  -4086778.77521        20.000           0.938
  21444030.888     3567717.944 7   2777811.97422        21.000           2.313
 91  5 20 19 14  0.0010000  0  5G18G16G 6G11G19
  23045199.771    12276074.509 6   9548181.03321        18.000           1.125
  23657582.989    -3786609.053 6  -2830472.65121        13.500           0.531
  23323402.927    -6838844.879 6  -5228340.55121        13.250           0.594
  23490557.138    -5306013.661 6  -4082653.85921        19.500           1.031
  21447785.880     3587454.536 7   2793191.11622        20.750           2.188
 91  5 20 19 14 15.0010000  0  5G18G16G 6G11G19
  23055107.325    12328148.722 6   9588758.24221        17.750           1.063
  23659143.599    -3778404.048 6  -2824079.17021        13.500           0.500
  23318321.349    -6865578.212 6  -5249171.66421        13.000           0.563
  23491594.849    -5300566.678 7  -4078409.45721        20.000           0.938
  21451553.255     3607245.312 7   2808612.48022        21.250           2.156
 91  5 20 19 14 30.0010000  0  5G18G16G 6G11G19
  23065030.021    12380287.980 6   9629386.14221        17.750           1.094
  23660731.013    -3770064.274 6  -2817580.68421        14.000           0.531
  23313237.716    -6892290.371 6  -5269986.28221        13.000           0.594
  23492660.364    -5294966.189 7  -4074045.43521        20.000           1.000
  21455330.575     3627090.340 7   2824076.11822        20.750           2.344
 91  5 20 19 14 45.0010000  0  5G18G16G 6G11G19
  23074963.138    12432491.932 6   9670064.44421        17.500           1.094
  23662347.481    -3761590.037 6  -2810977.41321        14.000           0.375
  23308154.591    -6918981.381 6  -5290784.42121        13.000           0.594
  23493753.661    -5289212.240 7  -4069561.84321        20.000           0.938
  21459114.919     3646989.465 7   2839581.91122        21.000           2.313
 91  5 20 19 15  0.0010000  0  5G18G16G 6G11G19
  23084910.810    12484762.698 6   9710794.80621        17.750           0.969
  23663982.442    -3752978.863 6  -2804267.44721        14.000           0.500
  23303077.614    -6945648.680 6  -5311564.07421        12.750           0.563
  23494878.653    -5283302.238 6  -4064956.63721        19.750           0.875
  21462909.755     3666945.303 7   2855131.89522        21.500           2.250
 91  5 20 19 15 15.0010000  0  5G18G16G 6G11G19
  23094869.630    12537099.141 6   9751576.35821        17.500           0.969
  23665646.708    -3744231.929 6  -2797451.69221        14.000           0.563
  23298012.200    -6972293.445 6  -5332326.18621        13.500           0.531
  23496032.505    -5277237.277 6  -4060230.69521        19.750           0.906
  21466721.911     3686956.902 7   2870725.33022        20.750           2.313
 91  5 20 19 15 30.0010000  0  5G18G16G 6G11G19
  23104840.810    12589500.824 6   9792408.73621        17.500           0.969
  23667337.364    -3735350.056 6  -2790530.79121        13.750           0.500
  23292947.864    -6998915.865 6  -5353070.88421        13.750           0.531
  23497216.833    -5271017.633 7  -4055384.21521        20.000           1.031
  21470540.778     3707024.030 7   2886362.03722        20.500           2.313
 91  5 20 19 15 45.0010000  0  5G18G16G 6G11G19
  23114824.778    12641966.518 6   9833290.99521        17.500           0.906
  23669054.958    -3726333.814 6  -2783505.18421        13.750           0.500
  23287887.958    -7025516.865 6  -5373798.88321        14.000           0.500
  23498428.669    -5264644.119 6  -4050417.83621        19.750           0.906
  21474369.349     3727145.832 7   2902041.34622        20.750           2.344
 91  5 20 19 16  0.0010000  0  5G18G16G 6G11G19
  23124823.146    12694495.765 6   9874222.78421        17.250           1.031
  23670794.458    -3717183.422 6  -2776375.05321        13.500           0.438
  23282828.825    -7052096.700 6  -5394510.39421        14.000           0.500
  23499671.567    -5258117.100 6  -4045331.84921        19.750           0.938
  21478209.294     3747322.002 7   2917763.01522        20.750           2.344
 91  5 20 19 16 15.0010000  0  5G18G16G 6G11G19
  23134832.255    12747093.285 6   9915207.76121        17.250           1.063
  23672561.989    -3707894.004 6  -2769136.56721        13.250           0.500
  23277775.458    -7078650.336 6  -5415201.48221        13.750           0.531
  23500942.521    -5251431.415 7  -4040122.22521        20.000           0.906
  21482059.856     3767557.847 7   2933531.19222        21.250           2.281
 91  5 20 19 16 30.0010000  0  5G18G16G 6G11G19
  23144851.716    12799750.407 6   9956239.16621        17.000           0.969
  23674355.966    -3698474.285 6  -2761796.57221        13.250           0.563
  23272726.731    -7105186.131 6  -5435878.66721        14.000           0.656
  23502242.481    -5244595.352 7  -4034795.42121        20.000           0.969
  21485921.513     3787844.882 7   2949339.25522        20.500           2.406
 91  5 20 19 16 45.0010000  0  5G18G16G 6G11G19
  23154884.981    12852474.167 6   9997322.51321        17.000           1.031
  23676174.146    -3688917.451 6  -2754349.72921        12.750           0.500
  23267681.005    -7131697.156 6  -5456536.54521        13.500           0.719
  23503576.692    -5237601.970 6  -4029346.02921        19.750           1.000
  21489791.614     3808189.908 7   2965192.50222        21.000           2.406
 91  5 20 19 17  0.0010000  0  5G18G16G 6G11G19
  23164928.466    12905259.656 6  10038453.95921        16.750           0.906
  23678016.567    -3679228.151 6  -2746799.66021        13.250           0.500
  23262640.231    -7158187.898 6  -5477178.61621        14.000           0.656
  23504935.474    -5230455.815 6  -4023777.59321        19.500           0.906
  21493670.755     3828588.475 7   2981087.47122        21.750           2.406
 91  5 20 19 17 15.0010000  0  5G18G16G 6G11G19
  23174987.216    12958108.963 6  10079635.12821        17.250           0.969
  23679887.942    -3669403.832 6  -2739144.38821        13.000           0.563
  23257600.349    -7184655.902 6  -5497802.97321        14.500           0.500
  23506323.622    -5223154.473 6  -4018088.24121        19.250           0.969
  21497564.185     3849043.103 7   2997026.12223        20.750           2.531
 91  5 20 19 17 30.0010000  0  5G18G16G 6G11G19
  23185055.731    13011024.838 6  10120868.17821        17.000           0.969
  23681781.755    -3659442.102 6  -2731382.05021        12.250           0.469
  23252565.161    -7211098.317 6  -5518407.40021        14.750           0.656
  23507743.356    -5215694.954 6  -4012275.61921        19.250           0.969
  21501468.138     3869556.710 7   3013010.73722        21.750           2.406
 91  5 20 19 17 45.0010000  0  5G18G16G 6G11G19
  23195136.763    13064003.169 6  10162149.89521        16.750           0.875
  23683702.567    -3649346.953 6  -2723515.75021        12.000           0.594
  23247539.771    -7237519.117 6  -5538994.98721        14.500           0.531
  23509192.958    -5208081.323 6  -4006342.91221        19.750           1.000
  21505383.896     3890125.288 7   3029038.18222        21.000           2.406
 91  5 20 19 18  0.0010000  0  5G18G16G 6G11G19
  23205230.763    13117042.896 6  10203479.45621        16.750           0.938
  23685651.966    -3639119.157 6  -2715546.09121        12.750           0.531
  23242519.356    -7263919.099 6  -5559566.35121        14.000           0.656
  23510671.521    -5200314.221 6  -4000290.62421        19.500           1.031
  21509306.474     3910748.232 7   3045107.99522        21.750           2.344
 91  5 20 19 18 15.0010000  0  5G18G16G 6G11G19
  23215336.130    13170145.449 6  10244857.97121        16.750           0.906
  23687621.013    -3628757.255 6  -2707471.92121        13.000           0.500
  23237496.880    -7290296.442 6  -5580120.07021        13.750           0.656
  23512180.224    -5192391.892 6  -3994117.38221        19.750           1.094
  21513241.661     3931427.256 7   3061221.50922        21.000           2.438
 91  5 20 19 18 30.0010000  0  5G18G16G 6G11G19
  23225452.185    13223310.640 6  10286285.28521        16.500           1.063
  23689620.552    -3618261.256 6  -2699293.25521        13.250           0.469
  23232479.169    -7316651.179 6  -5600656.17821        14.250           0.656
  23513715.075    -5184314.431 6  -3987823.25121        19.500           1.063
  21517186.325     3952162.397 7   3077378.74722        21.250           2.375
 91  5 20 19 18 45.0010000  0  5G18G16G 6G11G19
  23235581.521    13276536.106 6  10327759.55821        16.250           0.938
  23691641.364    -3607633.317 6  -2691011.78221        13.000           0.469
  23227474.997    -7342985.465 6  -5621176.34321        14.250           0.813
  23515280.942    -5176084.040 6  -3981409.95321        19.250           1.000
  21521145.341     3972951.553 7   3093578.07822        21.000           2.469
 91  5 20 19 19  0.0010000  0  5G18G16G 6G11G19
  23245722.810    13329822.224 6  10369281.10121        16.500           1.000
  23693689.583    -3596872.972 6  -2682627.13721        12.250           0.531
  23222461.739    -7369298.551 6  -5641679.99021        14.750           0.844
  23516876.919    -5167699.816 6  -3974876.79621        19.750           0.875
  21525112.364     3993795.320 7   3109819.95823        20.500           2.531
 91  5 20 19 19 15.0010000  0  5G18G16G 6G11G19
  23255874.114    13383168.122 6  10410849.21521        16.500           0.938
  23695760.997    -3585981.107 6  -2674140.02321        12.500           0.563
  23217463.560    -7395591.160 6  -5662167.68021        14.500           0.938
  23518501.169    -5159162.561 6  -3968224.38721        19.750           1.000
  21529087.724     4014693.225 7   3126104.02222        20.750           2.375
 91  5 20 19 19 30.0010000  0  5G18G16G 6G11G19
  23266037.317    13436573.903 6  10452464.00121        16.250           1.000
  23697860.755    -3574957.581 6  -2665550.30321        12.250           0.563
  23212457.669    -7421862.884 6  -5682639.10521        14.250           0.750
  23520155.989    -5150471.717 7  -3961452.31121        20.250           0.938
  21533071.935     4035645.755 7   3142430.65522        21.250           2.469
 91  5 20 19 19 45.0010000  0  5G18G16G 6G11G19
  23276211.349    13490040.266 6  10494125.99721        15.750           0.781
  23699981.247    -3563801.620 6  -2656857.39821        12.750           0.563
  23207469.911    -7448112.739 6  -5703093.49021        14.250           0.844
  23521838.114    -5141626.492 6  -3954559.91921        19.750           0.875
  21537071.271     4056653.812 7   3158800.55022        21.000           2.375
 91  5 20 19 20  0.0010000  0  5G18G16G 6G11G19
  23286396.731    13543569.502 6  10535836.98221        15.250           0.969
  23702132.864    -3552510.388 6  -2648059.06821        12.750           0.625
  23202472.005    -7474338.258 6  -5723528.90921        13.750           0.781
  23523550.177    -5132624.338 6  -3947545.25121        19.500           1.031
  21541080.185     4077719.898 7   3175215.66822        21.000           2.438
 91  5 20 19 20 15.0010000  0  5G18G16G 6G11G19
  23296593.489    13597157.732 6  10577593.93221        15.250           0.906
  23704304.552    -3541088.152 6  -2639158.67621        12.500           0.531
  23197488.419    -7500543.116 6  -5743948.22921        13.250           0.813
  23525294.771    -5123469.138 6  -3940411.33221        19.500           0.938
  21545100.778     4098840.216 7   3191673.04222        20.500           2.375
 91  5 20 19 20 30.0010000  0  5G18G16G 6G11G19
  23306802.317    13650806.429 6  10619398.00321        15.000           0.938
  23706506.271    -3529533.580 6  -2630155.16021        12.500           0.469
  23192507.903    -7526725.604 6  -5764350.11921        13.750           0.781
  23527065.021    -5114159.079 6  -3933156.74021        19.500           0.938
  21549129.481     4120016.716 7   3208174.19222        20.750           2.344
 91  5 20 19 20 45.0010000  0  5G18G16G 6G11G19
  23317022.880    13704511.165 6  10661245.73521        15.250           0.938
  23708725.856    -3517850.915 6  -2621051.82621        12.000           0.563
  23187526.005    -7552890.060 6  -5784737.94921        14.250           0.906
  23528865.833    -5104698.453 6  -3925784.81521        19.500           0.969
  21553170.278     4141244.980 7   3224715.67722        20.500           2.344
 91  5 20 19 21  0.0010000  0  5G18G16G 6G11G19
  23327254.778    13758275.893 6  10703140.22121        14.750           0.844
  23710977.138    -3506035.768 5  -2611845.26221        11.750           0.656
  23182550.560    -7579032.064 6  -5805108.29421        14.000           0.969
  23530695.372    -5095082.738 6  -3918292.05721        19.500           0.969
  21557220.841     4162529.489 7   3241300.99622        20.750           2.281
 91  5 20 19 21 15.0010000  0  5G18G16G 6G11G19
  23337496.942    13812102.256 6  10745082.73421        14.500           0.875
  23713248.935    -3494086.336 5  -2602534.07321        11.750           0.625
  23177584.919    -7605149.688 6  -5825459.64321        14.000           0.938
  23532554.622    -5085310.088 6  -3910677.00321        19.500           0.969
  21561281.833     4183872.262 7   3257931.71122        20.750           2.313
 91  5 20 19 21 30.0010000  0  5G18G16G 6G11G19
  23347750.778    13865984.799 6  10787069.00721        14.500           0.844
  23715549.325    -3482008.047 5  -2593122.46721        11.750           0.594
  23172617.716    -7631248.010 6  -5845795.95021        14.000           0.875
  23534445.013    -5075385.769 6  -3902943.77621        19.750           0.938
  21565351.114     4205268.068 7   3274603.75322        21.000           2.281
 91  5 20 19 21 45.0010000  0  5G18G16G 6G11G19
  23358015.755    13919924.249 6  10829099.63021        14.500           0.781
  23717871.224    -3469800.338 5  -2583610.01621        11.750           0.625
  23167655.013    -7657326.315 6  -5866116.65121        13.500           0.844
  23536363.247    -5065309.073 6  -3895091.80921        19.750           1.000
  21569435.653     4226717.619 7   3291317.67522        20.250           2.281
 91  5 20 19 22  0.0010000  0  5G18G16G 6G11G19
  23368292.528    13973924.677 6  10871177.77121        14.500           0.781
  23720220.700    -3457458.890 6  -2573993.34521        12.000           0.625
  23162695.474    -7683380.256 6  -5886418.37721        13.500           0.844
  23538308.177    -5055075.492 6  -3887117.59521        19.500           0.906
  21573526.747     4248225.444 7   3308077.00722        20.750           2.188
 91  5 20 19 22 15.0010000  0  5G18G16G 6G11G19
  23378577.786    14027982.350 6  10913300.52721        14.750           0.813
  23722594.036    -3444987.161 5  -2564275.15621        11.750           0.656
  23157741.591    -7709413.212 6  -5906703.74621        13.250           0.844
  23540285.450    -5044688.444 6  -3879023.79821        19.500           0.969
  21577631.442     4269788.290 7   3324879.20722        20.500           2.281
 91  5 20 19 22 30.0010000  0  5G18G16G 6G11G19
  23388875.388    14082099.306 6  10955469.46221        15.000           0.938
  23724992.122    -3432383.090 5  -2554453.85821        11.250           0.719
  23152792.185    -7735423.059 6  -5926971.11121        13.750           0.875
  23542292.364    -5034145.965 6  -3870808.88421        19.250           0.875
  21581742.208     4291408.123 7   3341725.81422        20.750           2.219
 91  5 20 19 22 45.0010000  0  5G18G16G 6G11G19
  23399185.380    14136274.641 6  10997683.89821        15.000           0.906
  23727414.286    -3419647.558 5  -2544530.11621        11.000           0.719
  23147846.630    -7761410.315 6  -5947220.87121        13.750           0.844
  23544326.646    -5023448.558 6  -3862473.25021        19.000           0.938
  21585870.974     4313084.429 7   3358616.42322        20.500           2.219
 91  5 20 19 23  0.0010000  0  5G18G16G 6G11G19
  23409505.224    14190509.688 6  11039944.85721        14.500           0.938
  23729863.724    -3406779.243 5  -2534502.90321        10.750           0.656
  23142907.950    -7787373.307 6  -5967451.72421        14.000           0.875
  23546393.161    -5012594.579 6  -3854015.60821        19.000           0.906
  21590006.700     4334818.991 7   3375552.42822        20.500           2.281
 91  5 20 19 23 15.0010000  0  5G18G16G 6G11G19
  23419838.177    14244801.718 6  11082250.22421        14.750           0.781
  23732337.380    -3393780.874 5  -2524374.34721        11.000           0.625
  23137971.411    -7813314.731 6  -5987665.77221        13.750           0.906
  23548486.161    -5001586.834 6  -3845438.15621        19.000           1.094
  21594152.700     4356609.068 7   3392531.68922        20.500           2.188
 91  5 20 19 23 30.0010000  0  5G18G16G 6G11G19
  23430179.614    14299151.662 6  11124600.71121        14.500           0.906
  23734833.708    -3380651.370 5  -2514143.61821        11.250           0.688
  23133038.208    -7839233.285 6  -6007862.00221        13.750           0.875
  23550612.075    -4990424.114 6  -3836739.93821        19.250           1.000
  21598307.669     4378455.906 7   3409555.17722        20.500           2.375
 91  5 20 19 23 45.0010000  0  5G18G16G 6G11G19
  23440535.052    14353561.683 6  11166998.01121        14.250           0.875
  23737360.614    -3367388.464 5  -2503808.92421        11.500           0.594
  23128107.724    -7865126.482 6  -6028038.47221        13.500           0.781
  23552765.364    -4979103.820 6  -3827918.93921        19.500           0.969
  21602478.661     4400362.130 7   3426624.94722        20.500           2.250
 91  5 20 19 24  0.0010000  0  5G18G16G 6G11G19
  23450898.114    14408024.487 6  11209436.43421        14.500           0.813
  23739908.630    -3353999.305 5  -2493375.85121        11.750           0.750
  23123184.919    -7891001.228 6  -6048200.55921        13.750           0.906
  23554949.106    -4967632.926 6  -3818980.59521        19.250           1.063
  21606654.841     4422320.798 7   3443735.58022        20.500           2.219
 91  5 20 19 24 15.0010000  0  5G18G16G 6G11G19
  23461274.817    14462547.010 6  11251921.39721        15.000           0.906
  23742482.310    -3340477.136 5  -2482839.13921        11.500           0.625
  23118268.677    -7916850.766 6  -6068343.00721        13.750           0.813
  23557160.614    -4956004.812 6  -3809919.73921        19.250           0.969
  21610846.161     4444338.630 7   3460892.31022        20.000           2.219
 91  5 20 19 24 30.0010000  0  5G18G16G 6G11G19
  23471658.794    14517122.447 6  11294447.59821        15.000           0.781
  23745077.380    -3326828.401 5  -2472203.79921        11.250           0.688
  23113351.700    -7942681.332 6  -6088470.67321        13.500           0.844
  23559401.310    -4944225.713 6  -3800741.24121        19.250           1.000
  21615045.310     4466409.414 7   3478090.30422        20.250           2.125
 91  5 20 19 24 45.0010000  0  5G18G16G 6G11G19
  23482056.536    14571757.010 6  11337019.85821        15.250           0.813
  23747699.989    -3313047.007 5  -2461465.09221        11.000           0.750
  23108439.521    -7968486.702 6  -6108578.70421        14.000           0.844
  23561674.208    -4932289.424 6  -3791440.25421        19.000           1.031
  21619257.841     4488539.695 7   3495334.66422        20.000           2.156
 91  5 20 19 25  0.0010000  0  5G18G16G 6G11G19
  23492461.849    14626446.042 6  11379634.57421        14.750           0.906
  23750346.575    -3299137.376 5  -2450626.46721        11.000           0.688
  23103536.388    -7994271.012 6  -6128670.32021        14.750           0.781
  23563973.927    -4920200.143 6  -3782020.05121        18.750           0.969
  21623478.497     4510725.197 7   3512622.04822        20.250           2.188
 91  5 20 19 25 15.0010000  0  5G18G16G 6G11G19
  23502879.778    14681189.578 6  11422291.74621        15.000           0.781
  23753020.052    -3285099.546 5  -2439687.94121        11.250           0.656
  23098630.575    -8020034.038 6  -6148745.36421        14.500           0.781
  23566304.052    -4907957.677 6  -3772480.48421        18.750           0.938
  21627711.950     4532966.073 7   3529952.58122        20.000           2.156
 91  5 20 19 25 30.0010000  0  5G18G16G 6G11G19
  23513308.036    14735986.863 6  11464990.80421        15.000           0.813
  23755715.560    -3270933.773 5  -2428649.72021        11.500           0.750
  23093735.052    -8045776.151 6  -6168804.10921        14.750           0.750
  23568662.638    -4895562.558 6  -3762821.96621        19.000           0.969
  21631955.005     4555262.018 7   3547326.02922        20.000           2.219
 91  5 20 19 25 45.0010000  0  5G18G16G 6G11G19
  23523745.388    14790835.853 6  11507730.15021        15.500           0.844
  23758435.216    -3256642.383 5  -2417513.61521        11.750           0.750
  23088837.192    -8071499.410 6  -6188848.16121        14.500           0.813
  23571050.677    -4883016.842 6  -3753046.09421        19.000           0.875
  21636209.130     4577611.015 7   3564740.81222        20.000           2.250
 91  5 20 19 26  0.0010000  0  5G18G16G 6G11G19
  23534194.075    14845740.152 6  11550512.59721        15.500           0.875
  23761177.091    -3242221.672 5  -2406276.73721        11.500           0.563
  23083949.106    -8097199.713 6  -6208874.32221        14.000           0.750
  23573468.255    -4870316.563 6  -3743149.79421        19.000           1.000
  21640468.825     4600017.216 7   3582200.17322        20.500           2.219
 91  5 20 19 26 15.0010000  0  5G18G16G 6G11G19
  23544652.599    14900698.795 6  11593337.38121        15.250           0.719
  23763948.060    -3227672.595 5  -2394939.84421        11.500           0.531
  23079060.333    -8122877.949 6  -6228883.28221        14.250           0.875
  23575913.286    -4857462.649 6  -3733133.76921        19.000           0.938
  21644746.411     4622479.710 7   3599703.40022        20.000           2.188
 91  5 20 19 26 30.0010000  0  5G18G16G 6G11G19
  23555119.396    14955708.123 6  11636201.66621        14.750           0.719
  23766739.466    -3212998.731 5  -2383505.71021        11.250           0.656
  23074177.036    -8148537.446 6  -6248877.63721        14.250           0.688
  23578388.817    -4844458.344 6  -3723000.56221        19.250           0.906
  21649031.372     4644995.086 7   3617247.83322        20.250           2.313
 91  5 20 19 26 45.0010000  0  5G18G16G 6G11G19
  23565598.677    15010771.612 6  11679108.14721        14.500           0.781
  23769555.966    -3198196.616 5  -2371971.64421        11.250           0.656
  23069301.349    -8174174.462 6  -6268854.48721        15.000           0.813
  23580892.528    -4831300.030 6  -3712747.34821        19.250           0.875
  21653324.669     4667567.256 7   3634836.51522        20.000           2.156
 91  5 20 19 27  0.0010000  0  5G18G16G 6G11G19
  23576087.271    15065889.379 6  11722056.93821        14.250           0.656
  23772395.521    -3183265.908 5  -2360337.38321        11.000           0.656
  23064427.099    -8199788.557 6  -6288813.48221        15.500           0.906
  23583425.974    -4817987.518 6  -3702373.98021        19.000           0.781
  21657632.919     4690196.514 7   3652469.68122        20.000           2.188
 91  5 20 19 27 15.0010000  0  5G18G16G 6G11G19
  23586586.661    15121059.975 6  11765046.87221        14.250           0.688
  23775261.638    -3168207.986 5  -2348603.97521        10.750           0.688
  23059554.747    -8225380.905 6  -6308755.52521        15.750           0.813
  23585986.833    -4804521.891 6  -3691881.30121        19.000           0.875
  21661949.497     4712881.755 7   3670146.47522        20.000           2.281
 91  5 20 19 27 30.0010000  0  5G18G16G 6G11G19
  23597092.474    15176283.099 6  11808077.74521        13.750           0.719
  23778150.677    -3153023.089 5  -2336771.63621        11.250           0.563
  23054687.505    -8250951.621 6  -6328680.71921        15.500           0.844
  23588579.458    -4790903.368 6  -3681269.49021        18.750           0.844
  21666275.622     4735622.947 7   3687866.86422        21.250           2.125
 91  5 20 19 27 45.0010000  0  5G18G16G 6G11G19
  23607612.786    15231561.685 6  11851151.83921        14.250           0.781
  23781065.763    -3137708.446 5  -2324838.20121        11.000           0.688
  23049826.856    -8276497.525 6  -6348586.57121        15.750           0.781
  23591201.497    -4777128.843 6  -3670536.11221        18.750           0.906
  21670615.122     4758423.164 7   3705633.25522        20.000           2.156
 91  5 20 19 28  0.0010000  0  5G18G16G 6G11G19
  23618141.716    15286890.996 6  11894265.46121        14.000           0.594
  23784003.294    -3122268.527 5  -2312807.13921        10.750           0.500
  23044969.380    -8302023.002 6  -6368476.50521        15.250           0.813
  23593850.138    -4763202.832 6  -3659684.68521        18.750           0.906
  21674965.130     4781278.212 7   3723442.36522        20.000           2.219
 91  5 20 19 28 15.0010000  0  5G18G16G 6G11G19
  23628681.388    15342272.546 6  11937419.78321        13.750           0.688
  23786965.997    -3106701.840 5  -2300677.31521        10.500           0.625
  23040117.997    -8327526.394 6  -6388349.23121        15.500           0.906
  23596530.403    -4749123.645 6  -3648713.91121        18.750           0.844
  21679324.685     4804189.725 7   3741295.47522        20.250           2.156
 91  5 20 19 28 30.0010000  0  5G18G16G 6G11G19
  23639230.888    15397706.245 6  11980614.74721        13.500           0.625
  23789953.763    -3091008.485 5  -2288448.77521        10.500           0.500
  23035266.794    -8353007.602 6  -6408204.67121        15.500           0.813
  23599237.536    -4734891.314 6  -3637623.79121        18.500           0.938
  21683696.005     4827157.809 7   3759192.66322        20.250           2.156
 91  5 20 19 28 45.0010000  0  5G18G16G 6G11G19
  23649787.825    15453189.383 6  12023848.22521        13.250           0.594
  23792960.677    -3075190.924 5  -2276123.45721        10.500           0.563
  23030424.263    -8378468.815 6  -6428044.52521        16.000           0.781
  23601977.036    -4720507.979 6  -3626416.01321        18.500           0.750
  21688076.786     4850180.342 7   3777132.27922        20.500           2.156
 91  5 20 19 29  0.0010000  0  5G18G16G 6G11G19
  23660356.841    15508726.119 6  12067123.47321        13.000           0.625
  23795997.489    -3059244.784 5  -2263697.94121        10.750           0.594
  23025581.567    -8403905.457 6  -6447865.23821        16.250           0.750
  23604742.192    -4705969.285 6  -3615087.17521        18.500           0.750
  21692470.247     4873261.765 7   3795117.78722        20.000           2.250
 91  5 20 19 29 15.0010000  0  5G18G16G 6G11G19
  23670935.575    15564314.969 6  12110439.32121        13.000           0.594
  23799056.880    -3043172.164 5  -2251173.88021        10.750           0.438
  23020745.364    -8429319.315 6  -6467668.20121        16.250           0.844
  23607538.630    -4691277.090 6  -3603638.72621        18.750           0.813
  21696871.638     4896400.499 7   3813147.94522        20.250           2.125
 91  5 20 19 29 30.0010000  0  5G18G16G 6G11G19
  23681523.013    15619953.844 6  12153794.15221        13.500           0.719
  23802138.583    -3026974.535 5  -2238552.40321        10.500           0.531
  23015915.450    -8454711.894 6  -6487454.58421        16.250           0.719
  23610361.247    -4676433.043 6  -3592071.94621        18.500           0.906
  21701283.099     4919594.802 7   3831221.40822        21.250           2.125
 91  5 20 19 29 45.0010000  0  5G18G16G 6G11G19
  23692121.169    15675642.512 6  12197187.79221        13.500           0.594
  23805246.864    -3010652.163 5  -2225833.71321        10.750           0.563
  23011088.825    -8480082.992 6  -6507224.22221        15.750           0.719
  23613215.911    -4661437.009 6  -3580386.73321        18.500           0.719
  21705709.755     4942844.901 7   3849338.35222        20.250           2.094
 91  5 20 19 30  0.0010000  0  5G18G16G 6G11G19
  23702728.044    15731383.783 6  12240622.40521        13.500           0.688
  23808375.606    -2994202.338 5  -2213015.71921        10.750           0.469
  23006264.356    -8505429.939 6  -6526975.03921        15.000           0.750
  23616097.825    -4646286.285 6  -3568580.99221        18.750           0.844
  21710142.583     4966153.569 7   3867500.92922        21.000           2.188
 91  5 20 19 30 15.0010000  0  5G18G16G 6G11G19
  23713344.958    15787175.888 6  12284096.64221        13.250           0.656
  23811529.177    -2977626.520 5  -2200099.55721        10.750           0.469
  23001443.099    -8530753.733 6  -6546707.81921        15.500           0.813
  23619011.653    -4630982.068 6  -3556655.63921        19.000           0.750
  21714591.333     4989519.901 7   3885708.44222        20.250           2.000
 91  5 20 19 30 30.0010000  0  5G18G16G 6G11G19
  23723972.271    15843017.760 6  12327609.64621        13.250           0.719
  23814707.731    -2960925.902 5  -2187086.13521        10.750           0.469
  22996629.536    -8556055.389 6  -6566423.34521        15.750           0.750
  23621953.614    -4615525.466 6  -3544611.53721        18.750           0.750
  21719047.052     5012942.856 7   3903960.07622        20.750           2.156
 91  5 20 19 30 45.0010000  0  5G18G16G 6G11G19
  23734607.083    15898909.024 6  12371161.14021        13.000           0.656
  23817908.271    -2944100.695 5  -2173975.65221        11.000           0.469
  22991820.606    -8581335.017 6  -6586121.70221        15.750           0.594
  23624923.841    -4599916.671 6  -3532448.85621        18.750           0.813
  21723516.708     5036422.332 7   3922255.75122        20.250           2.094
 91  5 20 19 31  0.0010000  0  5G18G16G 6G11G19
  23745251.224    15954845.230 6  12414747.65121        12.500           0.625
  23821133.474    -2927155.583 5  -2160771.71921        11.000           0.531
  22987009.364    -8606596.944 6  -6605806.28921        15.750           0.750
  23627921.599    -4584160.195 6  -3520171.08621        18.750           0.719
  21727992.966     5059953.889 7   3940592.00822        20.750           2.188
 91  5 20 19 31 15.0010000  0  5G18G16G 6G11G19
  23755905.880    16010828.506 6  12458370.83921        12.500           0.625
  23824382.599    -2910088.007 5  -2147472.36821        11.250           0.438
  22982209.841    -8631838.652 6  -6625475.11521        14.750           0.813
  23630948.060    -4568253.402 6  -3507776.19421        18.750           0.875
  21732482.474     5083540.212 7   3958970.94322        20.250           2.156
 91  5 20 19 31 30.0010000  0  5G18G16G 6G11G19
  23766567.981    16066860.935 6  12502032.33521        13.000           0.656
  23827654.794    -2892895.933 5  -2134076.01121        11.500           0.438
  22977407.153    -8657057.662 6  -6645126.25121        14.500           0.875
  23634006.130    -4552194.170 6  -3495262.51821        19.250           0.844
  21736982.919     5107183.622 7   3977394.35822        20.000           2.125
 91  5 20 19 31 45.0010000  0  5G18G16G 6G11G19
  23777239.646    16122942.785 6  12545732.33821        13.000           0.500
  23830948.192    -2875578.977 5  -2120582.32321        11.500           0.469
  22972616.036    -8682253.413 6  -6664759.25321        14.750           0.750
  23637088.591    -4535981.939 6  -3482629.62421        19.250           0.813
  21741493.716     5130884.806 7   3995862.79422        20.000           2.188
 91  5 20 19 32  0.0010000  0  5G18G16G 6G11G19
  23787921.372    16179073.903 6  12589470.74121        13.500           0.594
  23834270.364    -2858137.614 6  -2106991.71721        12.000           0.375
  22967822.669    -8707425.882 6  -6684374.12721        15.000           0.906
  23640203.356    -4519616.742 6  -3469877.53121        19.000           0.875
  21746013.778     5154643.858 7   4014376.32222        20.250           2.063
 91  5 20 19 32 15.0010000  0  5G18G16G 6G11G19
  23798611.685    16235252.258 6  12633245.96221        13.500           0.594
  23837607.552    -2840573.531 5  -2093305.46821        11.750           0.469
  22963038.771    -8732576.855 6  -6703972.24321        14.750           0.906
  23643346.974    -4503100.463 6  -3457007.71621        19.250           1.000
  21750545.528     5178459.011 7   4032933.56422        20.000           2.125
 91  5 20 19 32 30.0010000  0  5G18G16G 6G11G19
  23809311.786    16291475.127 6  12677055.85221        13.250           0.594
  23840975.544    -2822889.618 6  -2079525.85821        12.000           0.344
  22958255.544    -8757708.776 6  -6723555.53121        14.250           0.719
  23646519.271    -4486435.768 6  -3444022.25321        19.000           0.969
  21755086.606     5202327.776 7   4051532.58522        20.250           2.156
 91  5 20 19 32 45.0010000  0  5G18G16G 6G11G19
  23820018.567    16347746.285 6  12720903.36721        13.000           0.625
  23844364.747    -2805081.891 6  -2065649.74621        12.000           0.406
  22953476.903    -8782817.536 6  -6743120.75121        13.750           0.875
  23649718.333    -4469618.594 6  -3430917.96821        19.000           0.844
  21759641.567     5226254.354 7   4070176.64822        20.250           2.063
 91  5 20 19 33  0.0010000  0  5G18G16G 6G11G19
  23830735.856    16404066.342 6  12764788.97721        12.750           0.625
  23847774.606    -2787149.972 6  -2051676.87821        12.250           0.406
  22948704.747    -8807902.417 6  -6762667.37821        14.250           0.969
  23652948.169    -4452648.407 6  -3417694.46421        18.500           0.906
  21764203.872     5250239.260 7   4088866.16522        20.250           2.125
 91  5 20 19 33 15.0010000  0  5G18G16G 6G11G19
  23841460.739    16460431.513 6  12808709.73621        12.500           0.531
  23851215.036    -2769097.310 6  -2037609.92021        12.750           0.406
  22943935.192    -8832966.864 6  -6782198.07621        14.500           0.906
  23656204.786    -4435528.634 6  -3404354.38921        18.500           0.938
  21768779.396     5274279.259 7   4107598.60722        20.250           2.125
 91  5 20 19 33 30.0010000  0  5G18G16G 6G11G19
  23852196.060    16516841.324 6  12852665.29121        12.500           0.625
  23854671.489    -2750924.610 6  -2023449.43921        12.000           0.469
  22939169.974    -8858010.963 6  -6801712.92321        14.500           0.969
  23659492.481    -4418259.734 6  -3390898.11621        18.000           0.781
  21773364.630     5298374.103 7   4126373.78922        20.500           2.125
 91  5 20 19 33 45.0010000  0  5G18G16G 6G11G19
  23862939.692    16573297.996 6  12896657.35321        12.750           0.469
  23858152.036    -2732629.408 6  -2009193.50221        12.750           0.375
  22934407.544    -8883032.266 6  -6821210.01221        14.000           0.969
  23662806.481    -4400839.223 6  -3377323.69821        18.250           0.875
  21777961.614     5322526.271 7   4145193.64022        20.500           2.156
 91  5 20 19 34  0.0010000  0  5G18G16G 6G11G19
  23873692.567    16629801.574 6  12940685.98521        13.000           0.531
  23861657.974    -2714211.640 6  -1994842.03821        12.500           0.438
  22929648.927    -8908030.542 6  -6840689.14221        14.000           1.031
  23666150.481    -4383266.992 6  -3363631.06221        18.250           0.906
  21782566.888     5346736.051 7   4164058.38422        21.500           2.063
 91  5 20 19 34 15.0010000  0  5G18G16G 6G11G19
  23884454.044    16686351.174 6  12984750.45621        12.750           0.500
  23865184.114    -2695672.258 6  -1980395.82621        13.000           0.406
  22924896.005    -8933006.195 6  -6860150.66421        14.500           0.906
  23669523.724    -4365543.615 6  -3349820.65521        18.000           0.875
  21787185.083     5371002.955 7   4182967.63722        20.500           2.156
 91  5 20 19 34 30.0010000  0  5G18G16G 6G11G19
  23895222.356    16742945.516 6  13028849.80621        12.000           0.563
  23868738.630    -2677012.420 6  -1965855.76421        13.000           0.375
  22920147.755    -8957960.219 6  -6879595.32921        15.000           1.094
  23672925.075    -4347670.252 6  -3335893.36721        18.250           0.906
  21791812.278     5395325.955 7   4201920.60522        21.000           2.156
 91  5 20 19 34 45.0010000  0  5G18G16G 6G11G19
  23906000.614    16799583.987 5  13072983.53421        11.500           0.469
  23872307.763    -2658232.433 6  -1951222.05321        12.750           0.500
  22915404.130    -8982892.949 6  -6899023.39221        15.250           1.031
  23676353.817    -4329647.225 6  -3321849.47121        18.000           0.844
  21796454.411     5419705.010 7   4220917.25322        20.750           2.125
 91  5 20 19 35  0.0010000  0  5G18G16G 6G11G19
  23916789.474    16856267.091 5  13117152.03921        11.000           0.563
  23875908.146    -2639332.251 6  -1936494.70121        13.000           0.469
  22910664.802    -9007803.759 6  -6918434.37821        15.500           1.094
  23679810.700    -4311474.094 6  -3307688.60821        18.000           0.875
  21801103.286     5444140.731 7   4239958.05422        20.750           2.219
 91  5 20 19 35 15.0010000  0  5G18G16G 6G11G19
  23927585.130    16912994.380 5  13161354.96621        10.750           0.531
  23879525.505    -2620312.082 6  -1921673.85221        13.000           0.375
  22905929.224    -9032692.572 6  -6937828.22221        15.500           1.063
  23683299.161    -4293151.004 6  -3293410.88121        18.000           0.969
  21805765.497     5468632.991 7   4259042.91122        20.500           2.125
 91  5 20 19 35 30.0010000  0  5G18G16G 6G11G19
  23938385.935    16969766.135 5  13205592.53421        10.750           0.563
  23883169.427    -2601171.862 6  -1906759.45021        13.000           0.344
  22901197.372    -9057559.279 6  -6957204.83821        15.500           1.250
  23686812.396    -4274677.801 6  -3279016.18921        18.000           0.938
  21810437.403     5493181.944 7   4278171.94622        20.500           2.125
 91  5 20 19 35 45.0010000  0  5G18G16G 6G11G19
  23949199.192    17026582.918 5  13249865.19721        11.500           0.500
  23886834.153    -2581910.272 6  -1891750.47521        12.750           0.406
  22896467.458    -9082402.527 6  -6976563.18321        15.750           1.094
  23690357.153    -4256053.443 6  -3264503.71121        17.750           0.906
  21815117.747     5517788.912 7   4297346.18522        20.500           2.125
 91  5 20 19 36  0.0010000  0  5G18G16G 6G11G19
  23960018.302    17083443.990 6  13294172.37121        12.000           0.406
  23890520.763    -2562528.479 6  -1876647.83021        12.250           0.469
  22891744.903    -9107222.785 6  -6995903.61121        16.000           1.188
  23693933.419    -4237278.595 6  -3249873.97121        17.750           0.844
  21819810.458     5542453.451 7   4316565.28422        20.750           2.188
 91  5 20 19 36 15.0010000  0  5G18G16G 6G11G19
  23970847.583    17140350.142 6  13338514.68221        12.250           0.688
  23894234.497    -2543025.487 6  -1861450.76121        12.500           0.469
  22887027.013    -9132019.089 6  -7015225.37121        15.750           1.188
  23697533.935    -4218352.326 6  -3235126.24121        18.250           0.906
  21824516.935     5567176.498 7   4335829.97622        20.500           2.031
 91  5 20 19 36 30.0010000  0  5G18G16G 6G11G19
  23981684.716    17197301.513 6  13382892.22021        12.000           0.563
  23897968.192    -2523401.381 6  -1846159.30021        12.250           0.375
  22882314.106    -9156791.089 6  -7034528.19221        16.250           1.281
  23701162.731    -4199274.507 6  -3220260.42121        18.250           0.781
  21829232.169     5591958.372 7   4355140.50422        21.000           2.063
 91  5 20 19 36 45.0010000  0  5G18G16G 6G11G19
  23992531.638    17254295.421 6  13427302.90421        12.500           0.531
  23901724.310    -2503658.752 5  -1830775.49821        11.500           0.438
  22877602.356    -9181541.266 6  -7053814.00321        16.500           1.219
  23704822.856    -4180047.680 6  -3205278.48821        18.250           0.844
  21833958.427     5616796.715 7   4374495.03522        20.750           2.156
 91  5 20 19 37  0.0010000  0  5G18G16G 6G11G19
  24003385.771    17311333.256 6  13471747.81121        12.000           0.500
  23905505.114    -2483796.222 5  -1815298.27321        11.500           0.500
  22872898.669    -9206267.840 6  -7073081.43121        16.750           1.125
  23708508.177    -4160670.267 6  -3190179.21921        18.250           0.875
  21838695.802     5641693.259 7   4393894.92022        21.250           2.063
 91  5 20 19 37 15.0010000  0  5G18G16G 6G11G19
  24014248.794    17368413.348 5  13516225.65821        11.500           0.500
  23909306.138    -2463815.558 5  -1799728.97221        11.250           0.438
  22868195.442    -9230972.363 6  -7092331.67121        16.750           1.156
  23712223.935    -4141143.980 6  -3174963.94721        18.250           0.906
  21843445.169     5666646.464 7   4413338.95322        20.750           2.188
 91  5 20 19 37 30.0010000  0  5G18G16G 6G11G19
  24025118.013    17425537.596 5  13560737.89521        10.750           0.406
  23913132.497    -2443714.560 5  -1784065.93521        11.000           0.469
  22863499.856    -9255652.220 6  -7111562.69521        17.250           1.125
  23715968.856    -4121466.325 6  -3159630.71621        18.500           0.875
  21848203.060     5691658.801 7   4432829.06722        20.750           2.125
 91  5 20 19 37 45.0010000  0  5G18G16G 6G11G19
  24035997.013    17482701.726 5  13605281.21421        11.000           0.375
  23916979.396    -2423497.499 5  -1768312.44321        10.500           0.594
  22858807.903    -9280311.502 6  -7130777.68221        17.500           1.125
  23719742.849    -4101641.504 6  -3144182.82021        18.500           0.875
  21852975.466     5716726.400 7   4452362.24022        20.750           2.156
 91  5 20 19 38  0.0010000  0  5G18G16G 6G11G19
  24046883.396    17539908.321 5  13649857.60621        11.500           0.469
  23920849.380    -2403162.086 5  -1752466.73321        10.500           0.563
  22854119.919    -9304947.670 6  -7149974.65321        17.250           1.094
  23723542.005    -4081667.173 6  -3128618.40921        18.000           0.781
  21857757.060     5741851.880 7   4471940.51722        20.500           2.156
 91  5 20 19 38 15.0010000  0  5G18G16G 6G11G19
  24057776.341    17597160.348 6  13694469.42521        12.000           0.406
  23924740.153    -2382704.966 5  -1736526.16821        10.500           0.500
  22849434.388    -9329557.155 6  -7169150.83621        17.250           1.156
  23727373.153    -4061539.999 6  -3112934.90921        18.250           0.813
  21862549.685     5767038.698 7   4491566.58922        20.750           2.250
 91  5 20 19 38 30.0010000  0  5G18G16G 6G11G19
  24068679.341    17654451.043 6  13739111.36721        12.000           0.406
  23928653.911    -2362133.023 5  -1720496.15121        10.000           0.469
  22844758.052    -9354146.569 6  -7188311.38721        17.500           1.125
  23731232.208    -4041266.663 6  -3097137.50921        18.500           0.875
  21867350.950     5792280.370 7   4511235.40322        21.500           2.188
 91  5 20 19 38 45.0010000  0  5G18G16G 6G11G19
  24079590.075    17711784.821 5  13783786.87021        11.500           0.500
  23932590.435    -2341441.785 5  -1704373.16421         9.750           0.375
  22840084.771    -9378711.175 6  -7207452.60421        17.500           0.969
  23735118.333    -4020842.619 6  -3081222.67221        19.000           0.938
  21872166.864     5817581.358 7   4530950.43922        20.500           2.156
 91  5 20 19 39  0.0010000  0  5G18G16G 6G11G19
  24090507.567    17769157.393 5  13828492.60621        11.500           0.531
  23936552.724    -2320635.776 5  -1688160.76121        10.000           0.500
  22835411.356    -9403255.015 6  -7226577.64521        17.250           1.063
  23739033.317    -4000272.151 6  -3065193.74821        19.750           0.844
  21876992.935     5842937.714 7   4550708.62122        20.000           2.094
 91  5 20 19 39 15.0010000  0  5G18G16G 6G11G19
  24101433.099    17826572.171 5  13873231.23121        11.250           0.469
  23940536.138    -2299710.874 5  -1671855.70821        10.000           0.500
  22830745.903    -9427774.180 6  -7245683.44221        17.250           1.063
  23742974.622    -3979551.525 6  -3049047.81921        19.000           0.781
  21881829.271     5868353.357 7   4570512.99722        20.250           2.125
 91  5 20 19 39 30.0010000  0  5G18G16G 6G11G19
  24112366.177    17884030.903 5  13918004.09621        10.750           0.500
  23944539.677    -2278666.013 5  -1655457.16921         9.750           0.406
  22826086.177    -9452266.838 6  -7264768.59321        17.250           0.938
  23746946.036    -3958679.066 6  -3032783.57321        18.750           0.875
  21886676.880     5893830.031 7   4590364.92822        20.250           2.031
 91  5 20 19 39 45.0010000  0  5G18G16G 6G11G19
  24123308.614    17941527.042 5  13962806.10921        11.000           0.500
  23948564.411    -2257507.868 5  -1638970.36821         9.750           0.500
  22821429.583    -9476739.249 6  -7283837.97221        16.750           1.063
  23750945.294    -3937661.217 6  -3016406.03221        18.750           0.813
  21891534.536     5919361.493 7   4610259.56022        20.750           2.094
 91  5 20 19 40  0.0010000  0  5G18G16G 6G11G19
  24134257.989    17999061.434 5  14007637.94221        10.750           0.406
  23952615.317    -2236235.258 5                         9.750
  22816776.685    -9501190.116 6  -7302890.55621        16.500           0.906
  23754974.810    -3916496.782 6                        18.750
  21896402.091     5944948.906 7   4630197.78522        21.250           2.125
 91  5 20 19 40 15.0010000  0  5G18G16G 6G11G19
  24145215.294    18056638.005 5  14052502.62321        11.000           0.500
  23956682.513    -2214844.291 5                         9.750
  22812129.771    -9525615.451 6  -7321923.25221        16.500           0.875
  23759030.208    -3895182.032 6                        18.750
  21901284.841     5970596.359 7   4650182.79122        20.250           2.250
 91  5 20 19 40 30.0010000  0  5G18G16G 6G11G19
  24156178.419    18114252.929 5  14097397.22221        11.000           0.344
  23960777.356    -2193338.945 5                         9.750
  22807483.919    -9550018.633 6  -7340938.68721        16.250           0.875
  23763113.724    -3873720.546 6                        19.000
  21906178.341     5996300.505 7   4670211.97722        20.000           2.188
 91  5 20 19 40 45.0010000  0  5G18G16G 6G11G19
  24167149.208    18171909.846 5  14142324.52621        10.250           0.313
  23964891.677    -2171715.044 5                         9.500
  22802846.356    -9574395.605 6  -7359933.70021        16.000           0.969
  23767225.942    -3852108.284 6                        19.000
  21911080.692     6022065.525 7   4690288.59622        20.250           2.281
 91  5 20 19 41  0.0010000  0  5G18G16G 6G11G19
  24178127.653    18229605.629 5  14187282.11721        10.000           0.406
  23969025.310    -2149975.903 5                         9.250
  22798212.286    -9598749.161 6  -7378910.45421        16.250           0.938
  23771369.583    -3830348.357 6                        19.250
  21915994.630     6047888.332 6   4710410.23922        19.750           2.125
 91  5 20 19 41 15.0010000  0  5G18G16G 6G11G19
  24189113.880    18287337.884 5  14232268.10721        10.000           0.438
  23973186.013    -2128124.243 5                         9.250
  22793579.888    -9623081.755 6  -7397870.88021        16.000           0.969
  23775535.200    -3808443.305 6                        19.000
  21920919.153     6073766.749 7   4730575.21922        20.500           2.156
 91  5 20 19 41 30.0010000  0  5G18G16G 6G11G19
  24200108.255    18345108.661 5  14277284.14421        10.000           0.375
  23977366.310    -2106157.843 5  -1521035.70821         8.750           0.500
  22788954.021    -9647390.974 6  -7416813.09221        15.750           0.938
  23779732.685    -3786390.967 6  -2898533.20621        19.250           0.875
  21925854.950     6099703.095 6   4750785.33822        19.750           2.250
 91  5 20 19 41 45.0010000  0  5G18G16G 6G11G19
  24211111.396    18402919.565 5  14322331.43121        10.250           0.438
  23981568.919    -2084074.686 5  -1503828.11921         9.000           0.469
  22784331.521    -9671674.492 6  -7435735.28121        15.500           0.875
  23783956.567    -3764189.187 6  -2881233.13421        19.500           0.875
  21930800.966     6125699.680 7   4771042.39022        20.750           2.125
 91  5 20 19 42  0.0010000  0  5G18G16G 6G11G19
  24222118.583    18460768.870 5  14367408.64321         9.750           0.313
  23985793.060    -2061876.887 5  -1486531.19321         8.500           0.344
  22779716.247    -9695934.014 6  -7454638.77221        15.750           0.906
  23788210.403    -3741839.751 6  -2863817.99921        19.000           0.781
  21935755.489     6151754.814 7   4791345.07422        21.500           2.125
 91  5 20 19 42 15.0010000  0  5G18G16G 6G11G19
  24233131.185    18518652.739 5  14412512.76921         9.750           0.375
  23990039.067    -2039568.244 5  -1469147.90521         8.500           0.438
  22775104.185    -9720172.974 6  -7473526.24421        15.500           0.906
  23792490.606    -3719346.388 6  -2846290.72621        19.000           0.875
  21940727.591     6177865.046 7   4811690.68522        20.500           2.188
 91  5 20 19 42 30.0010000  0  5G18G16G 6G11G19
  24244156.521    18576572.717 5  14457645.03721        10.000           0.406
  23994302.560    -2017147.012 5  -1451676.87321         8.250           0.344
  22770495.310    -9744389.455 6  -7492396.19521        15.750           0.844
  23796798.052    -3696707.476 6  -2828650.03021        19.000           0.938
  21945705.067     6204032.094 7   4832080.57422        21.000           2.219
 91  5 20 19 42 45.0010000  0  5G18G16G 6G11G19
  24255183.903    18634530.395 5  14502806.69721        10.500           0.438
  23998592.114    -1994611.950 5  -1434117.15721         8.250           0.438
  22765892.747    -9768582.050 6  -7511247.52821        16.500           0.906
  23801135.091    -3673921.542 6  -2810894.77621        18.750           0.813
  21950697.286     6230257.552 7   4852515.98122        20.500           2.188
 91  5 20 19 43  0.0010000  0  5G18G16G 6G11G19
  24266220.700    18692524.153 5  14547996.46121        10.750           0.469
  24002901.153    -1971964.735 5  -1416470.02121         8.500           0.469
  22761292.802    -9792751.692 6  -7530080.98521        15.750           0.844
  23805498.474    -3650989.995 6  -2793026.06221        18.500           0.875
  21955697.638     6256540.391 7   4872996.09222        21.000           2.125
 91  5 20 19 43 15.0010000  0  5G18G16G 6G11G19
  24277262.060    18750549.985 5  14593211.22621        11.000           0.344
  24007233.208    -1949208.827 5  -1398738.21621         9.000           0.406
  22756695.560    -9816901.865 6  -7548899.27321        15.750           0.844
  23809890.075    -3627916.410 6  -2775046.65521        18.500           0.938
  21960709.935     6282877.137 7   4893518.21022        20.500           2.125
 91  5 20 19 43 30.0010000  0  5G18G16G 6G11G19
  24288312.052    18808610.300 5  14638452.87321        11.250           0.500
  24011587.294    -1926341.978 5  -1380919.95621         9.000           0.406
  22752105.021    -9841030.145 6  -7567700.50321        16.250           0.844
  23814307.927    -3604698.474 6  -2756954.77421        18.750           0.938
  21965731.450     6309270.305 7   4914084.29422        20.250           2.031
 91  5 20 19 43 45.0010000  0  5G18G16G 6G11G19
  24299366.622    18866707.382 5  14683723.14121        11.250           0.469
  24015958.200    -1903362.087 5  -1363013.61121         9.000           0.531
  22747517.716    -9865133.864 6  -7586482.58221        16.500           1.031
  23818752.169    -3581333.865 6  -2738748.61021        18.500           0.906
  21970767.442     6335722.443 7   4934696.32722        20.250           2.094
 91  5 20 19 44  0.0010000  0  5G18G16G 6G11G19
  24310430.505    18924838.565 5  14729019.98821        11.250           0.438
  24020349.755    -1880271.759 5  -1345021.20421         9.250           0.563
  22742937.653    -9889215.535 6  -7605247.49021        16.500           1.031
  23823227.825    -3557825.176 6  -2720430.17121        18.500           0.844
  21975811.310     6362231.138 7   4955352.43022        20.000           2.156
 91  5 20 19 44 15.0010000  0  5G18G16G 6G11G19
  24321497.614    18983003.810 5  14774343.38021        10.500           0.313
  24024766.794    -1857071.116 5  -1326942.83721         9.250           0.438
  22738356.692    -9913274.681 6  -7623994.84221        16.250           1.000
  23827729.286    -3534172.293 6  -2701999.36921        18.750           0.844
  21980866.028     6388796.594 7   4976052.76022        20.250           2.125
 91  5 20 19 44 30.0010000  0  5G18G16G 6G11G19
  24332572.099    19041204.001 5  14819694.00221        10.250           0.438
  24029202.872    -1833759.362 5  -1308777.89721         9.250           0.594
  22733783.310    -9937310.099 6  -7642723.69921        16.500           1.031
  23832257.427    -3510374.257 6  -2683455.46821        18.500           0.906
  21985930.739     6415420.139 7   4996798.35122        20.750           2.156
 91  5 20 19 44 45.0010000  0  5G18G16G 6G11G19
  24343654.653    19099439.265 5  14865071.94821        10.000           0.406
  24033660.950    -1810336.516 5  -1290526.39821         9.250           0.469
  22729216.278    -9961321.680 6  -7661433.97221        17.000           1.031
  23836812.794    -3486431.100 6  -2664798.48921        18.250           0.938
  21991009.841     6442101.944 7   5017589.34322        20.250           2.094
 91  5 20 19 45  0.0010000  0  5G18G16G 6G11G19
  24354742.419    19157707.353 5  14910475.46721        10.000           0.344
  24038138.161    -1786804.462 5  -1272189.80221         9.500           0.531
  22724649.810    -9985310.942 6  -7680126.89621        17.500           1.000
  23841395.294    -3462344.657 6  -2646029.85821        18.000           0.875
  21996097.622     6468840.230 7   5038424.34722        20.750           2.063
 91  5 20 19 45 15.0010000  0  5G18G16G 6G11G19
  24365838.013    19216007.346 5  14955903.83921        10.000           0.375
  24042637.935    -1763163.939 5  -1253768.68321         9.500           0.625
  22720088.028   -10009278.796 6  -7698803.11421        17.250           1.094
  23846009.153    -3438115.923 6  -2627150.33921        18.500           0.875
  22001195.286     6495634.234 7   5059302.76422        20.250           2.156
 91  5 20 19 45 30.0010000  0  5G18G16G 6G11G19
  24376936.981    19274339.731 5  15001357.47621        10.000           0.281
  24047154.747    -1739414.750 5  -1235262.88621         9.250           0.594
  22715531.825   -10033224.282 6  -7717461.89321        17.000           1.031
  23850645.349    -3413744.204 6  -2608159.41621        18.250           0.938
  22006306.083     6522484.872 7   5080225.31722        20.500           2.063
 91  5 20 19 45 45.0010000  0  5G18G16G 6G11G19
  24388045.310    19332708.925 5  15046839.79721         9.750           0.313
  24051698.560    -1715552.634 5  -1216669.08721         9.250           0.531
  22710980.419   -10057142.782 6  -7736099.65021        17.750           1.125
  23855309.286    -3389225.020 6  -2589053.58121        18.250           0.938
  22011427.341     6549396.829 6   5101195.64222        19.750           2.094
 91  5 20 19 46  0.0010000  0  5G18G16G 6G11G19
  24399157.731    19391109.751 5  15092346.74721         9.750           0.375
  24056258.614    -1691582.346 5  -1197991.00521         9.250           0.469
  22706434.169   -10081039.137 6  -7754720.16721        18.250           1.094
  23860004.200    -3364563.389 6  -2569836.74121        18.000           0.875
  22016559.989     6576365.363 7   5122210.05522        20.000           2.000
 91  5 20 19 46 15.0010000  0  5G18G16G 6G11G19
  24410278.677    19449544.669 5  15137880.26721         9.750           0.375
  24060842.747    -1667502.006 5  -1179227.18621         9.000           0.625
  22701891.114   -10104910.631 6  -7773321.29721        18.000           1.250
  23864725.552    -3339756.930 6  -2550507.05221        18.250           0.844
  22021702.513     6603392.970 7   5143270.49722        20.000           2.125
 91  5 20 19 46 30.0010000  0  5G18G16G 6G11G19
  24421405.849    19508014.223 5  15183440.77921         9.750           0.438
  24065443.224    -1643310.563 5  -1160376.77521         8.500           0.656
  22697353.271   -10128756.108 6  -7791902.15421        17.750           1.281
  23869471.208    -3314804.675 6  -2531063.75421        18.250           0.875
  22026856.224     6630480.837 7   5164377.90122        20.750           2.031
 91  5 20 19 46 45.0010000  0  5G18G16G 6G11G19
  24432537.731    19566516.664 5  15229026.91421         9.500           0.438
  24070068.403    -1619010.047 5  -1141441.37821         8.750           0.625
  22692820.153   -10152577.238 6  -7810464.03621        18.250           1.219
  23874250.153    -3289708.687 6  -2511508.46321        18.000           0.906
  22032023.622     6657627.116 7   5185530.81022        20.000           2.031
 91  5 20 19 47  0.0010000  0  5G18G16G 6G11G19
  24443676.419    19625053.493 5  15274639.84621         9.250           0.344
  24074710.169    -1594599.054 5  -1122419.90021         8.250           0.625
  22688293.138   -10176372.591 6  -7829005.83721        18.500           1.156
  23879052.419    -3264467.590 6  -2491840.09821        18.250           1.000
  22037198.739     6684833.482 7   5206730.54422        20.000           1.906
 91  5 20 19 47 15.0010000  0  5G18G16G 6G11G19
  24454821.575    19683621.251 5  15320276.87621         9.750           0.406
  24079381.364    -1570081.107 5  -1103315.07821         9.000           0.563
  22683769.739   -10200144.790 6  -7847529.61421        18.000           1.188
  23883879.935    -3239084.420 6  -2472061.02021        18.000           1.000
  22042389.013     6712097.101 6   5227974.88722        19.750           2.000
 91  5 20 19 47 30.0010000  0  5G18G16G 6G11G19
  24465974.091    19742222.066 5  15365939.66321         9.750           0.406
  24084069.638    -1545453.753 5  -1084124.99921         9.000           0.500
  22679249.833   -10223891.388 6  -7866033.41721        18.000           1.219
  23888739.489    -3213556.727 6  -2452169.34121        18.250           1.031
  22047587.981     6739420.546 7   5249265.85422        20.000           2.000
 91  5 20 19 47 45.0010000  0  5G18G16G 6G11G19
  24477133.075    19800853.247 5  15411626.10821        10.000           0.406
  24088772.364    -1520719.911 5  -1064851.94821         9.250           0.594
  22674736.075   -10247614.800 6  -7884519.15921        18.500           1.188
  23893623.552    -3187887.223 6  -2432167.16021        18.000           0.844
  22052799.567     6766801.298 6   5270601.46822        19.250           1.906
 91  5 20 19 48  0.0010000  0  5G18G16G 6G11G19
  24488296.114    19859517.525 5  15457338.36121         9.500           0.375
  24093500.896    -1495877.055 5  -1045493.95121         9.750           0.594
  22670223.942   -10271312.304 6  -7902984.71621        18.750           1.219
  23898535.747    -3162073.390 6  -2412052.49221        18.500           1.000
  22058020.161     6794241.960 6   5291983.77222        18.750           1.969
 91  5 20 19 48 15.0010000  0  5G18G16G 6G11G19
  24499464.614    19918213.091 5  15503074.94721        10.000           0.344
  24098249.216    -1470926.822 5  -1026052.27221        10.000           0.625
  22665721.130   -10294985.083 6  -7921431.01021        18.500           1.281
  23903475.622    -3136116.661 6  -2391826.49921        18.000           0.938
  22063253.622     6821741.422 6   5313411.88922        18.750           2.000
 91  5 20 19 48 30.0010000  0  5G18G16G 6G11G19
  24510636.817    19976938.941 5  15548835.18821         9.500           0.313
  24103018.716    -1445870.190 5  -1006527.69021        10.250           0.625
  22661219.575   -10318633.770 6  -7939858.52421        18.250           1.250
  23908442.013    -3110018.096 6  -2371489.98321        17.750           0.906
  22068496.591     6849298.917 6   5334885.23422        19.000           2.094
 91  5 20 19 48 45.0010000  0  5G18G16G 6G11G19
  24521819.942    20035697.865 5  15594621.17721         9.750           0.344
  24107807.060    -1420704.442 5   -986918.09221        10.250           0.625
  22656723.927   -10342255.337 6  -7958264.91021        18.500           1.250
  23913435.481    -3083774.705 6  -2351040.60521        17.750           0.875
  22073754.786     6876917.670 6   5356406.30822        18.750           2.094
 91  5 20 19 49  0.0010000  0  5G18G16G 6G11G19
  24533008.958    20094491.387 5  15640434.12021         9.250           0.313
  24112616.817    -1395427.861 5   -967222.11921        10.250           0.625
  22652236.192   -10365848.110 6  -7976648.86221        19.250           1.375
  23918456.872    -3057385.052 6  -2330477.26321        18.000           0.906
  22079019.278     6904599.270 6   5377976.34622        18.750           2.031
 91  5 20 19 49 15.0010000  0  5G18G16G 6G11G19
  24544203.497    20153312.850 5  15686268.83121         9.250           0.250
  24117444.060    -1370047.159 5   -947445.04121        10.500           0.594
  22647751.489   -10389418.332 6  -7995015.23721        18.500           1.438
  23923507.888    -3030855.654 6  -2309805.01321        18.250           1.000
  22084297.692     6932337.345 6   5399590.39822        18.750           2.063
 91  5 20 19 49 30.0010000  0  5G18G16G 6G11G19
  24555403.497    20212165.461 5  15732127.82621         8.750           0.281
  24122297.356    -1344559.547 5   -927584.62821        10.500           0.594
  22643269.208   -10412962.306 6  -8013361.15221        18.250           1.281
  23928582.872    -3004183.186 6  -2289021.30021        18.250           0.906
  22089586.833     6960135.548 6   5421251.29622        19.250           2.094
 91  5 20 19 49 45.0010000  0  5G18G16G 6G11G19
  24566606.653    20271046.782 5  15778009.18221         9.000           0.219
  24127166.060    -1318967.141 5   -907642.56921        10.750           0.625
  22638795.028   -10436482.248 6  -8031688.35121        18.500           1.250
  23933683.388    -2977369.989 6  -2268127.91121        18.250           0.906
  22094891.474     6987991.771 6   5442957.40822        19.000           2.063
 91  5 20 19 50  0.0010000  0  5G18G16G 6G11G19
  24577815.271    20329956.667 5  15823912.80621         8.250           0.219
  24132058.044    -1293270.263 5   -887619.08421        10.750           0.656
  22634323.317   -10459977.959 6  -8049996.67621        19.250           1.344
  23938813.700    -2950416.207 6  -2247124.98821        18.000           1.000
  22100199.810     7015906.072 6   5464708.77822        19.000           2.063
 91  5 20 19 50 15.0010000  0  5G18G16G 6G11G19
  24589033.013    20388898.689 5  15869841.44921         8.250           0.313
  24136966.060    -1267465.123 5   -867511.28221        10.750           0.500
  22629856.544   -10483445.632 6  -8068283.14121        18.250           1.375
  23943970.708    -2923318.226 6  -2226009.68921        18.500           0.938
  22105525.989     7043882.266 6   5486508.37222        18.750           1.938
 91  5 20 19 50 30.0010000  0  5G18G16G 6G11G19
  24600253.481    20447867.262 5  15915790.79821         8.500           0.219
  24141896.794    -1241557.576 5   -847323.65021        11.250           0.531
  22625396.106   -10506890.442 6  -8086551.78122        18.500           1.500
  23949153.521    -2896081.680 6  -2204786.43021        18.750           0.844
  22110861.536     7071915.090 6   5508352.09922        18.500           1.875
 91  5 20 19 50 45.0010000  0  5G18G16G 6G11G19
  24611481.231    20506863.416 5  15961761.66121         9.000           0.344
  24146845.247    -1215546.752 5   -827055.55321        11.000           0.625
  22620938.442   -10530311.308 6  -8104801.76921        19.000           1.219
  23954363.497    -2868705.520 6  -2183454.38621        18.500           0.813
  22116205.146     7100005.697 6   5530240.84922        18.250           1.969
 91  5 20 19 51  0.0010000  0  5G18G16G 6G11G19
  24622713.958    20565887.817 5  16007754.50721         9.750           0.281
  24151816.216    -1189431.380 5   -806705.98221        11.000           0.563
  22616487.474   -10553706.838 6  -8123032.03321        18.750           1.188
  23959598.278    -2841188.665 6  -2162012.69321        18.500           1.000
  22121558.763     7128155.298 6   5552175.57222        18.750           1.938
 91  5 20 19 51 15.0010000  0  5G18G16G 6G11G19
  24633951.481    20624939.815 5  16053768.86421         9.500           0.281
  24156804.560    -1163212.246 5   -786275.57021        11.250           0.594
  22612040.247   -10577077.446 6  -8141242.86521        18.000           1.313
  23964861.700    -2813531.645 6  -2140461.78221        18.500           0.938
  22126932.216     7156363.606 6   5574156.03622        18.250           1.875
 91  5 20 19 51 30.0010000  0  5G18G16G 6G11G19
  24645193.333    20684019.974 5  16099805.15721         9.750           0.188
  24161815.567    -1136889.173 5   -765764.15921        11.500           0.469
  22607597.169   -10600422.445 6  -8159433.73221        18.750           1.313
  23970151.747    -2785734.136 6  -2118801.39721        18.250           0.844
  22132309.458     7184631.270 6   5596182.74822        18.000           1.938
 91  5 20 19 51 45.0010000  0  5G18G16G 6G11G19
  24656440.614    20743124.985 5  16145860.84021         9.000           0.250
  24166846.099    -1110465.718 5   -745174.52721        11.750           0.531
  22603160.708   -10623744.766 6  -8177606.93721        18.500           1.219
  23975469.685    -2757799.387 6  -2097034.07121        18.000           0.844
  22137697.935     7212955.246 6   5618253.33922        17.750           1.906
 91  5 20 19 52  0.0010000  0  5G18G16G 6G11G19
  24667693.216    20802257.720 5  16191938.07321         9.250           0.406
  24171890.638    -1083938.761 5   -724504.25321        11.500           0.500
  22598724.685   -10647041.070 6  -8195759.87321        18.250           1.313
  23980809.481    -2729724.304 6  -2075157.41021        17.750           0.844
  22143100.497     7241338.878 6   5640370.42222        18.000           1.938
 91  5 20 19 52 15.0010000  0  5G18G16G 6G11G19
  24678951.005    20861417.713 5  16238036.57921         8.250           0.281
  24176959.052    -1057308.837 5   -703753.73821        11.500           0.563
  22594298.224   -10670311.589 6  -8213892.71321        17.750           1.094
  23986180.021    -2701509.409 6  -2053171.80421        17.500           0.844
  22148514.622     7269781.954 6   5662533.82122        18.750           1.875
 91  5 20 19 52 30.0010000  0  5G18G16G 6G11G19
  24690212.380    20920602.230 5  16284154.20121         8.250           0.219
  24182046.255    -1030578.648 5   -682925.08621        11.750           0.563
  22589873.950   -10693558.615 6  -8232007.24221        18.500           1.156
  23991573.567    -2673157.366 6  -2031079.32221        17.250           0.875
  22153934.560     7298282.045 6   5684741.64422        19.000           1.906
 91  5 20 19 52 45.0010000  0  5G18G16G 6G11G19
  24701480.481    20979818.873 4  16330296.83321         6.750           0.313
  24187150.864    -1003740.688 5   -662012.47821        11.500           0.594
  22585457.341   -10716774.377 6  -8250097.41121        18.750           1.250
  23996996.271    -2644660.520 6                        17.250
  22159373.481     7326846.962 6                        18.500
 91  5 20 19 53  0.0010000  0  5G18G16G 6G11G19
  24712756.294    21039061.474 4  16376459.68821         7.250           0.406
  24192277.700     -976801.486 5   -641020.96521        11.250           0.500
  22581043.091   -10739964.923 6  -8268167.93821        18.250           1.156
  24002446.700    -2616025.257 6                        17.250
  22164820.716     7355470.601 6                        18.000
 91  5 20 19 53 15.0010000  0  5G18G16G 6G11G19
  24724034.646    21098327.405 4  16422640.72821         6.250           0.375
  24197424.442     -949763.179 5   -619952.23121        11.250           0.531
  22576634.661   -10763132.132 6  -8286220.26921        18.000           1.250
  24007921.138    -2587253.827 6  -1964141.55921        17.500           1.063
  22170276.560     7384150.877 6   5751652.31622        18.000           1.875
 91  5 20 19 53 30.0010000  0  5G18G16G 6G11G19
  24735319.708    21157617.380 4  16468840.48621         7.000           0.406
  24202589.278     -922625.335 5   -598805.93821        11.250           0.438
  22572231.521   -10786275.091 6  -8304253.70021        18.750           1.156
  24013422.419    -2558345.559 6  -1941615.65621        16.750           0.906
  22175746.317     7412888.748 6   5774045.42722        17.750           1.813
 91  5 20 19 53 45.0010000  0  5G18G16G 6G11G19
  24746605.474    21216933.626 4  16515060.73121         6.500           0.344
  24207775.380     -895385.620 5   -577580.25921        11.250           0.563
  22567832.122   -10809391.317 6  -8322266.31321        18.500           1.313
  24018949.810    -2529297.994 6  -1918981.20821        17.250           1.000
  22181225.997     7441686.848 6   5796485.47022        18.000           1.813
 91  5 20 19 54  0.0010000  0  5G18G16G 6G11G19
  24757896.669    21276272.029 4  16561298.24621         6.750           0.344
  24212975.505     -868048.066 5   -556278.34921        11.250           0.594
  22563437.231   -10832484.436 6  -8340260.92121        18.250           1.219
  24024504.067    -2500115.433 6  -1896241.57521        16.750           0.969
  22186717.739     7470541.233 6   5818969.37022        17.750           1.938
 91  5 20 19 54 15.0010000  0  5G18G16G 6G11G19
  24769194.169    21335635.686 4  16607555.42321         6.750           0.313
  24218197.317     -840609.846 5   -534897.99221        11.250           0.469
  22559047.599   -10855551.332 6  -8358235.08221        18.250           1.063
  24030082.497    -2470794.744 6  -1873394.32021        16.500           0.938
  22192218.708     7499455.471 6   5841499.90722        18.000           1.813
 91  5 20 19 54 30.0010000  0  5G18G16G 6G11G19
  24780496.614    21395022.871 5  16653830.94321         7.750           0.313
  24223436.708     -813072.651 5   -513440.52121        11.500           0.500
  22554662.802   -10878592.947 6  -8376189.54821        19.000           1.219
  24035686.896    -2441337.279 6  -1850440.48021        15.750           0.813
  22197730.114     7528428.226 6   5864076.04322        18.750           1.844
 91  5 20 19 54 45.0010000  0  5G18G16G 6G11G19
  24791801.497    21454432.519 5  16700123.99221         7.500           0.281
  24228695.606     -785437.598 5   -491906.79721        11.750           0.563
  22550283.497   -10901610.177 6  -8394125.02421        18.500           1.156
  24041320.403    -2411744.277 6  -1827381.00721        16.500           0.969
  22203255.091     7557458.539 6   5886697.02822        17.750           1.781
 91  5 20 19 55  0.0010000  0  5G18G16G 6G11G19
  24803108.872    21513865.878 5  16746435.48621         8.000           0.281
  24233973.052     -757703.690 5   -470296.03021        11.500           0.500
  22545906.841   -10924601.795 6  -8412040.54021        18.250           1.156
  24046977.294    -2382014.716 6  -1804215.14021        16.250           1.031
  22208791.255     7586547.561 6   5909363.76222        18.250           1.750
 91  5 20 19 55 15.0010000  0  5G18G16G 6G11G19
  24814424.817    21573320.496 5  16792763.55721         8.500           0.219
  24239266.747     -729873.268 5   -448610.07621        11.250           0.500
  22541536.216   -10947569.600 6  -8429937.49121        18.750           1.125
  24052659.536    -2352150.606 6  -1780944.42421        15.750           0.906
  22214339.138     7615693.623 6   5932074.94322        17.750           1.781
 91  5 20 19 55 30.0010000  0  5G18G16G 6G11G19
  24825744.708    21632796.924 5  16839108.64321         9.000           0.188
  24244584.950     -701945.561 5   -426848.29721        11.500           0.531
  22537171.778   -10970512.635 6  -8447815.15221        18.500           1.156
  24058370.200    -2322151.292 6  -1757568.35821        16.250           0.969
  22219894.364     7644897.639 6   5954831.28522        18.250           1.781
 91  5 20 19 55 45.0010000  0  5G18G16G 6G11G19
  24837064.450    21692296.270 5  16885471.57221         9.250           0.188
  24249916.481     -673919.562 5   -405009.94621        11.000           0.406
  22532809.638   -10993429.514 6  -8465672.43221        18.500           1.031
  24064102.731    -2292015.853 6  -1734086.22321        16.000           1.031
  22225464.661     7674160.655 6   5977633.59922        18.250           1.844
 91  5 20 19 56  0.0010000  0  5G18G16G 6G11G19
  24848389.310    21751814.945 5  16931849.55621         9.000           0.188
  24255268.778     -645799.043 5   -383097.94021        11.000           0.281
  22528453.442   -11016323.662 6  -8483511.99921        18.750           1.156
  24069862.974    -2261747.912 6  -1710500.84721        15.500           0.938
  22231043.052     7703479.417 6   6000479.35322        18.500           1.750
 91  5 20 19 56 15.0010000  0  5G18G16G 6G11G19
  24859721.310    21811357.621 5  16978246.27821         9.000           0.188
  24260639.028     -617579.538 5   -361108.79521        11.000           0.344
  22524101.536   -11039189.977 6  -8501329.87921        18.750           1.188
  24075647.958    -2231342.725 6  -1686808.51921        16.000           1.000
  22236634.231     7732858.889 6   6023372.41922        18.000           1.625
 91  5 20 19 56 30.0010000  0  5G18G16G 6G11G19
  24871055.028    21870921.451 5  17024659.45521         8.500           0.156
  24266026.341     -589264.001 5   -339044.81121        10.750           0.406
  22519755.833   -11062031.009 6  -8519128.05321        18.750           1.188
  24081461.200    -2200803.150 6  -1663011.47121        15.750           0.938
  22242236.692     7762296.438 6   6046310.72922        17.750           1.781
 91  5 20 19 56 45.0010000  0  4G16G 6G11G19
  24271433.755     -560854.228 5   -316907.41221        10.250           0.250
  22515413.106   -11084848.652 6  -8536908.00721        19.000           1.125
  24087295.896    -2170131.191 6  -1639111.26421        15.000           0.906
  22247849.114     7791790.428 6   6069293.02722        18.250           1.781
 91  5 20 19 57  0.0010000  0  4G16G 6G11G19
  24276857.122     -532346.977 5   -294694.03621        10.500           0.281
  22511075.591   -11107639.084 6  -8554666.75821        19.000           1.156
  24093160.075    -2139323.395 6  -1615105.22521        15.000           0.844
  22253472.403     7821344.610 6   6092322.22522        18.750           1.844
 91  5 20 19 57 15.0010000  0  4G16G 6G11G19
  24282301.700     -503740.678 5   -272403.48521        10.250           0.281
  22506745.200   -11130399.983 6  -8572402.49421        19.000           1.125
  24099048.122    -2108377.866 6  -1590991.84621        15.250           0.906
  22259108.075     7850960.908 6   6115399.82422        18.250           1.719
 91  5 20 19 57 30.0010000  0  4G16G 6G11G19
  24287763.122     -475040.875 5   -250040.09721        10.500           0.250
  22502419.091   -11153136.775 6  -8590119.44621        19.750           1.094
  24104961.091    -2077300.327 6  -1566775.60021        15.500           0.906
  22264753.513     7880634.107 6   6138521.76422        18.500           1.781
 91  5 20 19 57 45.0010000  0  4G16G 6G11G19
  24293241.192     -446249.452 5   -227605.28621        10.500           0.250
  22498097.317   -11175850.821 6  -8607818.67021        19.500           1.031
  24110900.771    -2046092.460 6  -1542457.80321        15.250           0.906
  22270412.427     7910362.771 6   6161686.92322        18.500           1.719
 91  5 20 19 58  0.0010000  0  5G 2G16G 6G11G19
  21331191.192          -0.08418                        29.000
  24298738.974     -417362.951 5   -205096.40621        11.000           0.219
  22493778.606   -11198538.380 6  -8625497.26321        19.250           1.219
  24116866.505    -2014750.905 6  -1518035.84321        15.750           0.813
  22276079.224     7940150.441 6   6184898.06222        19.000           1.719
 91  5 20 19 58 15.0010000  0  5G 2G16G 6G11G19
  21329166.810      -10640.689 8                        29.250
  24304251.310     -388383.052 5   -182514.76121        10.750           0.281
  22489466.614   -11221200.812 6  -8643156.27521        19.250           1.125
  24122853.489    -1983277.130 6  -1493510.85221        15.750           0.844
  22281759.200     7969995.746 6   6208154.10922        18.500           1.719
 91  5 20 19 58 30.0010000  0  5G 2G16G 6G11G19
  21327157.372      -21197.913 8        -0.25233        29.250           3.375
  24309786.583     -359309.972 5   -159860.48121        11.000           0.281
  22485158.927   -11243837.778 6  -8660795.44521        19.000           1.188
  24128865.755    -1951671.163 6  -1468882.83221        15.250           0.875
  22287451.208     7999898.935 6   6231455.26322        18.500           1.750
 91  5 20 19 58 45.0010000  0  5G 2G16G 6G11G19
  21325163.810      -31672.132 8     -8161.96423        29.000           3.375
  24315335.997     -330144.454 5   -137134.18621        10.750           0.281
  22480855.200   -11266449.855 6  -8678415.21621        19.250           1.125
  24134908.052    -1919933.843 6  -1444152.46921        15.750           0.781
  22293152.372     8029859.637 6   6254801.23222        18.500           1.781
 91  5 20 19 59  0.0010000  0  4G16G 6G11G19
  24320904.177     -300886.603 5   -114335.94321        10.500           0.188
  22476557.505   -11289036.502 6  -8696015.17921        19.500           1.125
  24140973.950    -1888065.188 6  -1419319.79121        15.000           0.750
  22298862.200     8059878.225 6   6278192.30622        18.500           1.719
 91  5 20 19 59 15.0010000  0  4G16G 6G11G19
  24326490.153     -271534.156 5    -91463.99321        10.500           0.313
  22472264.692   -11311595.121 6  -8713593.29921        19.000           1.156
  24147063.997    -1856062.891 6  -1394382.95721        15.250           0.844
  22304587.005     8089957.049 6   6301630.31822        18.250           1.719
 91  5 20 19 59 30.0010000  0  4G16G 6G11G19
  24332091.271     -242090.767 5    -68521.18321        10.250           0.188
  22467976.466   -11334129.184 6  -8731152.28421        19.000           1.094
  24153176.239    -1823930.555 6  -1369344.79021        15.500           0.656
  22310321.661     8120092.821 6   6325112.69922        18.500           1.750
 91  5 20 19 59 45.0010000  0  5G 2G16G 6G11G19
  21317350.458          -0.83618                        29.500
  24337710.786     -212556.501 5    -45507.52421         9.000           0.250
  22463693.286   -11356638.431 6  -8748691.93021        19.000           1.219
  24159315.716    -1791668.253 6  -1344205.35821        15.250           0.781
  22316068.528     8150285.791 6   6348639.65822        18.750           1.594
 91  5 20 20  0  0.0010000  0  5G 2G16G 6G11G19
  21315437.567      -10055.048 8                        29.250
  24343351.833     -182928.336 5    -22420.73521         9.250           0.281
  22459415.528   -11379119.057 6  -8766209.27721        19.250           1.250
  24165482.638    -1759272.643 6  -1318962.04221        15.250           0.750
  22321822.833     8180539.569 6   6372214.00122        18.750           1.594
 91  5 20 20  0 15.0010000  0  5G 2G16G 6G11G19
  21313539.833      -20027.048 8        -0.00734        29.250           3.563
  24349005.317     -153210.334 5       736.04621         8.500           0.188
  22455142.021   -11401574.740 6  -8783707.18521        19.250           1.188
  24171670.294    -1726747.697 6  -1293617.95021        15.500           0.875
  22327592.224     8210850.246 6   6395832.67822        19.250           1.625
 91  5 20 20  0 30.0010000  0  5G 2G16G 6G11G19
  21311658.067      -29916.819 8     -7706.30824        29.500           3.563
  24354679.575     -123402.696 5     23962.70321         8.750           0.281
  22450873.731   -11424005.720 6  -8801185.84721        19.250           1.344
  24177885.192    -1694093.730 6  -1268173.32521        15.250           0.844
  22333370.794     8241217.707 6   6419495.60722        18.000           1.625
 91  5 20 20  0 45.0010000  0  5G 2G16G 6G11G19
  21309792.575      -39718.203 8    -15343.73624        29.500           3.656
  24360367.388      -93499.779 5     47263.58821         8.500           0.313
  22446611.146   -11446405.554 6  -8818640.22921        19.250           1.219
  24184123.974    -1661304.898 6  -1242623.61121        15.250           0.844
  22339163.700     8271648.295 6   6443207.72122        19.000           1.625
 91  5 20 20  1  0.0010000  0  5G 2G16G 6G11G19
  21307943.474      -49436.845 8    -22916.68924        29.500           3.594
  24366076.083      -63507.214 5     70634.33021         8.750           0.188
  22442353.364   -11468779.440 6  -8836074.40121        19.250           1.188
  24190389.231    -1628386.884 6  -1216973.22821        15.750           0.844
  22344962.474     8302136.571 6   6466964.78822        18.750           1.594
 91  5 20 20  1 15.0010000  0  4G16G 6G11G19
  24371798.856      -33424.272 5     94075.48621         9.000           0.344
  22438100.896   -11491126.294 6  -8853487.51521        19.250           1.219
  24196675.802    -1595338.507 6  -1191221.26821        15.000           0.875
  22350777.575     8332683.809 6   6490767.79722        18.750           1.625
 91  5 20 20  1 30.0010000  0  4G16G 6G11G19
  24377541.810       -3252.339 5    117586.00721         9.000           0.250
  22433852.372   -11513447.229 6  -8870880.41921        19.000           1.313
  24202989.810    -1562161.352 6  -1165368.96121        15.500           0.875
  22356600.919     8363288.907 6   6514615.89022        18.250           1.563
 91  5 20 20  1 45.0010000  0  4G16G 6G11G19
  24383298.716       27008.158 5    141165.52921         9.000           0.406
  22429611.349   -11535742.553 6  -8888253.36921        19.250           1.281
  24209329.114    -1528856.129 6  -1139416.86321        14.750           0.844
  22362432.677     8393951.442 6   6538508.74122        18.250           1.719
 91  5 20 20  2  0.0010000  0  4G16G 6G11G19
  24389073.771       57359.100 5    164815.52421         9.500           0.344
  22425373.231   -11558009.567 6  -8905604.26221        19.250           1.344
  24215692.067    -1495420.551 6  -1113363.18321        14.750           0.938
  22368281.286     8424674.004 6   6562448.36422        18.250           1.719
 91  5 20 20  2 15.0010000  0  4G16G 6G11G19
  24394868.888       87800.105 5    188535.70421         9.500           0.250
  22421141.528   -11580248.352 6  -8922933.16321        19.000           1.469
  24222077.521    -1461854.993 6  -1087208.23721        14.500           0.969
  22374139.606     8455456.513 6   6586434.69722        18.750           1.750
 91  5 20 20  2 30.0010000  0  4G16G 6G11G19
  24400679.458      118327.182 5    212322.95921         9.750           0.344
  22416914.958   -11602462.100 6  -8940242.53921        19.000           1.469
  24228489.481    -1428163.077 6  -1060954.81821        14.000           0.938
  22380008.528     8486295.682 6   6610465.18322        18.000           1.563
 91  5 20 20  2 45.0010000  0  4G16G 6G11G19
  24406504.677      148942.394 5    236178.89021        10.000           0.313
  22412691.903   -11624648.789 6  -8957530.84321        19.250           1.375
  24234925.942    -1394342.874 6  -1034601.42921        14.750           0.938
  22385886.911     8517193.538 6   6634541.39522        18.250           1.688
 91  5 20 20  3  0.0010000  0  4G16G 6G11G19
  24412345.106      179644.935 5    260102.85021        10.250           0.281
  22408474.911   -11646808.748 6  -8974798.31621        19.500           1.250
  24241385.630    -1360395.276 6  -1008148.78321        14.500           0.844
  22391780.872     8548149.334 6   6658662.76322        18.000           1.688
 91  5 20 20  3 15.0010000  0  4G16G 6G11G19
  24418206.466      210438.726 5    284097.93721        10.250           0.344
  22404264.021   -11668937.641 6  -8992041.57521        19.750           1.469
  24247871.185    -1326316.157 6   -981593.65021        14.500           0.781
  22397680.591     8579167.512 6   6682832.73022        18.750           1.625
 91  5 20 20  3 30.0010000  0  4G16G 6G11G19
  24424080.724      241319.642 5    308160.90821        10.250           0.344
  22400058.810   -11691039.239 7  -9009263.56421        20.000           1.438
  24254379.989    -1292109.700 6   -954939.28821        14.750           0.906
  22403593.372     8610244.377 6   6707048.43122        18.750           1.688
 91  5 20 20  3 45.0010000  0  4G16G 6G11G19
  24429976.278      272288.643 5    332292.51821        10.500           0.406
  22395858.083   -11713111.926 7  -9026463.03121        20.000           1.438
  24260912.583    -1257774.691 6   -928184.74221        14.500           0.844
  22409519.224     8641381.373 6   6731310.98522        18.500           1.625
 91  5 20 20  4  0.0010000  0  4G16G 6G11G19
  24435884.216      303341.604 5    356489.53821        10.750           0.563
  22391663.185   -11735159.445 7  -9043642.88221        20.250           1.469
  24267470.685    -1223315.238 6   -901333.24821        14.000           0.813
  22415458.794     8672574.711 6   6755617.43822        17.750           1.656
 91  5 20 20  4 15.0010000  0  4G16G 6G11G19
  24441813.958      334481.868 5    380754.60221        10.500           0.406
  22387473.731   -11757178.464 7  -9060800.53121        20.500           1.469
  24274051.575    -1188728.143 6   -874382.29121        14.000           0.813
  22421402.536     8703827.710 6   6779970.38522        18.000           1.656
 91  5 20 20  4 30.0010000  0  4G16G 6G11G19
  24447755.646      365707.547 5                        10.500
  22383287.841   -11779170.060 7  -9077936.80422        20.000           1.563
  24280660.263    -1154014.932 6   -847333.05821        14.000           0.844
  22427362.388     8735139.260 6                        17.250
 91  5 20 20  4 45.0010000  0  4G16G 6G11G19
  24453712.966      397020.501 5                        10.000
  22379108.130   -11801131.791 6  -9095049.80522        19.250           1.563
  24287289.091    -1119173.705 6   -820184.08721        13.750           0.844
  22433331.021     8766511.583 6                        17.750
 91  5 20 20  5  0.0010000  0  4G16G 6G11G19
  24459687.841      428421.076 5                        10.000
  22374934.817   -11823063.186 6  -9112139.17322        19.750           1.531
  24293943.630    -1084204.096 6   -792935.07021        14.500           0.813
  22439312.614     8797945.287 6                        18.000
 91  5 20 20  5 15.0010000  0  4G16G 6G11G19
  24465678.841      459904.349 5                         9.000
  22370768.192   -11844968.517 7  -9129208.23022        20.000           1.500
  24300619.247    -1049110.940 6   -765589.75421        14.500           0.750
  22445304.286     8829435.883 6                        17.500
 91  5 20 20  5 30.0010000  0  4G16G 6G11G19
  24471685.091      491469.412 5                         9.250
  22366601.942   -11866848.352 6  -9146257.42022        19.500           1.656
  24307322.935    -1013895.038 6   -738148.81321        14.500           0.688
  22451310.575     8860982.843 6                        17.000
 91  5 20 20  5 45.0010000  0  4G16G 6G11G19
  24477709.661      523118.737 5                         9.000
  22362445.474   -11888700.056 6  -9163284.68122        19.750           1.563
  24314047.396     -978554.146 6   -710610.47621        14.500           0.719
  22457323.763     8892588.517 6                        17.750
 91  5 20 20  6  0.0010000  0  4G16G 6G11G19
  24483746.255      554854.737 5                         8.750
  22358293.099   -11910520.430 7  -9180287.54022        20.250           1.563
  24320796.372     -943085.512 6   -682972.60921        14.500           0.781
  22463351.614     8924256.036 6                        16.750
 91  5 20 20  6 15.0010000  0  4G16G 6G11G19
  24489802.622      586673.471 5    577266.80921         8.500           0.500
  22354146.380   -11932313.166 7  -9197268.86222        20.250           1.719
  24327567.849     -907493.086 6   -655238.27221        14.750           0.719
  22469386.724     8955981.848 6   6976453.80122        17.750           1.750
 91  5 20 20  6 30.0010000  0  4G16G 6G11G19
  24495872.106      618575.206 5    602125.22021         8.500           0.594
  22350004.388   -11954077.506 7  -9214228.06122        20.500           1.656
  24334365.622     -871776.583 6   -627407.25621        14.750           0.719
  22475438.372     8987766.555 6   7001221.06122        16.500           1.656
 91  5 20 20  6 45.0010000  0  4G16G 6G11G19
  24501958.536      650561.704 5    627049.67321         8.750           0.438
  22345868.419   -11975811.484 7  -9231163.59422        20.250           1.594
  24341188.036     -835934.365 6   -599478.28421        14.750           0.656
  22481494.224     9019611.938 6   7026035.59722        17.500           1.656
 91  5 20 20  7  0.0010000  0  4G16G 6G11G19
  24508062.606      682632.131 5    652039.52921         8.750           0.406
  22341737.724   -11997515.665 6  -9248075.91322        19.750           1.594
  24348030.161     -799967.240 6   -571451.97821        15.000           0.781
  22487566.200     9051517.496 6   7050897.02322        18.000           1.750
 91  5 20 20  7 15.0010000  0  4G16G 6G11G19
  24514178.177      714784.748 5    677093.42321         8.000           0.438
  22337614.169   -12019190.602 7  -9264965.44122        20.000           1.563
  24354900.817     -763876.370 6   -543329.24421        15.500           0.688
  22493647.825     9083482.452 6   7075804.73822        17.250           1.750
 91  5 20 20  7 30.0010000  0  4G16G 6G11G19
  24520311.997      747017.721 5    702209.92121         8.000           0.406
  22333494.911   -12040838.205 7  -9281833.67322        20.500           1.500
  24361790.583     -727663.786 6   -515111.66521        15.750           0.656
  22499743.091     9115504.862 6   7100757.22222        17.500           1.750
 91  5 20 20  7 45.0010000  0  4G16G 6G11G19
  24526464.536      779331.454 5    727389.38421         8.000           0.375
  22329379.981   -12062457.710 7  -9298680.01122        20.000           1.688
  24368702.013     -691329.156 6   -486798.98021        16.000           0.625
  22505848.083     9147585.512 6   7125755.08822        17.250           1.719
 91  5 20 20  8  0.0010000  0  4G16G 6G11G19
  24532628.700      811727.644 5    752633.05821         8.000           0.406
  22325271.138   -12084046.554 7  -9315502.45922        20.250           1.688
  24375643.646     -654870.366 6   -458389.55521        16.250           0.594
  22511963.755     9179726.898 6   7150800.28322        17.250           1.656
 91  5 20 20  8 15.0010000  0  4G16G 6G11G19
  24538807.200      844203.888 5    777939.12721         8.000           0.281
  22321167.552   -12105607.034 7  -9332302.80022        20.000           1.813
  24382603.872     -618289.974 6   -429885.37521        15.750           0.500
  22518090.778     9211926.621 6   7175890.93122        17.500           1.688
 91  5 20 20  8 30.0010000  0  4G16G 6G11G19
  24545004.622      876760.415 5    803307.77821         7.750           0.250
  22317071.622   -12127138.291 7  -9349080.36822        20.500           1.719
  24389587.849     -581587.686 6   -401286.20921        15.000           0.625
  22524229.864     9244185.331 6   7201027.54522        17.250           1.781
 91  5 20 20  8 45.0010000  0  4G16G 6G11G19
  24551214.122      909400.755 5    828741.70921         7.750           0.250
  22312980.708   -12148636.358 7  -9365832.08122        20.500           1.719
  24396597.208     -544759.747 6   -372589.14121        15.500           0.531
  22530380.021     9276507.031 6   7226213.24422        17.500           1.719
 91  5 20 20  9  0.0010000  0  4G16G 6G11G19
  24557443.560      942119.606 5    854236.81621         7.750           0.344
  22308894.763   -12170106.293 7  -9382561.87822        20.250           1.938
  24403627.755     -507811.682 6   -343798.45921        15.250           0.531
  22536543.997     9308886.605 6   7251444.04122        16.500           1.688
 91  5 20 20  9 15.0010000  0  4G16G 6G11G19
  24563682.771      974914.672 5    879791.30421         7.750           0.281
  22304813.958   -12191549.734 6  -9399271.02522        19.750           1.563
  24410680.692     -470745.617 6   -314915.84221        15.500           0.594
  22542713.380     9341322.218 6   7276718.50122        17.750           1.656
 91  5 20 20  9 30.0010000  0  4G16G 6G11G19
  24569938.099     1007786.177 5    905405.35821         7.500           0.219
  22300738.419   -12212966.360 7  -9415959.27622        20.000           1.656
  24417755.692     -433561.492 6   -285941.20421        15.500           0.656
  22548896.646     9373814.062 6   7302036.78022        17.500           1.656
 91  5 20 20  9 45.0010000  0  4G16G 6G11G19
  24576207.622     1040736.074 5    931080.52821         7.500           0.188
  22296669.294   -12234353.653 7  -9432624.67422        20.000           1.594
  24424854.044     -396257.253 6   -256872.98621        15.250           0.469
  22555091.271     9406364.735 6   7327400.90222        17.500           1.719
 91  5 20 20 10  0.0010000  0  4G16G 6G11G19
  24582493.599     1073765.533 5    956817.66921         7.750           0.188
  22292605.075   -12255709.977 7  -9449265.94522        20.250           1.563
  24431977.356     -358831.592 6   -227710.15521        15.500           0.500
  22561295.872     9438975.752 6   7352812.04222        17.000           1.656
 91  5 20 20 10 15.0010000  0  4G16G 6G11G19
  24588795.763     1106874.223 5    982616.57621         7.750           0.094
  22288547.481   -12277034.930 7  -9465882.76722        20.000           1.625
  24439122.091     -321284.408 6   -198452.63221        15.500           0.469
  22567512.669     9471647.403 6   7378270.43022        17.250           1.688
 91  5 20 20 10 30.0010000  0  4G16G 6G11G19
  24595108.880     1140059.693 5   1008475.27021         7.750           0.219
  22284494.700   -12298330.689 7  -9482476.83822        20.250           1.531
  24446289.653     -283618.233 6   -169102.37221        15.250           0.406
  22573744.099     9504377.599 6   7403774.43522        17.250           1.656
 91  5 20 20 10 45.0010000  0  5G 2G16G 6G11G19
  21248166.060          -0.20918                        28.500
  24601439.380     1173321.974 5   1034393.85721         7.750           0.250
  22280447.224   -12319596.785 6  -9499047.80222        19.750           1.531
  24453480.567     -245833.101 6   -139659.44521        14.750           0.469
  22579982.567     9537166.458 6   7429324.15122        18.000           1.500
 91  5 20 20 11  0.0010000  0  5G 2G16G 6G11G19
  21246945.974       -6407.652 8                        28.250
  24607783.661     1206659.473 5   1060371.04121         8.000           0.219
  22276406.067   -12340834.399 7  -9515596.55922        20.000           1.563
  24460692.802     -207930.705 6   -110125.12821        15.000           0.438
  22586235.638     9570012.643 6   7454918.54322        17.750           1.594
 91  5 20 20 11 15.0010000  0  5G 2G16G 6G11G19
  21245743.286      -12734.767 8        -0.01533        28.250           3.344
  24614138.817     1240072.398 5   1086406.97021         7.750           0.125
  22272371.177   -12362043.137 6  -9532122.82822        19.750           1.531
  24467926.700     -169910.875 6    -80499.30121        15.250           0.469
  22592494.474     9602916.552 6   7480557.91022        18.000           1.656
 91  5 20 20 11 30.0010000  0  5G 2G16G 6G11G19
  21244554.388      -18979.884 8     -4866.33123        28.250           3.438
  24620513.122     1273561.804 5   1112502.52421         7.750           0.188
  22268339.763   -12383221.144 6  -9548625.14822        19.750           1.500
  24475185.599     -131772.201 6    -50780.88421        15.000           0.594
  22598766.974     9635879.942 6   7506243.62822        18.500           1.563
 91  5 20 20 11 45.0010000  0  4G16G 6G11G19
  24626900.489     1307124.620 5   1138655.28921         8.250           0.219
  22264315.036   -12404370.992 6  -9565105.52521        19.750           1.469
  24482464.614      -93517.780 6    -20972.27721        15.250           0.500
  22605049.192     9668900.165 6   7531973.63722        17.750           1.563
 91  5 20 20 12  0.0010000  0  4G16G 6G11G19
  24633299.778     1340760.758 5   1164865.17121         8.500           0.188
  22260297.380   -12425492.414 7  -9581563.75021        21.000           1.469
  24489765.716      -55147.571 6      8926.56521        15.500           0.500
  22611345.630     9701977.525 6   7557748.16822        17.000           1.594
 91  5 20 20 12 15.0010000  0  4G16G 6G11G19
  24639717.138     1374474.859 5   1191135.81421         8.750           0.281
  22256283.255   -12446580.446 7  -9597995.95522        20.250           1.531
  24497092.880      -16657.009 6     38919.18421        16.000           0.469
  22617650.700     9735116.860 6   7583570.98622        17.500           1.594
 91  5 20 20 12 30.0010000  0  4G16G 6G11G19
  24646145.489     1408261.627 5   1217463.06221         9.250           0.156
  22252274.591   -12467639.792 7  -9614405.81221        20.500           1.406
  24504437.997       21948.757 6     69001.56821        15.500           0.469
  22623968.591     9768313.324 6   7609438.32022        17.500           1.656
 91  5 20 20 12 45.0010000  0  4G16G 6G11G19
  24652589.536     1442122.738 5   1243848.26121         9.250           0.188
  22248273.817   -12488668.449 7  -9630791.74921        20.750           1.438
  24511806.505       60671.380 6     99175.02621        15.250           0.406
  22630297.224     9801568.800 6   7635351.64022        17.250           1.563
 91  5 20 20 13  0.0010000  0  4G16G 6G11G19
  24659049.216     1476057.387 5   1270290.74521         9.500           0.250
  22244278.966   -12509666.573 7  -9647153.90821        20.250           1.406
  24519195.122       99510.207 6    129439.01821        15.500           0.406
  22636637.583     9834883.082 6   7661310.77622        16.750           1.500
 91  5 20 20 13 15.0010000  0  4G16G 6G11G19
  24665519.427     1510063.767 5   1296789.12321         9.250           0.156
  22240289.794   -12530635.751 7  -9663493.49221        20.500           1.438
  24526609.247      138463.322 6    159792.08021        15.750           0.406
  22642988.200     9868254.568 6   7687314.49722        17.500           1.500
 91  5 20 20 13 30.0010000  0  4G16G 6G11G19
  24672003.419     1544139.901 5   1323341.86621         9.500           0.156
  22236303.833   -12551577.484 7  -9679811.70721        20.500           1.313
  24534045.075      177528.704 6    190232.61521        16.000           0.438
  22649347.747     9901681.409 6   7713361.34622        17.500           1.500
 91  5 20 20 13 45.0010000  0  4G16G 6G11G19
  24678502.739     1578289.133 5   1349951.55421         9.750           0.219
  22232325.185   -12572487.804 7  -9696105.43821        20.250           1.313
  24541499.653      216710.059 6    220763.52621        16.000           0.438
  22655721.005     9935167.460 6   7739454.33521        17.750           1.406
 91  5 20 20 14  0.0010000  0  4G16G 6G11G19
  24685015.981     1612510.620 5   1376617.56121        10.000           0.344
  22228351.458   -12593366.944 7  -9712374.87321        20.750           1.313
  24548977.138      256006.764 6    251384.30321        16.000           0.406
  22662103.396     9968712.503 6   7765593.29321        17.000           1.469
 91  5 20 20 14 15.0010000  0  4G16G 6G11G19
  24691542.192     1646803.727 5   1403339.36521        10.000           0.313
  22224383.224   -12614215.148 7  -9728620.20221        20.500           1.344
  24556476.935      295417.979 6    282094.33121        16.250           0.563
  22668498.169    10002316.106 6   7791777.87622        17.250           1.500
 91  5 20 20 14 30.0010000  0  4G16G 6G11G19
  24698078.450     1681167.516 5   1430116.24221         9.500           0.375
  22220422.192   -12635032.956 7  -9744841.83821        20.750           1.281
  24563997.481      334942.810 6    312892.86421        15.500           0.531
  22674903.646    10035977.770 6   7818007.69921        17.000           1.375
 91  5 20 20 14 45.0010000  0  4G16G 6G11G19
  24704632.739     1715599.678 5   1456946.39421         9.250           0.313
  22216465.591   -12655822.461 7  -9761041.43721        20.750           1.313
  24571540.747      374578.678 6    343777.93821        15.500           0.406
  22681318.950    10069695.447 6   7844281.16621        17.250           1.438
 91  5 20 20 15  0.0010000  0  4G16G 6G11G19
  24711198.208     1750104.918 5   1483833.49121         9.250           0.281
  22212515.169   -12676578.258 7  -9777214.75821        21.000           1.469
  24579105.075      414330.636 6    374753.45421        15.500           0.438
  22687748.528    10103474.349 6   7870602.35021        17.000           1.406
 91  5 20 20 15 15.0010000  0  4G16G 6G11G19
  24717776.489     1784679.332 5   1510774.47921         8.750           0.406
  22208570.646   -12697303.926 7  -9793364.60521        20.750           1.406
  24586689.997      454194.720 6    405816.36021        15.750           0.469
  22694186.302    10137310.623 6   7896968.23221        17.250           1.313
 91  5 20 20 15 30.0020000  0  4G16G 6G11G19
  24724370.002     1819326.651 5   1537772.29521         8.750           0.281
  22204633.557   -12717998.623 7  -9809490.31521        21.500           1.438
  24594300.338      494175.371 6    436970.08321        16.000           0.406
  22700638.689    10171208.765 6   7923382.33121        16.750           1.438
 91  5 20 20 15 45.0020000  0  4G16G 6G11G19
  24730978.455     1854042.778 5   1564823.72621         8.750           0.375
  22200703.057   -12738658.824 7  -9825589.15021        21.250           1.469
  24601928.447      534267.640 6    468210.79221        15.250           0.344
  22707099.494    10205164.835 6   7949841.55721        17.500           1.281
 91  5 20 20 16  0.0020000  0  3G 6G11G19
  22196775.807   -12759289.083 7  -9841664.65221        21.500           1.438
  24609578.939      574470.508 6    499537.66521        15.250           0.469
  22713571.354    10239177.891 6   7976345.19721        18.250           1.406
 91  5 20 20 16 15.0020000  0  3G 6G11G19
  22192855.783   -12779891.597 7  -9857718.53421        22.000           1.469
  24617250.127      614781.472 6    530948.78721        15.000           0.375
  22720053.775    10273245.678 6   8002891.47721        17.500           1.313
 91  5 20 20 16 30.0020000  0  3G 6G11G19
  22188941.330   -12800464.878 7  -9873749.64222        21.750           1.500
  24624939.189      655201.583 6    562444.95621        14.750           0.406
  22726549.705    10307369.589 6   8029481.49321        16.750           1.281
 91  5 20 20 16 45.0020000  0  3G 6G11G19
  22185031.861   -12821006.427 7  -9889756.01322        21.500           1.656
  24632655.236      695732.922 6    594027.77721        14.500           0.375
  22733052.088    10341551.861 6   8056116.97921        17.250           1.344
 91  5 20 20 17  0.0020000  0  3G 6G11G19
  22181128.814   -12841516.056 7  -9905737.51922        22.500           1.594
  24640388.877      736375.190 6    625697.04921        14.250           0.469
  22739571.111    10375792.554 6   8082797.99321        16.750           1.219
 91  5 20 20 17 15.0020000  0  3G 6G11G19
  22177232.143   -12861993.153 7  -9921693.67622        22.000           1.500
  24648142.041      777128.565 6    657452.88521        13.750           0.375
  22746096.299    10410092.265 6   8109524.99021        17.500           1.438
 91  5 20 20 17 30.0020000  0  3G 6G11G19
  22173342.986   -12882438.461 7  -9937625.06322        22.500           1.500
  24655919.924      817991.974 6    689294.48421        14.000           0.219
  22752633.619    10444450.035 6   8136297.22421        17.500           1.375
 91  5 20 20 17 45.0020000  0  3G 6G11G19
  22169457.775   -12902850.759 7  -9953530.72222        22.250           1.656
  24663716.885      858966.032 6    721222.26921        14.250           0.375
  22759184.689    10478867.181 6   8163115.72821        17.250           1.406
 91  5 20 20 18  0.0020000  0  3G 6G11G19
  22165579.744   -12923230.988 7  -9969411.39422        22.500           1.719
  24671537.939      900049.481 6    753235.33521        14.000           0.281
  22765746.377    10513342.711 6   8189979.73421        16.500           1.406
 91  5 20 20 18 15.0020000  0  3G 6G11G19
  22161707.682   -12943580.616 7  -9985268.23122        22.750           1.656
  24679372.447      941240.375 6    785332.09621        13.750           0.375
  22772314.205    10547874.856 6   8216887.84621        17.000           1.406
 91  5 20 20 18 30.0020000  0  3G 6G11G19
  22157840.713   -12963895.659 7 -10001098.11022        22.500           1.750
  24687232.643      982542.350 6    817515.42121        14.250           0.344
  22778899.729    10582467.447 6   8243843.05421        15.500           1.375
 91  5 20 20 18 45.0020000  0  3G 6G11G19
  22153981.174   -12984177.380 7 -10016902.02122        22.250           1.656
  24695113.236     1023953.683 6    849783.96821        13.500           0.344
  22785490.502    10617119.128 6   8270844.30822        16.250           1.531
 91  5 20 20 19  0.0020000  0  3G 6G11G19
  22150129.291   -13004423.842 7 -10032678.46522        22.000           1.781
  24703013.150     1065475.813 6    882138.84721        13.000           0.281
  22792101.611    10651831.715 6   8297893.02521        15.250           1.438
 91  5 20 20 19 15.0020000  0  3G 6G11G19
  22146282.018   -13024637.772 7 -10048429.55822        22.000           1.781
  24710936.697     1107105.583 6    914577.58421        13.000           0.406
  22798714.619    10686602.346 6   8324986.96222        16.250           1.500
 91  5 20 20 19 30.0020000  0  3G 6G11G19
  22142441.080   -13044818.304 7 -10064154.62222        22.250           1.938
  24718877.307     1148843.499 6    947100.61321        13.500           0.375
  22805341.447    10721431.809 6   8352126.75021        16.500           1.469
 91  5 20 20 19 45.0020000  0  3G 6G11G19
  22138608.674   -13064962.200 7 -10079851.14422        21.750           1.844
  24726841.088     1190692.281 6    979710.02121        13.000           0.375
  22811981.088    10756323.334 6   8379314.89322        15.750           1.563
 91  5 20 20 20  0.0020000  0  3G 6G11G19
  22134780.588   -13085074.662 7 -10095523.17422        21.500           1.969
  24734826.963     1232646.358 6   1012401.47121        13.500           0.344
  22818631.705    10791271.513 6   8406547.18122        16.250           1.531
 91  5 20 20 20 15.0020000  0  3G 6G11G19
  22130960.557   -13105154.494 7 -10111169.77322        22.000           2.000
  24742830.314     1274706.487 6   1045175.57021        13.500           0.406
  22825292.807    10826277.255 6   8433824.32722        16.250           1.531
 91  5 20 20 20 30.0020000  0  3G 6G11G19
  22127144.393   -13125200.735 7 -10126790.19922        21.750           1.969
  24750853.041     1316873.179 6   1078032.69421        13.500           0.438
  22831965.486    10861341.579 6   8461147.12222        16.000           1.500
 91  5 20 20 20 45.0020000  0  3G 6G11G19
  22123336.916   -13145213.433 7 -10142384.48722        21.500           2.063
  24758897.689     1359145.938 6   1110972.46921        13.750           0.406
  22838651.799    10896464.267 6   8488515.39522        16.250           1.500
 91  5 20 20 21  0.0020000  0  3G 6G11G19
  22119535.025   -13165191.430 7 -10157951.73822        21.750           2.156
  24766960.861     1401525.441 6   1143995.43221        13.250           0.375
  22845344.635    10931646.466 6   8515930.03421        16.000           1.438
 91  5 20 20 21 15.0020000  0  3G 6G11G19
  22115740.588   -13185131.558 7 -10173489.47322        21.500           2.125
  24775047.096     1444014.274 6   1177103.57521        13.250           0.406
  22852050.564    10966891.061 6   8543393.29921        16.250           1.469
 91  5 20 20 21 30.0020000  0  3G 6G11G19
  22111952.869   -13205038.265 7 -10189001.17222        22.000           2.094
  24783152.752     1486607.741 6   1210293.27421        13.250           0.406
  22858773.244    11002193.457 6   8570901.59121        15.250           1.344
 91  5 20 20 21 45.0020000  0  3G 6G11G19
  22108172.510   -13224908.492 7 -10204484.44222        21.500           2.094
  24791277.752     1529308.433 6   1243566.48821        13.250           0.375
  22865499.783    11037556.611 6   8598457.24621        15.750           1.375
 91  5 20 20 22  0.0020000  0  3G 6G11G19
  22104396.330   -13244747.037 7 -10219943.02422        20.750           2.125
  24799424.533     1572111.083 6   1276919.16921        13.500           0.406
  22872239.455    11072975.670 6   8626056.45321        15.750           1.375
 91  5 20 20 22 15.0020000  0  3G 6G11G19
  22100627.846   -13264550.837 7 -10235374.53922        20.750           2.219
  24807590.650     1615018.290 6   1310353.31321        13.500           0.469
  22878990.361    11108453.596 6   8653701.52921        16.000           1.313
 91  5 20 20 22 30.0020000  0  3G 6G11G19
  22096866.119   -13284321.122 7 -10250779.93422        20.750           2.188
  24815771.643     1658028.471 6   1343867.71321        13.250           0.531
  22885754.361    11143989.206 6   8681391.56221        15.500           1.344
 91  5 20 20 22 45.0020000  0  3G 6G11G19
  22093109.002   -13304060.281 7 -10266161.07622        21.000           2.188
  24823976.994     1701138.558 6   1377459.92921        13.000           0.438
  22892526.174    11179579.628 6   8709124.29521        15.750           1.375
 91  5 20 20 23  0.0020000  0  3G 6G11G19
  22089358.971   -13323764.194 7 -10281514.74822        22.750           2.219
  24832203.268     1744352.272 6   1411132.91721        13.250           0.344
  22899309.775    11215228.982 6   8736902.95621        16.750           1.281
 91  5 20 20 23 15.0020000  0  3G 6G11G19
  22085615.783   -13343431.714 7 -10296840.06822        22.750           2.156
  24840445.189     1787670.378 6   1444887.25521        12.500           0.344
  22906104.658    11250938.434 6   8764728.44721        17.000           1.313
 91  5 20 20 23 30.0020000  0  3G 6G11G19
  22081881.783   -13363061.905 7 -10312136.29822        22.500           2.375
  24848707.104     1831093.387 6   1478723.32721        12.000           0.438
  22912912.939    11286708.691 6   8792601.32121        16.250           1.406
 91  5 20 20 23 45.0020000  0  3G 6G11G19
  22078152.932   -13382659.666 7 -10327407.25922        22.250           2.344
  24856989.846     1874615.854 5   1512636.89121        11.500           0.344
  22919726.861    11322534.605 6   8820517.55021        17.000           1.281
 91  5 20 20 24  0.0020000  0  3G 6G11G19
  22074429.986   -13402223.199 7 -10342651.54822        22.250           2.281
  24865287.650     1918239.224 5   1546629.10321        10.750           0.313
  22926556.291    11358417.939 6   8848478.53921        17.000           1.250
 91  5 20 20 24 15.0020000  0  3G 6G11G19
  22070712.385   -13421750.778 7 -10357867.82322        23.000           2.188
  24873610.682     1961964.665 5   1580700.81021        10.500           0.406
  22933397.236    11394360.184 6   8876485.42421        17.500           1.313
 91  5 20 20 24 30.0020000  0  3G 6G11G19
  22067004.252   -13441243.395 7 -10373056.85022        23.000           2.250
  24881948.604     2005790.612 5   1614850.85321        10.000           0.281
  22940249.057    11430360.182 6   8904537.31721        17.000           1.344
 91  5 20 20 24 45.0020000  0  3G 6G11G19
  22063302.619   -13460700.936 7 -10388218.54622        23.000           2.219
  24890310.127     2049716.883 5   1649079.09021        10.750           0.438
  22947106.447    11466418.105 6   8932634.33721        16.500           1.281
 91  5 20 20 25  0.0020000  0  3G 6G11G19
  22059603.783   -13480125.784 7 -10403354.77322        22.750           2.156
  24898686.479     2093740.537 5   1683383.18921        11.250           0.406
  22953981.697    11502531.423 6   8960774.53021        16.750           1.219
 91  5 20 20 25 15.0020000  0  3G 6G11G19
  22055914.541   -13499515.033 7 -10418463.25822        23.000           2.188
  24907087.283     2137864.092 5   1717765.14421        11.000           0.406
  22960864.689    11538702.806 6   8988959.96821        17.500           1.250
 91  5 20 20 25 30.0020000  0  3G 6G11G19
  22052234.174   -13518868.560 7 -10433543.90122        23.500           2.250
  24915498.400     2182087.114 5   1752224.61821        11.500           0.469
  22967759.908    11574932.229 6   9017190.63321        16.500           1.156
 91  5 20 20 25 45.0020000  0  3G 6G11G19
  22048554.760   -13538188.164 7 -10448598.12022        23.250           2.156
  24923931.721     2226407.415 5   1786759.88621        11.000           0.406
  22974663.846    11611217.705 6   9045464.97921        17.000           1.188
 91  5 20 20 26  0.0020000  0  3G 6G11G19
  22044888.354   -13557470.671 7 -10463623.42822        23.500           2.219
  24932383.682     2270827.743 5   1821373.08821        11.000           0.469
  22981580.096    11647562.351 6   9073785.43121        16.750           1.094
 91  5 20 20 26 15.0020000  0  3G 6G11G19
  22041223.877   -13576716.262 7 -10478619.97022        23.250           2.188
  24940858.322     2315347.514 5   1856063.77821        11.000           0.500
  22988508.189    11683965.928 6   9102151.79821        17.250           1.156
 91  5 20 20 26 30.0020000  0  3G 6G11G19
  22037569.994   -13595927.482 7 -10493589.73022        23.750           2.219
  24949346.229     2359963.656 5   1890829.55321        11.000           0.500
  22995444.627    11720425.758 6   9130562.00421        16.500           1.156
 91  5 20 20 26 45.0020000  0  3G 6G11G19
  22033920.150   -13615099.271 7 -10508528.76122        23.500           2.219
  24957858.846     2404680.662 5   1925673.93721        11.500           0.500
  23002394.697    11756946.603 6   9159019.75721        16.500           1.000
 91  5 20 20 27  0.0020000  0  3G 6G11G19
  22030280.518   -13634234.068 7 -10523438.97322        24.000           2.125
  24966383.525     2449495.614 5   1960594.64121        11.250           0.438
  23009356.541    11793525.910 6   9187523.06021        16.250           0.969
 91  5 20 20 27 15.0020000  0  3G 6G11G19
  22026642.643   -13653334.743 7 -10538322.59522        23.500           2.031
  24974930.377     2494405.197 5   1995589.08521        11.250           0.500
  23016327.627    11830160.777 6   9216069.65321        16.750           1.000
 91  5 20 20 27 30.0020000  0  3G 6G11G19
  22023017.025   -13672401.408 7 -10553179.71822        23.500           2.031
  24983496.830     2539408.768 5   2030656.76721        11.250           0.531
  23023311.416    11866850.774 6   9244659.21421        16.500           1.031
 91  5 20 20 27 45.0020000  0  3G 6G11G19
  22019393.979   -13691431.983 7 -10568008.71822        23.750           2.031
  24992076.846     2584507.990 5   2065798.97521        10.750           0.406
  23030301.611    11903597.948 6   9273293.31721        17.000           1.000
 91  5 20 20 28  0.0020000  0  3G 6G11G19
  22015779.518   -13710424.936 7 -10582808.40022        23.250           2.000
  25000677.900     2629703.953 5   2101016.57321        10.500           0.438
  23037309.799    11940403.557 6   9301972.95921        15.750           1.000
 91  5 20 20 28 15.0020000  0  3G 6G11G19
  22012173.697   -13729382.179 7 -10597580.25822        23.500           1.969
  25009295.260     2674994.332 5   2136307.74321        10.000           0.500
  23044321.424    11977265.746 6   9330696.68721        16.250           1.156
 91  5 20 20 28 30.0020000  0  3G 6G11G19
  22008572.025   -13748300.117 7 -10612321.48822        23.250           2.031
  25017932.791     2720382.114 5   2171674.79721        10.000           0.500
  23051348.393    12014187.855 6   9359467.10121        16.750           1.094
 91  5 20 20 28 45.0020000  0  3G 6G11G19
  22004977.924   -13767183.168 7 -10627035.53622        23.250           1.906
  25026588.072     2765862.477 5   2207113.98721        10.000           0.594
  23058383.291    12051165.357 6   9388280.67821        16.250           1.031
 91  5 20 20 29  0.0020000  0  3G 6G11G19
  22001394.322   -13786027.936 7 -10641719.75022        23.250           1.906
  25035260.416     2811438.330 5   2242627.58921        10.000           0.531
  23065434.361    12088201.478 6   9417139.94121        15.500           1.000
 91  5 20 20 29 15.0020000  0  3G 6G11G19
  21997815.939   -13804832.090 7 -10656372.31722        23.000           1.906
  25043952.057     2857111.539 5   2278217.05821         9.500           0.656
  23072490.924    12125298.427 6   9446046.59521        15.750           1.031
 91  5 20 20 29 30.0020000  0  3G 6G11G19
  21994244.439   -13823598.291 7 -10670995.31622        23.750           1.906
  25052661.713     2902878.740 5   2313879.75321         9.750           0.563
  23079564.533    12162453.542 6   9474998.57021        15.250           1.000
 91  5 20 20 29 45.0020000  0  3G 6G11G19
  21990678.502   -13842326.715 7 -10685588.87222        23.500           1.844
  25061387.658     2948739.514 5   2349615.37121         9.500           0.594
  23086643.549    12199666.353 6   9503995.50821        15.750           1.031
 91  5 20 20 30  0.0020000  0  3G 6G11G19
  21987121.736   -13861016.316 7 -10700152.17922        23.000           1.844
  25070136.307     2994694.346 5   2385424.27921         9.750           0.500
  23093733.885    12236937.658 6   9533038.01921        15.750           1.031
 91  5 20 20 30 15.0020000  0  3G 6G11G19
  21983574.143   -13879668.837 7 -10714686.59422        23.250           1.844
  25078896.713     3040740.969 5   2421304.70621        10.000           0.375
  23100839.752    12274265.646 6   9562124.70521        15.750           1.125
 91  5 20 20 30 30.0020000  0  3G 6G11G19
  21980032.986   -13898283.154 7 -10729191.23622        23.000           1.688
  25087673.557     3086880.175 5   2457257.27821        10.250           0.563
  23107958.033    12311651.270 6   9591256.28621        14.750           1.125
 91  5 20 20 30 45.0020000  0  3G 6G11G19
  21976499.268   -13916860.322 7 -10743666.93522        23.250           1.781
  25096472.658     3133110.262 5   2493280.70321        10.250           0.438
  23115075.229    12349093.055 6   9620431.63821        15.250           1.125
 91  5 20 20 31  0.0020000  0  3G 6G11G19
  21972970.143   -13935401.595 7 -10758114.66322        23.000           1.719
  25105285.854     3179429.631 5   2529373.68221        10.250           0.469
  23122217.682    12386589.732 6   9649649.77121        14.750           1.031
 91  5 20 20 31 15.0020000  0  3G 6G11G19
  21969449.041   -13953905.830 7 -10772533.52522        23.500           1.750
  25114118.854     3225838.767 5   2565536.58621        10.750           0.531
  23129358.150    12424142.333 6   9678911.47721        15.250           1.125
 91  5 20 20 31 30.0020000  0  2G 6G19
  21965934.705   -13972372.281 7 -10786922.94922        23.750           1.750
  23136518.994    12461751.477 6   9708217.24221        14.000           1.125
 91  5 20 20 31 45.0020000  0  2G 6G19
  21962427.283   -13990802.987 7 -10801284.52222        23.500           1.844
  23143684.057    12499415.031 6   9737565.39821        15.250           1.156
 91  5 20 20 32  0.0020000  0  2G 6G19
  21958928.783   -14009192.992 7 -10815614.38122        23.750           1.781
  23150860.518    12537137.814 6   9766959.71821        15.000           1.063
 91  5 20 20 32 15.0020000  0  2G 6G19
  21955437.041   -14027541.183 7 -10829911.65922        23.750           1.750
  23158050.721    12574920.685 6   9796400.85321        14.750           1.031
 91  5 20 20 32 30.0020000  0  2G 6G19
  21951953.205   -14045850.603 7 -10844178.72022        23.750           1.750
  23165252.189    12612760.529 6   9825886.38721        14.750           1.031
 91  5 20 20 32 45.0020000  0  2G 6G19
  21948474.674   -14064116.985 7 -10858412.24522        24.000           1.906
  23172465.861    12650661.218 6   9855419.32421        15.000           1.125
 91  5 20 20 33  0.0020000  0  2G 6G19
  21945006.064   -14082342.596 7 -10872614.00722        24.500           1.813
  23179690.564    12688620.587 6   9884997.99821        14.750           1.125
 91  5 20 20 33 15.0020000  0  2G 6G19
  21941543.822   -14100529.694 7 -10886785.75122        24.500           1.781
  23186919.643    12726636.030 6   9914620.35621        14.500           1.000
 91  5 20 20 33 30.0020000  0  2G 6G19
  21938092.541   -14118675.692 7 -10900925.47522        24.500           1.719
  23194169.189    12764709.973 6   9944288.30021        14.500           1.063
 91  5 20 20 33 45.0020000  0  2G 6G19
  21934648.908   -14136782.480 7 -10915034.64122        24.750           1.906
  23201423.104    12802840.377 6   9974000.23521        14.500           1.125
 91  5 20 20 34  0.0020000  0  2G 6G19
  21931210.408   -14154849.919 7 -10929113.15322        25.000           1.781
  23208693.080    12841027.240 6  10003756.17321        14.000           1.031
 91  5 20 20 34 15.0020000  0  2G 6G19
  21927778.572   -14172879.063 7 -10943161.81222        25.000           1.844
  23215964.729    12879269.288 6  10033555.10121        14.750           1.125
 91  5 20 20 34 30.0020000  0  2G 6G19
  21924354.002   -14190864.341 7 -10957176.30122        25.000           1.813
  23223255.971    12917571.891 6  10063401.21821        14.500           1.031
 91  5 20 20 34 45.0020000  0  2G 6G19
  21920941.947   -14208809.978 7 -10971159.89422        25.250           1.813
  23230556.330    12955930.778 6  10093291.19621        15.000           1.125
 91  5 20 20 35  0.0020000  0  2G 6G19
  21917534.525   -14226712.055 7 -10985109.54622        25.250           1.844
  23237868.838    12994349.628 6  10123227.90021        14.750           1.000
 91  5 20 20 35 15.0020000  0  2G 6G19
  21914133.807   -14244570.309 7 -10999025.05722        25.250           1.969
  23245190.072    13032828.602 6  10153211.45021        14.750           0.938
 91  5 20 20 35 30.0020000  0  2G 6G19
  21910745.814   -14262384.895 7 -11012906.53222        25.500           2.000
  23252521.674    13071367.327 6  10183241.55721        14.250           0.969
 91  5 20 20 35 45.0020000  0  2G 6G19
  21907364.604   -14280158.523 7 -11026756.09522        25.000           1.969
  23259866.900    13109962.951 6  10213316.01521        14.750           0.844
 91  5 20 20 36  0.0020000  0  2G 6G19
  21903988.111   -14297893.979 7 -11040575.91022        25.000           1.969
  23267224.049    13148612.392 6  10243432.38921        14.500           0.906
 91  5 20 20 36 15.0020000  0  3G 2G 6G19
  21200864.479          -0.75418                        30.250
  21900621.822   -14315588.767 7 -11054364.03922        25.250           1.938
  23274587.135    13187318.126 6  10273592.63221        14.500           0.938
 91  5 20 20 36 30.0020000  0  3G 2G 6G19
  21201147.064        1479.791 8                        30.250
  21897261.963   -14333243.450 7 -11068120.91922        25.250           2.063
  23281963.455    13226079.308 6  10303796.08221        14.500           0.906
 91  5 20 20 36 45.0020000  0  3G 2G 6G19
  21201442.010        3031.997 8        -0.19133        30.250           3.188
  21893909.604   -14350857.817 7 -11081846.38522        25.000           2.063
  23289350.025    13264895.980 6  10334042.77521        14.500           1.031
 91  5 20 20 37  0.0020000  0  3G 2G 6G19
  21201751.221        4656.511 8      1265.66623        30.000           3.250
  21890567.010   -14368431.135 7 -11095539.86122        25.250           2.031
  23296746.330    13303768.855 6  10364333.25321        13.500           0.969
 91  5 20 20 37 15.0020000  0  3G 2G 6G19
  21202075.135        6352.638 8      2587.32723        30.250           3.063
  21887229.791   -14385963.704 7 -11109201.58622        25.250           2.125
  23304153.025    13342697.440 6  10394667.14621        14.250           0.938
 91  5 20 20 37 30.0020000  0  2G 6G19
  21883900.955   -14403451.687 7 -11122828.56322        24.500           2.063
  23311575.088    13381685.302 6  10425047.22621        14.000           0.875
 91  5 20 20 37 45.0020000  0  2G 6G19
  21880582.768   -14420895.543 7 -11136421.16122        24.250           2.188
  23319002.635    13420731.826 6  10455473.01321        14.000           0.844
 91  5 20 20 38  0.0020000  0  2G 6G19
  21877270.533   -14438299.876 7 -11149982.96422        25.000           2.125
  23326448.189    13459832.187 6  10485940.76221        13.250           1.000
 91  5 20 20 38 15.0020000  0  2G 6G19
  21873966.846   -14455663.590 7 -11163513.11122        24.250           2.188
  23333896.588    13498987.349 6  10516451.20221        14.000           1.031
 91  5 20 20 38 30.0020000  0  2G 6G19
  21870669.916   -14472981.683 7 -11177007.71522        24.250           2.250
  23341360.447    13538202.074 6  10547008.05421        13.750           1.031
 91  5 20 20 38 45.0020000  0  2G 6G19
  21867383.783   -14490258.225 7 -11190469.93822        24.500           2.125
  23348831.900    13577471.957 6  10577607.89121        14.000           1.031
 91  5 20 20 39  0.0020000  0  2G 6G19
  21864103.877   -14507489.973 7 -11203897.25522        24.250           2.313
  23356315.369    13616800.243 6  10608253.23921        13.500           1.031
 91  5 20 20 39 15.0020000  0  2G 6G19
  21860831.971   -14524677.829 7 -11217290.37222        24.000           2.250
  23363809.932    13656185.680 6  10638943.11421        14.000           0.906
 91  5 20 20 39 30.0020000  0  2G 6G19
  21857573.229   -14541814.791 7 -11230643.83522        24.000           2.313
  23371318.955    13695635.017 6  10669682.78721        13.500           0.938
 91  5 20 20 39 45.0020000  0  2G 6G19
  21854319.268   -14558906.540 7 -11243962.06122        23.500           2.344
  23378835.486    13735142.622 6  10700467.86221        13.750           1.063
 91  5 20 20 40  0.0020000  0  2G 6G19
  21851075.283   -14575951.576 7 -11257243.89222        24.000           2.344
  23386366.752    13774709.809 6  10731299.36321        13.250           0.969
 91  5 20 20 40 15.0020000  0  2G 6G19
  21847841.471   -14592950.944 7 -11270490.13622        24.000           2.344
  23393906.033    13814335.409 6  10762176.38221        13.500           0.938
 91  5 20 20 40 30.0020000  0  2G 6G19
  21844615.229   -14609906.859 7 -11283702.52422        24.000           2.438
  23401460.572    13854016.787 6  10793096.86321        13.000           0.875
 91  5 20 20 40 45.0020000  0  2G 6G19
  21841395.650   -14626815.345 7 -11296877.95322        23.250           2.344
  23409020.244    13893757.895 6  10824063.88721        13.500           0.813
 91  5 20 20 41  0.0020000  0  2G 6G19
  21838186.463   -14643675.483 7 -11310015.70422        22.500           2.313
  23416594.268    13933559.322 6  10855077.92021        14.250           0.813
 91  5 20 20 41 15.0020000  0  2G 6G19
  21834989.041   -14660488.506 7 -11323116.74822        22.750           2.344
  23424180.057    13973419.693 6  10886137.87521        14.000           0.906
 91  5 20 20 41 30.0020000  0  2G 6G19
  21831798.682   -14677257.626 7 -11336183.58222        23.500           2.344
  23431776.736    14013335.613 6  10917241.11221        13.250           0.844
 91  5 20 20 41 45.0020000  0  2G 6G19
  21828616.299   -14693977.665 7 -11349212.17223        23.250           2.500
  23439381.479    14053312.031 6  10948391.49921        13.750           0.781
 91  5 20 20 42  0.0020000  0  2G 6G19
  21825441.932   -14710653.299 7 -11362206.16123        23.000           2.531
  23447004.127    14093344.172 6  10979585.30021        13.000           0.813
 91  5 20 20 42 15.0020000  0  2G 6G19
  21822277.150   -14727280.882 7 -11375162.70522        22.750           2.469
  23454628.643    14133435.380 6  11010825.12121        13.500           0.813
 91  5 20 20 42 30.0020000  0  2G 6G19
  21819122.268   -14743860.824 7 -11388082.12722        22.500           2.469
  23462269.494    14173585.196 6  11042110.62721        13.500           0.875
 91  5 20 20 42 45.0020000  0  2G 6G19
  21815978.174   -14760391.360 7 -11400963.05423        22.750           2.500
  23469919.908    14213795.079 6  11073442.92021        13.250           0.813
 91  5 20 20 43  0.0020000  0  2G 6G19
  21812842.408   -14776874.056 7 -11413806.70222        22.750           2.406
  23477587.971    14254063.342 6  11104820.70821        12.500           0.844
 91  5 20 20 43 15.0020000  0  2G 6G19
  21809714.057   -14793307.279 7 -11426611.80023        22.750           2.500
  23485258.674    14294391.243 6  11136244.97521        13.500           0.969
 91  5 20 20 43 30.0020000  0  2G 6G19
  21806596.611   -14809689.533 7 -11439377.17823        23.000           2.500
  23492949.869    14334780.236 6  11167716.84321        12.750           0.875
 91  5 20 20 43 45.0020000  0  2G 6G19
  21803489.963   -14826021.435 7 -11452103.32423        23.250           2.594
  23500641.604    14375229.363 6  11199235.56221        13.250           0.844
 91  5 20 20 44  0.0020000  0  2G 6G19
  21800391.018   -14842303.927 7 -11464790.96623        23.000           2.594
  23508354.119    14415737.589 6  11230800.34521        12.750           0.938
 91  5 20 20 44 15.0020000  0  2G 6G19
  21797301.674   -14858536.993 7 -11477440.09723        23.000           2.500
  23516068.057    14456304.679 6  11262410.99021        13.250           0.875
 91  5 20 20 44 30.0020000  0  2G 6G19
  21794222.518   -14874719.985 7 -11490050.21023        23.000           2.563
  23523800.619    14496931.182 6  11294067.93321        13.750           0.813
 91  5 20 20 44 45.0020000  0  2G 6G19
  21791153.408   -14890849.172 7 -11502618.39523        23.250           2.594
  23531542.463    14537620.526 6  11325773.83321        13.500           0.938
 91  5 20 20 45  0.0020000  0  2G 6G19
  21788093.744   -14906929.911 7 -11515148.82923        23.250           2.531
  23539297.580    14578367.049 6  11357524.29321        13.500           0.969
 91  5 20 20 45 15.0020000  0  2G 6G19
  21785042.479   -14922957.775 7 -11527638.06522        23.500           2.469
  23547061.822    14619175.034 6  11389322.64221        13.250           0.969
 91  5 20 20 45 30.0020000  0  2G 6G19
  21782003.377   -14938933.235 7 -11540086.45423        23.500           2.500
  23554841.666    14660043.858 6  11421168.40521        13.500           0.906
 91  5 20 20 45 45.0020000  0  2G 6G19
  21778972.041   -14954859.568 7 -11552496.57223        23.500           2.594
  23562627.221    14700970.041 6  11453058.86721        13.500           0.875
 91  5 20 20 46  0.0020000  0  2G 6G19
  21775951.666   -14970732.691 7 -11564865.22822        23.500           2.438
  23570428.854    14741957.579 6  11484997.13021        13.250           0.781
 91  5 20 20 46 15.0020000  0  2G 6G19
  21772940.525   -14986550.689 7 -11577190.92723        23.750           2.656
  23578240.596    14783007.973 6  11516984.37721        13.750           0.875
 91  5 20 20 46 30.0020000  0  2G 6G19
  21769940.307   -15002315.499 7 -11589475.18423        24.000           2.563
  23586066.041    14824118.987 6  11549018.86021        12.500           0.969
 91  5 20 20 46 45.0020000  0  2G 6G19
  21766950.869   -15018026.573 7 -11601717.56723        24.000           2.625
  23593898.111    14865290.903 6  11581100.79221        13.000           0.938
 91  5 20 20 47  0.0020000  0  2G 6G19
  21763973.432   -15033681.831 7 -11613916.45823        24.500           2.563
  23601747.611    14906525.825 6  11613231.82121        13.000           0.969
 91  5 20 20 47 15.0020000  0  2G 6G19
  21761003.986   -15049282.234 7 -11626072.60123        24.250           2.625
  23609600.197    14947822.591 6  11645411.03721        12.250           0.906
 91  5 20 20 47 30.0020000  0  2G 6G19
  21758045.932   -15064829.430 7 -11638187.28523        24.250           2.688
  23617472.041    14989179.347 6  11677637.00421        12.000           0.875
 91  5 20 20 47 45.0020000  0  3G 2G 6G19
  21228340.611          -0.04118                        30.750
  21755097.213   -15080322.027 7 -11650259.42823        24.250           2.656
  23625354.244    15030597.331 6  11709910.67421        12.750           0.781
 91  5 20 20 48  0.0020000  0  3G 2G 6G19
  21229272.846        4896.385 8                        30.750
  21752158.705   -15095756.750 7 -11662286.47623        24.250           2.656
  23633250.010    15072079.472 6  11742234.34521        12.250           0.781
 91  5 20 20 48 15.0020000  0  3G 2G 6G19
  21230219.244        9869.526 8        -0.36533        30.500           3.219
  21749233.604   -15111134.939 7 -11674269.46723        24.250           2.594
  23641155.400    15113624.239 6  11774606.82121        12.750           0.875
 91  5 20 20 48 30.0020000  0  3G 2G 6G19
  21231179.252       14917.113 8      3932.81623        30.500           3.313
  21746318.400   -15126458.554 7 -11686209.94523        24.750           2.656
  23649072.658    15155229.390 5  11807026.34621        11.750           0.875
 91  5 20 20 48 45.0020000  0  4G 2G13G 6G19
  21232154.041       20037.788 8      7922.94923        30.750           3.219
  24682777.479      -56572.716 4                         6.250
  21743411.947   -15141728.787 7 -11698108.80823        24.500           2.656
  23656999.658    15196893.461 5  11839491.76321        11.750           0.781
 91  5 20 20 49  0.0020000  0  3G13G 6G19
  24672017.971     -113114.377 4                         6.750
  21740516.721   -15156942.130 7 -11709963.35223        24.750           2.594
  23664941.064    15238619.643 6  11872005.59521        12.000           0.781
 91  5 20 20 49 15.0020000  0  3G13G 6G19
  24661262.150     -169623.260 4                         6.250
  21737631.768   -15172096.575 7 -11721771.99823        24.500           2.625
  23672892.697    15280409.918 6  11904569.37321        12.250           0.750
 91  5 20 20 49 30.0020000  0  3G13G 6G19
  24650515.955     -226101.820 4                         6.500
  21734760.736   -15187194.701 7 -11733536.75823        25.500           2.531
  23680856.322    15322261.524 6  11937180.92821        12.000           0.875
 91  5 20 20 49 45.0020000  0  3G13G 6G19
  24639773.260     -282550.517 4                         6.500
  21731896.994   -15202237.220 7 -11745258.19623        25.000           2.594
  23688831.385    15364173.702 6  11969839.68121        12.500           0.781
 91  5 20 20 50  0.0020000  0  3G13G 6G19
  24629038.174     -338965.230 4                         6.750
  21729045.963   -15217220.219 7 -11756933.24723        25.250           2.656
  23696821.814    15406149.907 6  12002548.34321        12.250           0.750
 91  5 20 20 50 15.0020000  0  3G13G 6G19
  24618309.002     -395347.018 4                         7.250
  21726206.049   -15232144.901 7 -11768562.86023        26.000           2.719
  23704819.432    15448188.654 5  12035305.72521        11.750           0.781
 91  5 20 20 50 30.0020000  0  3G13G 6G19
  24607586.557     -451693.401 4                         7.000
  21723377.893   -15247008.855 7 -11780145.15123        25.500           2.781
  23712836.205    15490292.043 5  12068113.48521        11.750           0.750
 91  5 20 20 50 45.0020000  0  3G13G 6G19
  24596871.111     -508005.700 4                         7.000
  21720560.260   -15261813.977 7 -11791681.59723        25.750           2.719
  23720855.236    15532458.130 6  12100970.09021        12.250           0.719
 91  5 20 20 51  0.0020000  0  3G13G 6G19
  24586158.971     -564282.074 4        -0.10231         6.750           0.125
  21717754.869   -15276558.271 7 -11803170.64723        25.500           2.750
  23728892.291    15574688.682 6  12133876.92921        12.000           0.750
 91  5 20 20 51 15.0020000  0  3G13G 6G19
  24575460.361     -620523.002 4                         6.750
  21714959.955   -15291242.878 7 -11814613.18723        25.500           2.719
  23736940.025    15616982.502 6  12166833.07021        12.750           0.844
 91  5 20 20 51 30.0020000  0  3G13G 6G19
  24564762.064     -676729.121 4                         6.500
  21712176.900   -15305868.615 7 -11826009.85323        25.750           2.750
  23745001.775    15659338.348 6  12199837.54621        13.000           0.750
 91  5 20 20 51 45.0020000  0  3G13G 6G19
  24554074.846     -732896.100 4                         6.250
  21709406.596   -15320431.234 7 -11837357.33723        26.000           2.719
  23753072.393    15701760.116 6  12232893.38721        12.500           0.813
 91  5 20 20 52  0.0020000  0  3G13G 6G19
  24543392.057     -789025.761 3                         6.000
  21706646.361   -15334932.948 7 -11848657.36223        26.000           2.813
  23761157.611    15744245.448 6  12265998.74821        12.000           0.750
 91  5 20 20 52 15.0020000  0  3G13G 6G19
  24532716.502     -845121.986 3        -0.29531         6.000           0.063
  21703897.979   -15349377.590 7 -11859912.91423        26.250           2.938
  23769253.744    15786790.347 6  12299150.53421        12.250           0.844
 91  5 20 20 52 30.0020000  0  3G13G 6G19
  24522051.549     -901180.875 4    -43682.31921         6.250           0.219
  21701160.291   -15363761.427 7 -11871121.08623        26.250           2.938
  23777364.166    15829398.303 6  12332351.44921        12.000           0.813
 91  5 20 20 52 45.0020000  0  3G13G 6G19
  24511389.604     -957203.674 4    -87336.19821         6.500           0.063
  21698434.314   -15378085.937 7 -11882283.03223        27.000           2.906
  23785482.471    15872067.463 6  12365600.06421        12.250           0.875
 91  5 20 20 53  0.0020000  0  3G13G 6G19
  24500737.057    -1013191.103 4   -130962.54321         6.750           0.156
  21695720.080   -15392352.127 7 -11893399.53723        26.500           2.906
  23793614.393    15914796.751 5  12398895.51221        11.250           0.844
 91  5 20 20 53 15.0020000  0  3G13G 6G19
  24490090.432    -1069141.881 4   -174560.28521         7.250           0.125
  21693015.955   -15406558.892 7 -11904469.72623        26.250           2.875
  23801757.947    15957587.035 6  12432238.50321        12.000           0.813
 91  5 20 20 53 30.0020000  0  3G13G 6G19
  24479449.533    -1125057.843 5   -218130.94321         7.500           0.094
  21690323.768   -15420708.351 7 -11915495.26523        26.500           2.938
  23809909.361    16000436.065 6  12465627.27321        12.000           0.844
 91  5 20 20 53 45.0020000  0  3G13G 6G19
  24468816.229    -1180935.689 5   -261671.86821         7.750           0.250
  21687641.994   -15434797.405 7 -11926473.73523        26.000           2.938
  23818076.518    16043346.572 5  12499063.94121        11.750           0.750
 91  5 20 20 54  0.0020000  0  3G13G 6G19
  24458188.166    -1236773.073 4   -305181.34421         7.000           0.219
  21684974.705   -15448823.747 7 -11937403.33923        26.750           2.875
  23826256.439    16086320.492 5  12532550.02021        10.750           0.844
 91  5 20 20 54 15.0020000  0  3G13G 6G19
  24447571.689    -1292571.808 5   -348660.63121         7.500           0.250
  21682315.627   -15462789.533 7 -11948285.76123        26.250           2.875
  23834443.299    16129355.686 5  12566083.84121        11.250           0.719
 91  5 20 20 54 30.0020000  0  3G13G 6G19
  24436959.814    -1348329.084 4   -392107.60221         7.250           0.156
  21679670.924   -15476692.141 7 -11959118.94823        26.500           2.938
  23842646.182    16172454.364 5  12599667.14521        10.500           0.781
 91  5 20 20 54 45.0020000  0  3G13G 6G19
  24426357.119    -1404047.803 5   -435524.58321         7.500           0.281
  21677035.627   -15490534.757 7 -11969905.39223        26.000           2.969
  23850856.291    16215613.158 5  12633297.27521        11.000           0.688
 91  5 20 20 55  0.0020000  0  3G13G 6G19
  24415763.596    -1459726.764 5   -478910.54421         7.750           0.125
  21674413.955   -15504316.421 7 -11980644.33823        26.250           2.938
  23859081.627    16258832.683 5  12666974.73921        11.250           0.750
 91  5 20 20 55 15.0020000  0  3G13G 6G19
  24405174.533    -1515369.205 5   -522268.08821         7.750           0.125
  21671802.033   -15518040.496 7 -11991338.40723        26.250           2.969
  23867315.510    16302109.434 5  12700696.78721        10.500           0.688
 91  5 20 20 55 30.0020000  0  3G13G 6G19
  24394593.408    -1570971.799 5   -565594.56321         8.000           0.250
  21669202.143   -15531703.855 7 -12001985.16923        26.250           3.031
  23875565.627    16345446.384 5  12734465.73321        10.000           0.625
 91  5 20 20 55 45.0020000  0  3G13G 6G19
  24384020.322    -1626535.214 5   -608890.51221         8.250           0.094
  21666613.041   -15545307.402 7 -12012585.32523        26.250           3.063
  23883821.729    16388842.261 5  12768280.60721        11.000           0.594
 91  5 20 20 56  0.0020000  0  3G13G 6G19
  24373454.229    -1682060.976 5   -652157.15221         8.000           0.156
  21664035.377   -15558852.869 7 -12023140.22223        25.750           2.969
  23892095.588    16432295.139 5  12802139.90221        10.750           0.594
 91  5 20 20 56 15.0020000  0  3G13G 6G19
  24362895.463    -1737544.199 5   -695390.61621         8.250           0.156
  21661469.143   -15572335.384 7 -12033646.07023        26.000           2.938
  23900371.104    16475809.618 5  12836047.20321        11.250           0.625
 91  5 20 20 56 30.0020000  0  3G13G 6G19
  24352343.877    -1792987.043 5   -738592.63521         8.250           0.094
  21658916.916   -15585757.498 7 -12044104.85023        26.250           3.063
  23908666.963    16519382.770 5  12870000.22621        10.250           0.531
 91  5 20 20 56 45.0020000  0  3G13G 6G19
  24341802.580    -1848388.858 5   -781762.65621         8.250           0.250
  21656372.393   -15599118.730 7 -12054516.18723        26.250           3.031
  23916965.924    16563015.087 5  12903999.33421        11.250           0.594
 91  5 20 20 57  0.0020000  0  3G13G 6G19
  24331267.611    -1903748.692 5   -824899.98821         8.000           0.219
  21653842.346   -15612418.171 7 -12064879.38123        26.250           3.125
  23925281.213    16606707.178 5  12938045.03221        11.750           0.531
 91  5 20 20 57 15.0020000  0  3G13G 6G19
  24320740.697    -1959067.760 5   -868005.55821         7.750           0.219
  21651323.455   -15625657.440 7 -12075195.68523        26.000           3.000
  23933606.510    16650457.011 5  12972135.72221        11.500           0.500
 91  5 20 20 57 30.0020000  0  3G13G 6G19
  24310221.650    -2014345.806 5   -911079.15721         7.500           0.188
  21648814.049   -15638836.508 7 -12085465.08223        26.000           3.031
  23941944.174    16694264.503 6  13006271.33921        12.000           0.594
 91  5 20 20 57 45.0020000  0  3G13G 6G19
  24299708.994    -2069583.670 5   -954121.43921         7.500           0.156
  21646319.260   -15651956.207 7 -12095688.21423        26.000           3.031
  23950289.846    16738128.634 5  13040451.08621        11.750           0.563
 91  5 20 20 58  0.0020000  0  3G13G 6G19
  24289205.455    -2124779.860 5   -997131.28121         7.500           0.156
  21643833.057   -15665015.383 7 -12105864.18523        26.000           3.000
  23958649.088    16782050.278 5  13074675.65921        11.500           0.531
 91  5 20 20 58 15.0020000  0  3G13G 6G19
  24278709.166    -2179936.483 5  -1040110.26721         7.750           0.188
  21641360.564   -15678016.526 7 -12115994.94023        26.000           3.031
  23967016.143    16826026.637 6  13108942.85321        12.000           0.500
 91  5 20 20 58 30.0020000  0  3G13G 6G19
  24268220.432    -2235052.519 5  -1083057.67221         7.750           0.094
  21638896.580   -15690958.677 7 -12126079.72123        26.250           2.969
  23975394.783    16870058.345 5  13143253.18821        11.750           0.469
 91  5 20 20 58 45.0020000  0  3G13G 6G19
  24257741.994    -2290123.760 5  -1125970.10921         7.750           0.188
  21636445.580   -15703837.996 7 -12136115.54823        25.750           3.125
  23983785.354    16914148.952 5  13177609.41921        11.500           0.469
 91  5 20 20 59  0.0020000  0  3G13G 6G19
  24247269.439    -2345149.596 5  -1168847.21621         8.000           0.188
  21634007.260   -15716653.835 7 -12146101.91023        25.500           3.031
  23992191.502    16958299.002 5  13212011.96721        11.000           0.594
 91  5 20 20 59 15.0020000  0  3G13G 6G19
  24236805.361    -2400132.919 5  -1211691.19921         7.750           0.156
  21631578.916   -15729409.267 7 -12156041.20023        25.250           3.000
  24000600.400    17002505.162 5  13246458.21421        11.250           0.625
 91  5 20 20 59 30.0020000  0  3G13G 6G19
  24226348.385    -2455078.082 5  -1254505.42121         7.500           0.219
  21629163.393   -15742108.939 7 -12165937.04023        25.750           3.063
  24009022.510    17046762.628 5  13280944.46121        11.000           0.594
 91  5 20 20 59 45.0020000  0  3G13G 6G19
  24215901.439    -2509979.108 5  -1297285.27821         8.000           0.250
  21626758.033   -15754746.859 7 -12175784.76123        25.250           3.063
  24017451.877    17091076.897 5  13315474.95621        11.000           0.656
 91  5 20 21  0  0.0020000  0  3G13G 6G19
  24205461.479    -2564839.644 5  -1340033.56921         8.250           0.094
  21624363.150   -15767327.117 7 -12185587.55123        25.250           3.063
  24025898.799    17135443.724 5  13350046.40721        11.000           0.563
 91  5 20 21  0 15.0020000  0  3G13G 6G19
  24195030.643    -2619655.299 5  -1382746.91821         8.250           0.156
  21621982.650   -15779845.464 7 -12195342.09723        25.500           3.031
  24034348.221    17179866.947 5  13384661.81321        10.750           0.531
 91  5 20 21  0 30.0020000  0  3G13G 6G19
  24184605.768    -2674429.217 5  -1425427.69621         8.500           0.156
  21619610.666   -15792305.079 7 -12205050.87923        25.250           3.094
  24042813.900    17224343.183 5  13419318.51021        10.500           0.406
 91  5 20 21  0 45.0020000  0  4G 2G13G 6G19
  21295651.588          -0.84218                        30.250
  24174191.400    -2729162.915 5  -1468077.18221         8.500           0.125
  21617250.127   -15804707.999 7 -12214715.48423        24.750           3.125
  24051285.783    17268870.301 5  13454014.86921        10.250           0.531
 91  5 20 21  1  0.0020000  0  4G 2G13G 6G19
  21297304.682        8681.418 8                        30.500
  24163786.244    -2783855.256 5  -1510694.44121         8.250           0.156
  21614901.400   -15817053.248 7 -12224335.14623        24.500           3.094
  24059772.916    17313449.079 5  13488751.47421        10.000           0.438
 91  5 20 21  1 15.0020000  0  4G 2G13G 6G19
  21298969.533       17427.834 8                        30.250
  24153384.908    -2838505.838 5  -1553279.13121         8.250           0.188
  21612563.205   -15829340.543 7 -12233909.65323        24.750           2.938
  24068264.541    17358079.486 5  13523528.30921        11.000           0.469
 91  5 20 21  1 30.0020000  0  4G 2G13G 6G19
  21300645.463       26238.346 8        -0.06033        30.500           3.469
  24142995.197    -2893114.362 5  -1595831.05921         8.500           0.156
  21610235.807   -15841569.629 7 -12243438.80423        24.500           3.063
  24076764.932    17402761.372 5  13558345.26121        10.750           0.438
 91  5 20 21  1 45.0020000  0  3G13G 6G19
  24132610.072    -2947677.211 5  -1638347.39721         8.000           0.156
  21607921.424   -15853737.294 7 -12252920.08823        24.750           3.031
  24085278.518    17447497.722 5  13593204.67221        11.000           0.469
 91  5 20 21  2  0.0020000  0  3G13G 6G19
  24122235.799    -3002196.862 5  -1680830.06121         8.250           0.219
  21605616.143   -15865846.048 7 -12262355.47223        24.750           3.063
  24093800.955    17492285.768 5  13628104.33421        10.750           0.469
 91  5 20 21  2 15.0020000  0  3G13G 6G19
  24111870.979    -3056669.168 5  -1723275.84221         8.250           0.094
  21603324.900   -15877892.002 7 -12271741.91923        25.000           3.000
  24102336.869    17537129.230 5  13663047.19421        11.250           0.438
 91  5 20 21  2 30.0020000  0  3G13G 6G19
  24101511.588    -3111098.088 5  -1765687.83521         8.250           0.219
  21601043.525   -15889879.302 7 -12281082.66223        24.250           3.094
  24110881.799    17582023.682 5  13698029.79021        11.000           0.469
 91  5 20 21  2 45.0020000  0  3G13G 6G19
  24091163.111    -3165480.706 5  -1808063.71721         7.750           0.188
  21598773.924   -15901805.151 7 -12290375.52323        24.500           3.031
  24119433.049    17626971.503 5  13733053.95321        11.000           0.469
 91  5 20 21  3  0.0020000  0  3G13G 6G19
  24080823.611    -3219818.307 5  -1850404.54621         8.000           0.156
  21596514.854   -15913671.157 7 -12299621.74923        24.250           3.063
  24127997.650    17671970.963 5  13768118.35421        10.500           0.438
 91  5 20 21  3 15.0020000  0  3G13G 6G19
  24070492.682    -3274111.780 5  -1892710.98821         8.000           0.188
  21594269.822   -15925478.496 7 -12308822.26223        24.000           3.031
  24136568.604    17717020.714 5  13803221.95621        10.250           0.344
 91  5 20 21  3 30.0020000  0  3G13G 6G19
  24060169.830    -3328355.896 5  -1934978.97921         7.750           0.188
  21592033.791   -15937221.877 7 -12317972.93723        24.000           2.969
  24145152.713    17762125.713 5  13838368.59621         9.750           0.406
 91  5 20 21  3 45.0020000  0  3G13G 6G19
  24049854.908    -3382553.720 5  -1977210.87121         7.500           0.281
  21589810.393   -15948904.679 7 -12327076.40823        23.750           2.969
  24153744.783    17807282.224 5  13873555.38121        10.000           0.500
 91  5 20 21  4  0.0020000  0  3G13G 6G19
  24039549.275    -3436705.395 5  -2019406.82521         8.000           0.188
  21587599.088   -15960527.187 7 -12336132.89723        23.250           3.000
  24162348.127    17852489.731 5  13908781.89921         9.750           0.500
 91  5 20 21  4 15.0020000  0  3G13G 6G19
  24029253.830    -3490809.071 5  -2061565.38821         8.250           0.219
  21585399.322   -15972087.749 7 -12345141.11523        23.500           2.969
  24170959.104    17897749.745 5  13944049.32021         9.250           0.563
 91  5 20 21  4 30.0020000  0  3G13G 6G19
  24018968.494    -3544862.892 5  -2103685.08521         8.750           0.125
  21583211.104   -15983584.806 7 -12354099.85123        23.000           2.938
  24179584.189    17943063.366 5  13979358.52421         9.000           0.469
 91  5 20 21  4 45.0020000  0  3G13G 6G19
  24008692.322    -3598868.100 5  -2145766.91421         8.750           0.219
  21581035.322   -15995019.756 7 -12363010.18923        23.250           3.031
  24188215.338    17988429.023 5  14014708.26521         9.250           0.469
 91  5 20 21  5  0.0020000  0  3G13G 6G19
  23998427.088    -3652820.528 5  -2187807.61121         8.750           0.156
  21578872.307   -16006388.618 7 -12371869.03523        23.000           3.000
  24196860.041    18033850.202 5  14050101.26921         9.250           0.563
 91  5 20 21  5 15.0020000  0  3G13G 6G19
  23988167.471    -3706726.044 5  -2229811.73421         8.750           0.156
  21576718.947   -16017697.503 7 -12380681.14523        22.750           2.969
  24205512.861    18079320.724 5  14085532.74821         9.750           0.531
 91  5 20 21  5 30.0020000  0  3G13G 6G19
  23977917.939    -3760584.368 5  -2271779.12121         8.750           0.250
  21574578.150   -16028946.282 7 -12389446.42123        22.750           2.906
  24214175.518    18124840.634 5  14121002.69821         9.000           0.656
 91  5 20 21  5 45.0020000  0  3G13G 6G19
  23967678.072    -3814392.662 5  -2313707.49921         8.750           0.250
  21572451.916   -16040132.158 7 -12398162.67623        23.250           3.000
  24222847.713    18170412.278 5  14156512.94221         9.500           0.719
 91  5 20 21  6  0.0020000  0  3G13G 6G19
  23957446.791    -3868152.941 5  -2355598.48221         8.500           0.250
  21570334.283   -16051257.620 7 -12406831.86023        23.250           3.063
  24231527.775    18216032.987 5  14192061.42621        10.000           0.656
 91  5 20 21  6 15.0020000  0  3G13G 6G19
  23947228.400    -3921860.171 5  -2397448.13021         9.250           0.219
  21568227.979   -16062317.667 7 -12415450.06823        23.000           2.844
  24240219.439    18261707.336 5  14227651.72221         9.750           0.625
 91  5 20 21  6 30.0020000  0  3G13G 6G19
  23937017.752    -3975514.192 5  -2439256.31421         9.750           0.188
  21566137.361   -16073312.295 7 -12424017.30223        22.750           2.781
  24248923.932    18307435.068 5  14263283.59521         9.500           0.625
 91  5 20 21  6 45.0020000  0  3G13G 6G19
  23926817.393    -4029117.075 5  -2481024.64021        10.250           0.219
  21564056.682   -16084243.729 7 -12432535.29723        23.250           2.938
  24257631.979    18353213.777 5  14298955.19421        10.500           0.656
 91  5 20 21  7  0.0020000  0  3G13G 6G19
  23916626.713    -4082669.552 5  -2522753.70121        10.250           0.313
  21561987.541   -16095113.007 7 -12441004.85123        23.500           2.938
  24266357.588    18399041.960 5  14334665.35621        10.500           0.688
 91  5 20 21  7 15.0020000  0  3G13G 6G19
  23906445.752    -4136170.738 5  -2564442.79721        10.250           0.250
  21559931.908   -16105919.462 7 -12449425.46223        23.250           2.875
  24275085.729    18444920.236 5  14370414.54221        10.750           0.656
 91  5 20 21  7 30.0020000  0  3G13G 6G19
  23896274.939    -4189619.664 5  -2606091.16121        10.000           0.125
  21557887.393   -16116662.056 7 -12457796.30523        23.500           2.938
  24283822.408    18490849.460 5  14406203.42521        10.250           0.656
 91  5 20 21  7 45.0020000  0  3G13G 6G19
  23886112.822    -4243015.867 5  -2647698.42921        10.000           0.156
  21555854.510   -16127340.809 7 -12466117.40823        23.750           2.906
  24292572.752    18536829.117 5  14442031.60421        10.750           0.719
 91  5 20 21  8  0.0020000  0  3G13G 6G19
  23875962.018    -4296360.555 5  -2689265.56921        10.000           0.125
  21553834.736   -16137957.113 7 -12474389.84323        23.500           3.031
  24301336.650    18582857.415 5  14477897.69721        10.250           0.625
 91  5 20 21  8 15.0020000  0  4G15G13G 6G19
  24870351.432      -13558.606 5                        10.500
  23865821.033    -4349650.011 5  -2730789.66121        10.250           0.156
  21551827.580   -16148507.351 7 -12482610.80023        23.250           2.875
  24310102.377    18628937.852 5  14513804.40921        10.500           0.563
 91  5 20 21  8 30.0020000  0  4G15G13G 6G19
  24867789.775      -27002.811 5        -0.41631         9.750           0.531
  23855692.760    -4402883.859 5  -2772270.41121        10.250           0.250
  21549832.252   -16158991.470 7 -12490780.23523        23.500           2.875
  24318883.635    18675070.289 5  14549751.63621         9.750           0.563
 91  5 20 21  8 45.0020000  0  4G15G13G 6G19
  24865254.010      -40337.486 5    -10391.03621         9.500           0.594
  23845571.689    -4456066.585 5  -2813711.36921        10.500           0.219
  21547848.283   -16169413.957 7 -12498901.64723        23.500           3.000
  24327668.393    18721249.736 5  14585735.51321        10.250           0.594
 91  5 20 21  9  0.0020000  0  4G15G13G 6G19
  24862737.432      -53558.571 5    -20693.13021         9.500           0.625
  23835460.721    -4509193.670 5  -2855108.95721        10.500           0.219
  21545879.213   -16179770.746 7 -12506971.86423        23.750           2.844
  24336470.564    18767480.048 5  14621759.00721         9.750           0.719
 91  5 20 21  9 15.0020000  0  4G15G13G 6G19
  24860240.721      -66670.141 5    -30909.89421         9.000           0.563
  23825360.385    -4562269.553 5  -2896466.62321        10.250           0.250
  21543919.072   -16190066.190 7 -12514994.28123        23.750           3.000
  24345271.143    18813756.632 5  14657818.55921        10.250           0.594
 91  5 20 21  9 30.0020000  0  4G15G13G 6G19
  24857768.869      -79666.669 5    -41037.00321         9.750           0.469
  23815271.658    -4615288.493 5  -2937779.92421        10.250           0.281
  21541972.260   -16200294.771 7 -12522964.59823        23.750           2.969
  24354089.135    18860084.812 5  14693918.33821         9.750           0.469
 91  5 20 21  9 45.0020000  0  4G15G13G 6G19
  24855316.783      -92554.685 5    -51079.57621         9.000           0.531
  23805193.479    -4668256.926 5  -2979053.87121        10.250           0.250
  21540038.643   -16210463.158 7 -12530888.01123        24.000           2.906
  24362912.119    18906457.504 5  14730052.78221         9.250           0.500
 91  5 20 21 10  0.0020000  0  4G15G13G 6G19
  24852888.197     -105331.628 5    -61035.59621         9.250           0.375
  23795123.072    -4721172.263 5  -3020286.44421        10.500           0.313
  21538115.119   -16220568.762 7 -12538762.49923        24.000           2.938
  24371748.783    18952877.042 5  14766223.73221         9.250           0.500
 91  5 20 21 10 15.0020000  0  4G15G13G 6G19
  24850475.119     -117995.190 5    -70903.26121         9.750           0.469
  23785064.268    -4774032.166 5  -3061475.79721        11.000           0.281
  21536203.150   -16230609.409 7 -12546586.37423        23.750           2.875
  24380588.479    18999345.431 5  14802432.75621         8.500           0.375
 91  5 20 21 10 30.0020000  0  4G15G13G 6G19
  24848083.744     -130545.419 5    -80682.62921         9.250           0.500
  23775015.143    -4826836.415 5  -3102621.82621        11.250           0.313
  21534307.338   -16240585.124 7 -12554359.65223        24.000           2.875
  24389441.775    19045862.362 5  14838679.60521         8.500           0.406
 91  5 20 21 10 45.0020000  0  4G15G13G 6G19
  24845718.096     -142983.679 5    -90374.72721         8.750           0.406
  23764976.869    -4879586.167 5  -3143725.35221        11.000           0.219
  21532420.549   -16250497.410 7 -12562083.50623        24.250           2.906
  24398300.885    19092425.944 5  14874962.80621         8.250           0.438
 91  5 20 21 11  0.0020000  0  4G15G13G 6G19
  24843372.658     -155305.977 5    -99976.48621         9.500           0.406
  23754951.002    -4932277.136 5  -3184783.11721        10.750           0.188
  21530545.518   -16260342.247 7 -12569754.80223        24.250           2.906
  24407170.979    19139039.916 5  14911285.26621         8.000           0.344
 91  5 20 21 11 15.0020000  0  4G15G13G 6G19
  24841052.252     -167511.233 5   -109487.03321        10.000           0.500
  23744934.533    -4984908.368 5  -3225794.29021        10.750           0.281
  21528685.119   -16270118.758 7 -12577372.85323        24.000           2.906
  24416048.627    19185704.893 5  14947647.45321         7.750           0.406
 91  5 20 21 11 30.0020000  0  4G15G13G 6G19
  24838753.963     -179602.066 5   -118908.40821        10.250           0.438
  23734928.760    -5037482.372 5  -3266760.84921        10.750           0.219
  21526838.611   -16279829.632 7 -12584939.76223        24.000           2.844
  24424948.002    19232417.936 5  14984047.12221         7.750           0.438
 91  5 20 21 11 45.0020000  0  4G15G13G 6G19
  24836470.580     -191579.667 5   -128241.56821         9.750           0.469
  23724936.439    -5090000.108 5  -3307683.57921        11.000           0.250
  21525001.760   -16289475.869 7 -12592456.30323        24.250           2.844
  24433843.385    19279177.582 5  15020483.07921         8.000           0.500
 91  5 20 21 12  0.0020000  0  4G15G13G 6G19
  24834216.947     -203441.538 5   -137484.53421        10.000           0.531
  23714953.807    -5142458.997 5  -3348560.46821        11.000           0.281
  21523180.057   -16299055.166 7 -12599920.68223        24.250           2.938
  24442749.471    19325985.916 5  15056956.99221         8.250           0.438
 91  5 20 21 12 15.0020000  0  4G15G13G 6G19
  24831980.682     -215188.035 5   -146637.61921        10.250           0.438
  23704981.088    -5194859.158 5  -3389391.56921        10.750           0.281
  21521369.838   -16308567.963 7 -12607333.24423        24.000           2.875
  24451663.768    19372842.274 5  15093468.31721         8.250           0.469
